GFSSW_850_spd_000.txt.gz
Wind_Speed
12 13 14 16 17 19 20 20 21 22 22 19 19 19 20 19 18 19 22 27 27 8 19 19 21 15 10 5 5 4 3 2 4 5 5 5 8 6 17 10 20 5 7 10 15
13 12 13 14 15 15 16 18 19 21 21 22 22 21 18 19 21 26 28 25 25 21 15 18 25 21 7 5 6 5 4 8 6 4 4 10 8 20 9 20 9 12 9 13 18
11 11 11 13 14 14 16 17 17 19 19 18 19 21 18 18 17 28 27 27 27 28 19 15 18 25 12 8 8 6 6 5 7 13 12 7 15 11 6 7 9 22 20 21 22
12 11 11 11 12 12 15 16 16 16 17 18 19 18 18 16 7 3 9 20 24 29 25 18 14 17 8 7 7 3 11 9 7 11 6 5 12 10 14 19 21 19 18 22 24
12 10 11 11 11 10 11 14 15 15 15 16 17 15 16 15 22 9 5 3 23 27 31 23 17 17 8 9 6 4 4 9 16 20 18 17 17 12 22 29 27 24 23 21 24
12 11 12 12 12 13 12 12 14 15 14 17 16 16 18 16 26 28 10 5 17 28 35 29 18 18 13 8 13 7 15 19 17 24 15 8 16 6 19 14 24 25 27 24 20
12 13 13 15 15 15 15 14 14 14 15 16 16 15 19 30 8 17 31 24 6 27 34 33 11 17 9 3 10 13 3 7 10 12 8 6 13 12 35 24 18 18 26 15 13
16 15 14 14 16 17 17 15 14 14 13 16 15 16 14 9 28 16 9 16 14 26 33 32 22 14 7 6 6 6 2 4 4 2 4 6 17 11 22 14 15 15 9 3 1
16 17 19 17 15 17 17 15 15 14 13 12 12 14 9 10 24 27 13 6 8 21 23 24 28 9 11 5 4 3 4 6 7 5 3 4 8 8 3 3 8 7 1 6 7
16 18 19 17 17 15 18 17 12 13 11 9 10 3 19 14 20 19 24 9 8 20 14 16 16 5 4 5 7 6 4 3 5 3 2 5 13 17 16 5 8 4 5 8 11
18 19 18 17 20 19 17 15 9 5 19 13 13 10 6 13 7 11 24 19 8 21 12 16 9 12 13 13 4 6 4 7 4 4 2 7 8 15 14 11 7 8 8 10 14
17 19 19 9 12 11 24 27 23 6 6 29 11 16 24 6 7 14 25 15 9 9 15 8 16 14 7 7 4 3 3 5 6 1 3 7 10 12 7 7 4 13 12 10 15
15 19 16 11 11 13 29 31 16 9 2 9 28 11 12 20 12 22 30 15 5 13 20 11 4 15 13 6 10 3 5 4 5 7 4 6 7 6 2 2 8 12 11 11 12
16 19 12 9 7 14 28 23 21 19 4 7 11 10 14 8 6 21 30 17 5 17 20 6 5 13 16 11 6 9 6 3 3 4 3 5 6 6 5 4 6 12 13 13 13
13 15 12 8 9 9 16 23 20 16 1 11 9 5 20 10 8 23 33 24 9 9 9 7 14 11 15 17 9 4 5 6 2 3 3 1 2 7 2 5 6 9 14 13 13
15 14 13 11 7 9 6 24 21 3 5 9 11 10 11 15 7 20 19 12 10 8 3 3 9 10 7 4 11 6 5 2 3 2 2 6 7 6 4 6 4 6 16 16 16
16 16 16 10 12 9 17 18 3 4 3 7 7 10 13 7 10 10 16 15 9 12 14 1 4 3 8 6 3 4 7 2 1 1 6 1 2 8 4 5 9 14 21 19 18
18 18 19 14 17 20 21 2 6 3 8 6 7 12 7 9 8 12 13 11 12 1 13 7 5 8 6 6 6 7 8 5 6 4 4 2 6 5 3 9 10 25 28 22 19
18 22 14 14 22 23 16 3 4 5 7 11 11 8 4 10 2 10 17 11 13 11 10 8 5 2 5 5 11 6 8 4 5 1 1 3 7 8 4 6 4 23 29 24 20
16 5 3 5 27 28 4 4 7 6 12 15 7 5 9 15 8 5 8 9 11 11 7 7 5 0 2 7 3 7 8 2 2 3 4 4 5 5 5 2 3 8 23 23 19
3 2 5 11 30 17 3 6 4 18 14 7 6 6 7 8 5 4 8 3 10 9 4 6 4 2 6 6 8 2 4 4 4 3 4 1 6 5 5 4 8 8 21 22 19
3 1 8 24 5 3 6 5 7 11 3 2 4 6 8 8 5 6 8 6 15 9 8 4 6 6 3 1 5 4 7 6 5 4 1 3 6 2 5 4 10 9 15 17 16
3 4 14 18 3 2 2 2 3 3 1 3 3 4 9 6 6 4 5 3 11 7 9 8 2 5 2 1 2 4 4 4 5 3 6 6 5 3 6 6 9 12 13 15 16
4 2 5 14 7 2 3 4 3 2 3 4 5 7 10 4 2 6 6 1 4 4 7 8 3 6 9 4 6 5 5 5 6 4 5 6 5 3 3 5 5 5 4 10 17
5 4 5 4 5 5 4 6 3 5 8 3 3 14 7 5 4 5 3 4 4 8 4 4 4 3 3 4 4 6 9 11 9 9 7 5 8 3 2 4 4 6 2 6 13
4 4 4 1 0 5 4 5 4 3 4 1 7 4 4 4 4 8 8 4 5 3 3 3 2 3 2 3 3 2 4 8 4 4 2 5 4 2 3 4 3 3 3 1 8
7 6 3 0 2 3 3 5 5 5 4 5 7 6 9 1 2 11 11 12 8 7 3 5 5 3 3 2 2 4 8 8 5 4 7 7 6 4 3 6 5 5 3 3 7

GFSSW_850_spd_003.txt.gz
Wind_Speed
10 11 12 12 13 14 17 20 19 19 19 19 18 16 15 15 17 20 22 20 20 9 13 19 22 19 12 7 7 5 2 4 4 5 4 3 4 3 10 10 14 7 9 10 14
10 11 12 13 13 14 15 16 18 19 21 20 20 19 16 17 20 26 26 20 20 20 17 11 18 23 9 8 7 5 4 9 6 4 4 6 7 11 7 8 10 12 16 15 18
9 10 10 10 11 12 14 14 14 15 18 18 18 18 18 17 16 22 26 24 21 19 25 13 17 23 14 10 9 6 5 5 5 10 10 7 8 4 5 6 11 20 23 20 21
10 9 10 10 9 11 12 13 15 14 14 16 16 15 17 16 9 6 7 17 21 23 25 21 16 14 10 7 9 4 9 8 6 6 5 5 10 9 12 19 18 27 29 26 23
10 9 8 10 11 11 10 10 13 14 14 13 14 16 16 17 21 9 4 2 17 24 28 29 19 17 11 14 8 5 4 9 16 13 14 13 17 12 18 31 21 20 16 23 23
9 7 9 12 12 12 12 11 11 12 12 14 12 15 19 15 15 22 17 4 4 21 29 34 18 25 14 10 17 11 17 20 13 17 12 7 12 2 32 25 24 21 22 20 21
10 9 11 11 14 14 14 13 12 10 13 13 12 14 17 20 9 8 24 28 10 17 31 37 21 19 13 7 13 9 4 4 6 6 8 8 9 8 27 19 16 15 15 12 5
13 12 14 14 14 14 15 16 14 12 12 13 12 14 11 8 20 21 7 17 23 14 29 33 29 19 9 9 6 9 3 9 2 2 4 5 10 7 12 3 6 4 5 4 5
13 16 15 18 20 17 15 15 15 14 12 12 12 12 7 8 25 22 25 7 10 13 22 30 17 15 11 7 4 2 5 6 6 7 5 6 7 5 1 8 10 6 4 5 7
13 13 15 18 18 19 16 15 14 14 12 9 10 5 13 11 17 13 18 15 9 12 14 18 11 8 8 9 11 7 7 3 5 2 2 4 12 14 16 7 7 3 4 7 9
13 13 16 18 20 19 18 12 11 7 21 13 11 10 5 11 8 8 15 20 11 16 10 22 11 15 17 12 5 7 7 11 2 2 1 4 6 13 10 8 8 7 11 11 12
13 13 15 19 16 13 19 29 24 6 5 29 15 20 11 8 6 8 17 17 10 7 11 11 14 12 9 8 7 5 5 5 3 1 3 5 13 12 3 5 6 15 15 14 15
12 13 16 17 13 16 19 27 21 15 2 6 36 15 11 21 5 10 22 20 9 11 18 17 7 15 12 7 9 4 6 4 4 3 1 5 6 4 2 2 5 16 18 15 16
12 14 13 13 10 10 14 26 25 15 0 6 11 13 16 10 6 17 26 22 7 15 17 11 6 16 14 12 9 9 4 2 2 4 2 3 5 5 4 1 4 13 19 18 17
13 13 13 8 6 9 5 22 18 13 3 8 9 2 16 15 8 15 26 23 9 11 10 6 14 18 16 15 9 4 5 3 0 3 1 2 2 6 2 3 6 11 15 17 17
15 14 13 12 13 11 7 14 17 4 5 8 9 10 14 8 7 20 21 18 9 8 15 3 7 9 8 8 9 9 7 5 3 3 3 5 5 5 3 4 5 7 16 19 20
16 15 15 12 9 12 16 23 3 4 2 7 5 10 11 7 3 10 16 17 6 10 18 3 3 4 6 9 3 4 6 2 1 4 4 2 2 8 3 4 9 17 25 23 23
16 16 15 12 14 24 26 2 7 5 5 2 6 12 7 9 8 11 16 14 10 2 11 5 5 8 6 6 6 5 6 4 5 4 2 3 5 5 3 3 6 20 29 27 26
17 17 16 16 20 30 16 3 3 3 7 9 11 12 5 11 6 9 11 12 10 6 7 12 3 2 9 4 9 4 5 4 4 2 1 3 5 7 1 3 3 18 30 31 28
17 7 7 13 34 31 3 4 5 9 11 13 5 5 9 13 2 9 12 12 12 15 6 4 5 4 4 7 4 6 6 3 1 4 3 3 4 4 5 4 3 9 22 29 25
6 3 4 21 35 10 3 5 6 12 16 9 5 6 7 7 5 6 16 6 10 18 5 6 4 1 6 5 9 4 3 1 3 2 3 1 4 5 4 3 6 11 24 28 25
3 2 7 32 6 4 3 5 8 16 13 6 6 5 9 9 8 9 10 6 20 15 8 7 5 4 3 1 3 5 8 11 4 3 1 2 5 1 5 5 10 16 25 24 21
3 4 13 26 4 8 5 9 8 7 6 6 5 4 7 10 8 5 9 14 24 17 9 6 2 6 4 2 4 5 4 4 4 3 6 5 4 1 3 4 8 20 22 20 18
4 3 6 19 8 3 3 3 5 3 1 1 3 6 9 10 2 8 7 5 18 23 18 5 3 5 8 5 6 5 4 4 6 4 5 6 5 3 1 5 8 11 14 15 18
6 5 7 5 7 10 3 9 5 5 4 3 4 7 10 5 4 6 4 3 4 17 3 2 3 3 1 2 6 8 10 12 10 11 10 7 9 6 4 6 10 6 6 10 13
4 4 5 2 3 7 6 4 14 3 5 6 8 14 7 7 6 10 9 5 8 2 3 3 3 2 2 2 4 4 6 11 10 3 8 5 7 5 4 8 8 7 7 7 8
7 9 3 2 2 4 5 5 7 8 4 2 12 9 5 5 6 12 9 14 9 7 4 4 5 3 2 2 4 3 9 10 7 5 10 11 9 7 4 7 10 10 8 5 2

GFSSW_850_spd_006.txt.gz
Wind_Speed
9 10 11 11 11 11 15 17 19 16 16 18 16 15 15 15 15 17 16 16 15 12 10 17 19 19 11 8 7 6 7 11 14 9 3 2 5 6 8 11 9 8 6 7 13
9 9 10 11 11 12 12 14 16 18 18 18 17 15 15 14 16 21 23 19 16 11 16 8 14 18 17 12 8 13 11 16 9 10 7 4 10 11 9 12 14 10 6 10 12
8 8 9 10 9 10 11 11 11 12 13 16 18 19 19 16 13 18 23 22 18 17 16 12 10 17 24 16 17 14 17 12 11 10 7 8 12 7 13 12 8 15 16 16 17
9 8 8 8 9 10 10 10 11 11 11 12 14 15 14 13 7 3 3 11 18 20 16 16 16 14 18 17 21 14 19 16 13 9 8 11 11 15 18 24 19 20 19 17 11
9 7 5 6 8 10 10 9 9 12 13 12 12 15 15 15 16 6 3 4 4 17 22 21 20 22 20 23 20 20 17 17 16 14 14 12 16 18 24 27 23 21 16 13 17
11 8 7 6 7 9 10 10 10 10 13 11 12 15 14 15 13 19 17 8 4 8 21 23 17 24 19 24 25 15 22 18 16 15 13 13 18 6 28 22 22 15 14 12 15
14 12 11 9 9 9 10 11 11 10 10 11 11 13 13 20 10 9 19 24 27 9 21 25 28 15 20 19 24 25 13 15 18 17 14 9 18 19 22 16 13 9 5 5 7
15 15 12 11 11 11 10 10 12 11 10 10 12 12 10 15 23 19 11 7 17 20 13 21 23 23 13 19 19 21 17 17 18 14 13 9 17 11 5 2 2 1 1 2 3
16 16 15 13 14 14 15 12 14 14 12 11 11 10 8 9 22 23 23 15 6 15 17 12 20 11 20 12 13 17 16 22 17 15 13 12 13 6 7 14 15 8 2 4 6
17 16 14 13 15 15 13 16 14 15 14 12 12 6 15 10 12 17 21 20 11 14 12 15 15 10 12 13 20 16 19 12 18 12 11 11 17 14 13 11 9 8 6 7 7
18 15 15 14 17 17 14 15 8 7 25 12 12 9 3 16 6 12 12 17 13 12 12 24 12 19 28 17 16 18 18 14 13 7 6 13 16 14 19 11 11 9 10 10 9
16 15 14 14 16 18 13 20 18 8 5 26 9 24 6 8 7 14 13 19 16 16 20 16 23 24 15 19 19 20 16 16 12 6 6 13 16 16 15 12 10 13 15 15 13
14 15 14 14 16 20 19 24 29 22 3 10 30 19 15 15 8 14 21 26 14 15 18 23 17 18 18 22 22 15 17 15 9 5 6 9 18 11 5 5 4 11 15 16 16
13 13 13 12 13 14 14 26 19 25 2 6 10 13 20 11 11 22 24 23 8 20 19 19 21 23 18 21 23 18 11 9 8 1 5 3 5 8 9 5 7 15 17 17 18
13 13 13 13 7 7 9 11 23 16 4 11 10 8 14 21 5 23 21 23 15 11 6 14 13 17 20 24 26 11 12 9 3 5 6 9 6 4 3 7 11 16 18 17 16
13 13 14 15 15 14 7 7 16 2 7 9 9 13 14 23 12 14 16 17 9 8 17 12 7 20 18 24 20 15 14 8 4 1 7 11 9 5 4 1 12 16 18 19 18
13 13 15 15 10 12 16 19 3 6 4 5 4 8 16 12 19 10 17 21 8 7 7 10 15 5 17 16 3 16 15 3 5 4 6 3 6 10 3 3 10 18 22 21 20
15 14 14 17 17 12 34 3 7 4 5 3 6 14 9 15 14 13 15 17 18 13 11 8 5 11 13 20 9 16 14 4 5 6 5 4 6 2 5 2 7 19 24 22 21
13 12 16 18 18 25 18 5 4 4 8 7 14 9 9 17 8 13 17 19 12 18 4 9 4 7 12 5 11 4 6 2 3 1 3 5 4 4 2 2 7 16 24 23 22
12 10 14 11 22 32 2 4 4 6 6 18 9 11 12 19 5 14 15 16 12 17 9 12 4 6 6 8 4 10 10 4 2 5 5 4 3 2 3 1 6 14 25 24 22
10 4 5 14 31 14 3 5 5 13 16 16 9 11 11 16 7 14 15 8 20 16 14 3 7 2 13 6 12 10 6 4 2 3 3 3 4 3 2 3 5 12 24 24 23
6 3 12 30 6 5 4 5 5 7 26 14 10 8 14 15 11 5 15 8 27 13 9 8 3 6 3 3 9 10 11 12 6 5 1 3 3 4 3 4 5 13 22 21 22
5 5 20 37 5 8 5 8 9 13 20 14 12 9 8 14 8 16 13 17 26 16 11 11 7 8 5 2 3 7 11 17 10 1 10 8 3 2 2 2 4 14 21 21 21
5 3 8 19 14 3 8 8 7 21 18 12 9 10 16 12 11 15 14 8 22 26 27 4 5 13 11 9 12 14 19 19 17 10 9 11 6 6 5 5 8 14 19 19 19
8 5 6 6 9 15 6 7 11 9 10 4 7 12 15 9 10 10 14 6 17 24 19 5 4 9 3 2 15 17 19 19 20 19 13 14 18 16 9 10 12 15 17 18 18
6 4 5 4 10 12 12 10 14 4 7 4 3 14 17 12 12 14 13 11 11 16 20 11 3 2 3 4 10 14 19 22 23 21 23 17 17 5 5 11 14 14 14 14 15
11 11 3 3 4 5 5 9 16 15 7 6 13 14 16 9 16 22 20 15 10 16 20 12 5 3 3 4 5 9 18 20 18 20 21 19 19 10 8 11 15 13 11 11 10

GFSSW_850_spd_009.txt.gz
Wind_Speed
10 11 12 13 12 10 11 15 16 17 14 18 17 17 15 14 14 14 13 10 8 11 12 8 11 16 16 16 14 10 10 14 19 15 11 4 8 7 8 14 13 11 9 5 7
10 10 11 12 11 11 11 13 17 19 19 17 15 16 16 15 14 19 20 18 15 12 8 9 9 15 23 19 17 15 13 21 16 12 11 11 8 11 11 14 14 13 9 6 7
11 10 10 10 10 11 11 11 14 16 17 17 19 18 16 13 14 18 19 21 19 16 10 10 10 13 27 25 27 21 20 17 20 13 15 14 13 16 11 14 16 9 12 14 14
12 11 10 8 8 10 10 10 10 11 12 10 12 13 14 11 9 1 12 18 22 21 14 13 13 9 18 24 28 23 25 27 24 15 13 15 16 18 18 20 19 18 19 18 14
14 11 10 9 9 10 9 9 9 9 11 9 9 11 11 15 24 4 2 4 2 14 20 19 20 18 18 21 25 22 23 25 24 20 17 17 19 19 24 23 22 20 17 18 15
15 14 11 9 10 10 10 9 8 8 9 12 10 12 13 18 16 19 12 9 5 6 16 21 15 21 17 24 22 16 29 26 20 24 22 17 20 21 23 21 20 19 18 15 12
16 16 14 12 12 11 11 9 9 9 8 11 10 11 16 20 9 13 18 20 16 13 12 17 21 16 16 18 32 29 17 19 26 21 19 17 20 22 25 25 16 16 12 7 8
15 16 15 14 13 14 12 9 9 9 10 11 11 10 12 13 22 15 9 7 12 19 17 14 19 25 20 15 24 24 19 16 19 23 24 15 19 14 10 8 7 4 4 4 3
16 16 16 16 15 15 15 14 12 10 11 11 8 11 13 11 21 23 23 17 10 11 17 14 16 21 17 10 10 14 19 26 21 23 18 19 16 16 14 10 13 14 8 4 3
18 17 15 15 14 16 15 13 14 11 14 10 10 6 19 11 13 16 18 19 20 11 15 20 14 12 14 16 16 19 25 19 23 21 16 19 21 17 19 11 12 13 11 8 7
18 17 15 15 15 17 18 15 8 7 27 13 12 16 3 17 8 8 16 17 18 20 18 26 12 18 28 27 20 23 18 24 19 22 22 17 20 19 20 18 14 13 13 12 10
17 16 15 15 15 17 19 15 15 4 5 31 20 19 13 6 7 13 17 17 21 21 19 17 19 27 28 22 27 23 22 23 13 14 11 14 18 19 15 19 20 17 16 16 14
16 14 14 13 15 18 24 26 24 20 6 8 36 28 26 11 13 16 21 25 20 21 21 23 20 27 27 22 26 26 20 19 14 13 11 12 17 20 19 18 10 15 18 18 18
14 12 13 13 13 16 22 16 21 20 4 6 9 12 20 13 10 26 25 22 15 21 22 17 21 23 29 28 22 27 19 17 13 12 9 14 7 16 14 13 11 14 20 21 20
14 12 13 15 5 7 9 7 6 9 6 11 9 8 13 15 5 21 28 25 20 16 5 13 13 24 29 25 21 16 25 16 14 11 2 12 6 15 12 15 11 14 21 22 21
17 12 14 15 18 14 13 10 17 2 7 8 7 11 10 20 15 3 32 23 19 18 17 21 21 25 23 20 22 9 17 10 12 5 7 13 12 10 12 13 16 16 22 23 22
16 20 18 14 10 18 12 18 2 6 3 5 4 8 15 13 19 12 19 20 10 7 10 11 17 3 10 14 21 15 16 6 5 5 7 7 10 13 9 5 9 16 23 24 23
16 15 19 15 13 12 27 2 8 3 6 3 4 6 8 10 18 18 13 16 22 10 6 7 7 9 9 11 9 18 16 7 7 9 13 7 7 5 7 3 10 20 24 25 23
14 16 21 19 18 18 13 5 5 4 6 6 8 4 4 10 11 18 18 18 20 17 4 6 6 2 16 13 16 9 19 2 4 5 10 8 9 7 5 7 9 19 25 26 25
14 18 22 19 21 28 5 10 5 5 6 8 11 12 12 18 12 16 10 13 18 18 16 5 4 1 5 13 3 6 11 6 3 7 6 8 8 6 10 8 11 15 25 26 24
16 4 7 17 27 14 6 7 6 9 13 14 15 13 14 17 15 16 7 8 22 17 17 9 1 3 11 5 11 3 7 5 3 3 4 7 5 10 6 5 9 14 25 27 26
9 3 13 27 5 5 8 5 5 6 22 16 9 13 13 18 17 15 15 10 20 11 8 9 5 2 8 4 14 12 9 12 6 5 4 4 5 7 4 4 6 14 22 25 24
6 5 18 37 5 7 9 6 8 7 11 13 11 14 14 16 11 11 8 16 16 20 8 13 3 3 5 8 3 2 11 17 11 3 11 7 5 5 5 6 6 12 20 24 23
5 4 7 18 15 5 11 7 7 16 14 13 9 14 12 14 15 15 8 10 14 21 23 5 8 6 4 7 12 11 15 17 15 9 10 11 7 10 7 7 8 13 18 22 23
9 5 8 6 9 16 6 3 8 5 15 24 8 18 17 14 18 7 17 10 13 19 13 4 6 6 2 4 14 14 19 18 18 17 11 12 14 9 10 8 10 15 20 22 22
6 5 5 3 16 15 14 9 15 12 9 10 13 19 18 12 14 12 15 12 9 13 16 13 4 4 4 2 6 13 16 20 22 22 21 17 15 2 2 10 10 15 20 21 21
18 6 3 5 8 10 9 12 11 16 7 10 13 8 17 14 13 6 18 15 5 14 16 9 6 3 2 6 5 9 18 19 20 21 20 20 18 11 7 8 12 13 15 16 16

GFSSW_850_spd_012.txt.gz
Wind_Speed
12 12 12 12 11 11 11 11 12 12 15 14 23 16 13 13 13 14 15 9 8 14 14 11 8 10 15 20 17 12 5 11 14 14 15 10 4 8 3 7 13 16 13 2 2
13 12 12 12 11 10 9 10 11 14 14 15 13 14 17 15 15 19 20 15 19 16 11 8 10 11 19 19 17 15 8 14 11 13 12 11 6 7 9 10 14 14 14 10 3
13 12 12 12 10 8 8 8 9 12 14 16 17 17 14 12 13 18 18 21 18 18 13 10 11 12 15 26 25 22 17 12 19 24 23 9 13 12 12 7 14 15 15 11 11
14 13 12 11 9 7 7 7 7 9 12 13 13 13 13 10 7 2 8 17 17 18 15 12 14 15 8 16 27 19 25 24 24 27 10 5 12 17 21 16 17 19 17 18 17
14 14 13 11 9 8 7 7 7 7 9 11 11 9 10 11 19 4 3 5 4 7 19 17 18 16 13 10 19 21 17 27 26 26 26 14 13 17 22 20 21 22 21 23 17
16 15 15 13 10 8 8 7 7 9 8 11 12 10 12 16 12 17 12 9 1 2 13 17 16 18 20 19 17 12 25 24 27 25 22 18 14 21 21 18 23 24 20 17 15
19 16 16 15 12 9 8 8 9 9 9 10 13 13 13 19 4 11 18 17 14 11 7 13 21 18 10 15 18 21 16 15 26 25 16 23 18 16 25 25 27 29 19 16 10
17 17 15 16 13 11 9 10 10 9 11 12 9 8 11 13 18 12 9 15 21 17 15 15 8 18 22 12 13 8 11 12 19 13 24 16 16 12 26 30 28 15 6 4 7
17 16 16 14 14 13 12 11 11 12 12 11 7 8 10 9 21 21 21 14 10 9 10 15 12 11 14 7 6 10 12 22 15 19 15 17 17 12 31 26 12 11 14 13 9
16 15 17 15 15 14 13 13 12 12 14 8 10 5 16 13 11 15 20 23 16 11 10 12 10 7 7 11 16 12 16 14 18 17 18 21 15 12 24 17 16 15 15 16 12
15 15 17 15 14 14 15 13 9 3 18 12 9 12 2 8 8 11 16 17 18 18 12 15 9 17 22 22 18 15 17 16 17 17 21 20 19 15 18 21 18 14 14 18 16
14 14 15 14 13 14 13 10 9 4 8 31 31 24 23 5 9 14 16 18 19 16 15 10 21 25 14 17 18 21 18 17 15 20 20 19 17 16 10 17 24 19 18 22 20
15 12 14 12 13 16 19 20 18 15 7 9 34 31 20 18 18 16 23 26 15 17 17 19 20 16 18 18 20 22 23 16 15 15 9 8 12 10 12 22 21 24 22 27 24
14 12 12 12 11 14 14 11 15 16 5 5 7 9 26 8 7 24 22 25 12 18 17 15 19 20 19 23 19 22 23 22 19 17 11 11 4 15 21 16 10 13 13 31 28
15 14 14 14 5 10 6 3 3 5 5 7 6 5 6 15 2 13 29 24 18 15 9 10 11 18 22 21 20 19 17 22 27 11 4 6 5 9 10 19 9 10 21 32 30
17 16 16 16 17 11 9 4 6 2 7 5 5 7 7 11 7 7 26 26 20 16 14 13 14 12 16 21 20 22 15 20 18 11 8 13 9 6 6 13 13 11 22 31 31
18 14 22 20 16 20 12 14 2 5 2 4 4 6 13 9 10 6 16 20 11 6 13 7 19 8 5 12 20 22 14 8 7 6 4 16 8 6 4 8 14 14 26 32 31
16 15 24 22 13 16 20 3 7 7 6 3 3 8 8 7 7 12 7 17 18 10 2 9 8 14 14 11 15 24 22 3 5 5 6 15 6 5 7 10 23 26 31 32 31
16 18 22 26 21 19 14 4 5 3 4 6 5 6 6 7 7 13 13 12 14 19 7 3 9 5 10 15 16 10 9 17 6 10 6 4 4 4 8 6 10 21 29 31 31
19 20 25 27 24 24 4 8 6 4 5 5 9 13 9 10 8 11 13 10 18 18 15 3 6 6 12 8 9 7 8 10 4 7 7 6 8 5 10 9 8 13 22 29 30
17 8 10 27 27 16 5 7 7 13 10 7 9 10 12 10 13 12 9 11 13 12 13 5 3 1 1 8 13 8 6 9 4 5 5 5 1 10 9 12 11 11 26 31 32
17 3 20 29 5 3 4 5 4 6 21 12 10 15 11 11 13 10 12 5 19 13 10 9 4 4 6 4 12 10 8 11 3 2 1 4 2 6 9 8 10 14 28 32 32
15 6 29 35 6 6 6 6 9 3 6 9 9 13 7 6 8 13 12 8 26 13 11 12 5 2 5 8 1 4 7 5 5 3 3 3 3 7 8 8 7 16 27 31 30
10 4 7 15 8 6 9 7 6 17 17 15 13 16 9 10 10 6 9 6 20 16 17 9 6 6 5 6 11 6 7 6 5 1 2 2 6 6 7 9 7 17 24 30 31
10 4 9 5 7 11 5 5 7 6 13 19 7 17 10 8 9 7 11 6 9 13 11 4 4 13 10 18 17 14 9 8 9 7 1 3 7 9 10 10 12 19 25 29 28
10 4 9 4 12 15 15 9 13 6 4 9 14 9 15 9 8 11 12 10 8 8 15 12 6 12 10 6 12 13 13 12 10 7 7 9 5 7 11 22 17 20 23 26 29
13 8 1 5 8 8 6 10 11 11 13 21 13 15 12 12 10 19 17 17 8 10 11 6 4 5 4 4 5 4 8 14 9 8 8 10 7 4 6 7 15 22 24 23 23

GFSSW_850_spd_015.txt.gz
Wind_Speed
10 9 9 9 9 8 7 7 8 9 9 12 12 18 15 14 12 12 14 7 7 10 11 12 10 7 11 14 15 14 3 8 9 10 10 17 4 5 4 4 5 10 14 7 5
11 10 9 10 10 9 6 5 6 8 9 11 14 12 12 12 14 19 19 15 14 14 13 8 5 7 10 9 11 8 5 9 5 10 7 18 6 5 3 1 6 13 8 11 8
13 10 10 10 10 8 5 4 5 6 8 9 11 13 12 8 11 21 20 19 18 14 13 11 9 8 5 13 13 6 10 4 8 23 25 15 6 6 2 3 9 11 13 5 5
13 11 10 10 8 6 5 4 4 6 6 7 8 9 10 7 7 1 4 5 9 15 15 11 8 4 2 4 14 12 19 18 19 30 21 8 11 5 9 9 13 17 19 17 14
14 12 11 11 9 7 5 4 4 5 5 6 5 5 5 11 18 5 4 7 7 5 18 16 11 10 5 5 9 13 15 22 28 31 31 25 17 15 14 17 16 21 22 19 20
15 13 13 12 11 8 6 6 5 5 5 6 6 7 9 13 11 20 17 9 6 3 2 19 10 12 14 10 12 13 14 23 29 23 23 20 11 15 18 18 18 23 26 24 23
15 14 14 13 12 10 7 6 6 5 6 6 5 9 14 24 6 8 13 14 14 7 3 9 14 16 2 4 13 11 12 15 20 23 15 21 16 14 28 19 21 30 28 27 16
17 14 13 12 12 11 8 8 7 7 7 7 6 7 11 14 18 13 11 18 17 17 15 10 10 12 14 10 9 5 6 14 6 9 13 15 20 11 31 25 30 33 32 18 16
17 15 13 12 11 11 9 11 9 8 10 7 6 7 10 9 16 23 15 17 12 10 11 13 12 11 5 4 3 4 9 8 6 8 6 12 20 9 23 21 24 30 30 20 14
18 16 12 12 10 13 11 12 11 10 9 8 10 4 12 9 10 15 21 18 13 9 10 10 10 5 1 5 13 9 9 10 8 5 11 16 16 11 20 26 24 26 19 22 19
19 16 13 14 12 14 14 10 8 4 14 12 11 7 3 2 5 11 12 20 19 14 6 12 7 12 13 14 6 8 10 12 8 10 11 20 16 17 20 22 18 20 18 28 23
20 17 14 15 13 14 14 9 8 3 6 18 27 19 17 7 4 14 12 16 19 15 7 7 17 14 9 11 10 12 13 20 14 15 11 14 22 20 15 17 23 25 18 31 27
21 18 14 15 14 17 19 15 14 10 4 8 27 21 30 22 17 14 21 23 12 11 12 17 4 17 14 13 13 16 16 16 16 16 17 10 15 22 13 26 30 31 25 37 35
20 19 16 16 15 18 18 12 11 6 3 3 4 5 9 7 6 27 25 23 8 17 13 14 21 12 14 17 13 16 16 16 16 11 11 4 9 16 18 14 13 23 22 40 35
22 20 18 18 8 21 9 13 8 5 4 6 5 4 2 10 7 10 27 27 17 13 11 8 9 16 19 21 14 15 10 12 12 16 14 19 7 8 11 19 15 12 30 40 39
24 22 20 22 17 15 14 15 12 3 8 6 5 4 3 10 5 0 4 19 7 10 14 17 2 4 11 15 14 2 4 9 9 11 12 18 11 5 9 17 21 9 28 38 39
27 25 26 28 27 21 17 16 4 4 1 4 4 6 9 7 6 7 4 12 7 5 7 4 11 3 2 3 4 6 5 5 5 8 13 15 9 16 7 12 18 18 31 38 43
29 25 28 28 23 25 19 3 5 5 4 4 3 7 6 6 7 9 4 6 13 5 3 5 5 12 9 15 7 11 13 6 8 7 8 10 10 10 15 10 19 30 40 43 43
27 26 34 31 23 25 20 3 6 5 4 4 2 4 4 7 7 9 10 4 7 16 7 6 6 3 5 8 17 7 10 21 6 4 2 6 9 3 2 8 16 25 32 35 42
30 28 34 32 29 32 4 4 4 2 6 4 7 9 6 8 8 8 9 8 8 16 11 2 5 3 12 13 13 11 10 9 4 5 7 7 5 5 5 12 16 19 26 31 39
31 14 19 36 34 17 3 6 4 8 9 5 5 4 7 5 7 5 7 6 12 13 17 7 5 3 2 8 17 9 10 8 5 7 2 5 5 6 11 14 17 17 29 34 41
22 4 26 40 5 3 3 6 4 5 11 11 6 9 6 9 9 5 10 5 8 7 17 10 4 5 14 11 10 15 11 9 5 6 10 4 4 2 10 10 14 20 29 34 40
20 7 35 44 5 4 3 6 8 8 9 7 8 13 11 8 3 12 6 10 23 10 13 8 4 4 4 6 5 16 15 14 15 11 8 4 3 3 8 8 15 20 26 30 37
10 4 9 15 3 6 6 8 6 9 14 10 4 10 9 7 10 5 10 4 23 16 16 15 6 7 3 2 5 8 19 12 10 5 3 2 6 3 5 8 8 22 30 36 39
6 3 8 5 7 5 10 4 8 5 11 10 6 15 6 5 6 5 4 4 13 21 14 4 5 5 13 17 12 11 13 17 22 12 4 4 6 8 9 9 11 25 29 32 35
9 5 8 8 15 12 9 7 8 6 5 4 8 8 12 10 6 6 7 4 6 11 10 9 4 8 7 8 14 11 13 17 10 5 3 5 3 4 5 12 13 28 31 31 33
8 12 10 9 9 7 6 12 15 12 13 17 14 8 9 10 13 5 12 10 6 10 8 6 3 5 3 11 7 1 18 9 5 1 4 3 5 4 5 9 14 24 30 32 35

GFSSW_850_spd_018.txt.gz
Wind_Speed
13 10 8 7 6 7 7 7 7 7 9 11 10 15 14 11 10 14 15 8 9 10 10 9 11 8 8 9 13 4 2 6 9 8 9 6 3 12 13 6 4 2 3 11 9
14 12 10 8 7 6 6 6 6 6 8 11 14 11 9 14 18 24 20 14 11 12 9 9 6 8 3 6 9 8 6 10 7 10 7 6 6 10 4 3 3 3 3 2 13
15 13 11 10 8 6 4 4 4 5 6 8 12 13 13 11 9 18 17 21 22 17 15 11 8 3 3 8 8 6 11 7 7 21 19 11 8 19 8 5 8 4 2 4 9
18 15 12 11 9 6 5 4 3 3 5 6 7 8 10 10 6 1 2 3 15 21 16 13 9 5 3 5 9 7 11 14 8 18 14 3 9 9 12 14 11 9 10 8 11
19 16 13 12 11 8 7 5 4 3 4 4 5 5 8 10 14 6 8 5 7 14 20 17 12 7 5 5 8 6 5 17 20 23 27 27 17 15 20 23 18 16 17 18 18
19 17 15 13 12 11 8 7 5 4 3 4 5 8 10 7 8 19 10 7 5 7 15 19 11 12 7 7 7 9 12 12 19 22 20 20 24 20 26 24 22 17 19 24 23
20 17 15 14 13 13 10 8 6 5 4 4 5 8 13 22 7 13 18 15 12 6 5 10 23 8 4 4 9 8 8 9 9 8 6 20 22 19 24 26 23 19 22 25 25
21 18 16 15 14 13 12 9 7 7 5 4 5 7 9 7 11 17 14 15 16 15 14 9 6 13 9 9 7 3 3 4 4 8 6 8 27 9 20 23 26 26 31 32 30
22 19 18 16 14 12 12 11 10 8 6 5 6 7 10 5 10 18 19 12 12 18 20 14 10 7 2 3 4 4 5 6 4 7 5 13 27 14 26 27 23 27 32 32 28
23 22 19 17 13 12 14 13 11 9 7 7 7 3 12 8 5 7 22 16 8 8 8 8 5 2 2 5 14 10 6 6 5 4 7 16 21 9 16 24 26 31 33 33 30
25 23 21 19 15 14 19 13 5 6 16 11 10 6 3 1 5 5 21 18 12 10 5 3 3 10 13 13 7 5 6 7 4 4 7 13 18 17 18 23 20 31 32 25 27
26 24 21 19 18 17 19 17 10 4 4 18 23 19 14 1 2 8 12 14 12 11 5 4 12 12 8 10 9 11 12 15 8 9 10 10 16 16 16 21 23 28 29 26 28
26 24 22 19 18 19 24 25 13 6 2 6 19 13 19 16 9 10 20 15 6 12 14 17 6 12 13 12 10 15 17 11 9 10 18 13 21 14 16 24 26 29 32 32 35
26 26 25 22 20 22 25 21 13 4 2 4 4 2 7 10 5 24 20 15 6 15 12 13 17 8 12 15 11 16 10 13 11 7 7 2 11 9 12 18 14 27 24 30 40
28 26 29 25 15 25 20 17 11 4 3 5 4 5 3 8 4 2 23 24 13 9 7 8 8 19 20 17 14 9 8 9 8 8 8 18 10 10 12 13 18 23 26 35 43
33 29 30 29 20 15 16 21 15 3 7 6 4 4 3 5 4 2 6 16 3 15 16 8 1 8 9 14 14 3 7 5 3 4 9 19 12 13 13 15 12 13 27 36 41
32 32 33 28 28 23 25 25 3 4 2 6 5 5 7 7 7 8 8 7 5 7 8 5 16 5 3 5 11 11 4 3 3 6 10 6 12 20 9 11 15 18 25 34 41
21 36 33 31 27 31 34 3 3 4 5 3 4 8 7 7 6 8 5 8 14 7 2 8 4 16 9 11 5 15 14 4 6 3 5 8 10 6 16 28 27 22 32 37 41
25 42 37 41 32 37 23 3 6 5 6 9 5 6 6 6 4 8 8 9 9 15 8 5 4 4 7 9 12 4 9 20 6 5 5 6 4 8 13 10 9 20 30 36 41
15 34 36 40 37 35 6 4 4 4 6 5 7 9 7 6 9 7 7 5 9 16 9 6 3 5 5 8 8 8 5 5 4 6 5 4 5 10 13 13 8 15 22 31 36
23 20 32 39 38 23 4 5 4 8 9 6 6 5 7 5 8 5 6 5 11 14 19 6 5 2 4 9 12 6 11 7 7 7 3 4 6 9 13 10 14 14 27 36 40
11 4 42 45 5 5 3 5 5 5 5 3 4 7 8 9 7 7 9 8 16 7 12 11 4 8 18 4 10 19 20 19 6 7 9 6 7 3 9 13 16 18 26 29 36
21 9 44 45 5 6 4 4 4 6 8 7 9 10 11 6 5 10 7 9 14 12 9 10 5 4 4 8 12 11 19 20 15 5 6 4 6 7 6 8 14 20 24 28 35
9 5 10 16 10 6 10 6 6 9 9 9 5 13 7 7 10 3 7 4 18 9 15 14 3 6 9 3 9 8 23 22 21 10 8 9 17 22 6 10 8 16 26 33 38
7 3 10 8 7 10 11 6 10 7 8 12 4 11 7 6 7 10 8 2 7 13 11 8 6 9 15 18 12 17 24 22 22 6 8 9 14 15 9 11 13 22 27 29 33
4 6 8 11 15 7 12 10 11 8 7 6 9 9 16 11 6 1 5 5 6 12 9 4 5 4 6 10 16 16 20 17 14 5 5 21 27 5 4 12 14 25 29 28 32
7 15 15 13 10 8 5 7 10 6 11 15 14 11 8 16 20 15 17 14 10 11 9 4 3 4 6 5 8 6 18 20 14 12 15 14 23 5 4 6 10 23 28 33 37

GFSSW_850_spd_021.txt.gz
Wind_Speed
19 15 13 13 12 11 11 10 9 10 10 9 11 15 15 15 13 15 16 11 10 13 10 10 11 10 7 7 10 5 1 7 9 8 8 1 1 5 7 5 4 3 3 4 4
18 17 14 13 12 11 10 9 7 9 10 11 11 9 14 15 15 21 18 14 11 11 10 8 6 7 4 3 6 6 5 8 4 5 5 2 6 9 6 12 5 3 0 6 11
18 17 17 14 13 11 9 8 6 7 8 10 11 12 11 12 11 20 21 21 21 15 14 9 8 4 4 6 5 4 9 9 3 12 15 7 7 13 6 6 11 7 4 6 13
21 18 17 16 13 12 9 7 6 6 7 7 8 11 14 13 6 1 4 8 19 25 18 12 8 3 2 5 7 5 4 11 4 13 8 4 6 6 10 11 13 12 6 7 10
20 20 19 16 14 13 10 9 7 6 5 4 5 8 10 10 16 2 4 4 7 22 21 14 9 4 3 4 6 5 2 9 14 21 22 23 19 11 19 27 26 22 20 16 15
20 21 18 17 16 14 13 10 8 7 6 4 5 8 9 5 10 14 11 8 6 13 15 15 6 10 5 4 3 4 10 10 10 14 17 15 20 17 15 22 25 26 24 23 23
22 22 21 19 15 15 14 12 9 7 6 4 5 7 11 18 7 14 17 12 8 7 7 10 17 8 2 3 6 5 6 7 7 8 7 8 21 23 24 22 26 28 25 23 22
24 22 21 18 16 16 14 13 9 8 6 5 5 7 8 4 12 14 17 16 17 12 7 5 3 13 13 8 5 2 2 2 3 11 8 9 22 2 22 31 30 29 30 27 30
25 25 23 23 18 14 14 12 12 10 6 6 6 7 10 6 10 16 18 11 13 17 13 9 5 6 3 3 5 5 7 4 5 7 5 12 13 7 25 22 25 27 27 26 29
24 27 25 23 20 14 13 13 13 11 8 6 6 5 11 5 4 7 23 15 6 9 9 9 7 3 3 6 10 4 3 4 5 1 3 13 18 10 20 20 23 27 34 34 34
25 28 26 23 22 16 18 15 6 6 16 11 9 8 1 1 5 3 15 17 9 4 5 3 5 9 13 8 5 5 6 7 4 7 5 9 15 13 14 20 24 26 31 31 34
19 29 25 26 24 22 22 19 9 2 5 24 19 18 7 2 2 6 14 13 8 6 4 2 12 8 6 7 9 12 16 16 7 8 8 11 21 16 14 18 21 25 30 37 37
23 30 28 27 26 27 26 26 10 6 3 6 21 19 19 15 8 7 16 12 4 7 7 12 3 10 8 9 10 11 14 14 13 7 11 11 28 21 17 23 29 32 33 37 38
26 21 30 27 28 29 25 22 22 5 2 5 5 5 9 9 6 24 20 10 6 12 9 11 15 13 11 12 10 18 9 13 11 5 6 3 10 8 5 15 18 26 28 36 36
21 19 29 37 24 32 25 19 15 5 2 4 5 6 8 9 2 5 19 19 12 9 6 7 5 12 18 13 10 9 6 8 8 7 7 13 8 5 10 18 17 9 24 33 34
18 27 16 41 30 26 23 22 17 4 7 6 4 6 5 7 2 2 7 16 1 10 13 8 6 6 8 15 13 2 7 6 4 5 12 11 11 16 11 15 10 8 27 33 37
22 29 12 39 35 28 31 32 4 4 1 6 5 5 6 5 5 6 4 7 7 5 10 3 13 3 4 6 9 13 6 3 5 7 8 4 11 20 8 7 13 15 25 33 33
25 28 17 45 36 37 45 4 4 5 5 3 5 6 6 7 4 9 5 9 12 6 2 6 6 14 10 9 6 18 14 4 6 5 4 14 12 10 15 22 30 29 27 20 31
17 26 20 44 32 44 35 3 8 7 7 10 6 4 6 7 4 8 8 10 7 15 8 2 5 5 10 6 11 5 12 17 5 3 4 5 8 8 10 12 13 20 23 28 31
15 8 21 42 41 45 9 6 3 5 7 5 7 9 6 7 9 8 7 4 5 11 13 5 5 4 5 7 10 8 5 5 6 4 6 6 6 11 5 13 16 10 14 24 31
11 6 25 41 48 28 5 4 4 7 9 6 6 6 7 6 9 6 4 4 8 8 19 6 4 2 4 11 13 11 10 4 2 4 4 4 6 6 12 12 10 10 18 30 36
6 3 45 47 9 5 5 6 6 5 2 3 2 6 8 10 8 6 8 8 16 10 10 9 3 7 15 4 12 16 15 16 5 6 6 5 9 5 8 11 8 6 17 22 28
4 5 46 45 5 5 6 4 3 5 5 6 6 9 10 7 5 8 6 8 17 12 12 10 5 4 3 7 14 8 13 15 16 4 12 7 11 6 15 19 7 13 20 24 28
8 3 10 24 9 13 8 8 7 9 4 7 4 11 8 6 8 4 5 4 19 15 11 14 4 8 9 3 4 10 16 20 17 11 13 15 21 22 18 18 7 5 21 26 30
5 5 7 7 6 11 9 9 10 7 9 11 5 12 7 6 9 9 8 10 2 9 8 8 6 10 17 20 13 7 19 20 23 27 17 15 14 11 17 15 7 7 20 28 31
7 5 5 8 22 11 12 8 12 9 7 5 8 8 14 9 7 4 5 4 5 7 8 5 4 3 17 21 20 12 17 20 23 21 22 14 16 13 25 15 3 15 20 24 28
5 12 10 12 11 9 8 7 14 6 11 12 14 11 10 14 22 29 13 14 11 9 10 4 3 3 5 4 8 7 18 23 21 20 18 12 12 12 24 16 13 18 24 29 34

GFSSW_850_spd_024.txt.gz
Wind_Speed
19 17 19 17 14 11 11 11 11 11 11 10 6 12 13 15 16 17 16 11 7 12 7 7 8 7 4 3 6 4 1 5 6 7 5 1 1 3 4 4 6 3 3 2 3
20 17 16 16 16 13 10 11 10 10 10 9 9 11 13 16 14 21 17 13 8 7 9 7 5 3 4 3 5 4 3 6 5 5 4 4 4 6 4 10 8 10 6 7 8
21 19 17 17 17 15 12 10 8 7 8 8 9 10 10 8 13 20 23 23 18 11 12 8 5 2 3 4 5 3 6 2 4 7 9 6 7 9 3 5 12 10 11 6 11
22 21 18 18 17 15 12 10 7 6 6 7 7 10 11 10 6 2 5 8 22 23 15 11 6 3 3 4 6 2 6 5 5 10 7 3 5 8 12 17 13 11 10 9 8
20 24 21 18 17 15 13 10 8 6 5 5 6 6 8 11 15 2 3 5 9 21 22 14 8 5 4 3 1 4 3 7 7 12 14 18 17 12 19 25 26 26 23 19 17
22 22 24 21 15 16 13 12 10 7 6 6 6 6 8 4 11 17 7 4 5 15 18 16 6 8 3 3 3 1 5 8 8 11 12 9 16 15 19 17 22 21 25 23 23
19 22 25 21 18 17 13 13 11 8 6 6 6 7 11 18 8 7 14 9 10 11 10 14 13 6 3 2 3 3 4 6 7 9 7 10 16 18 27 30 32 35 27 27 26
17 23 24 23 22 18 14 14 11 8 6 6 6 7 8 7 9 12 19 14 11 10 8 3 3 9 8 5 4 3 2 3 5 4 8 11 17 8 14 27 30 37 38 32 31
24 21 24 24 22 18 13 11 12 9 8 6 7 7 9 7 9 12 13 16 18 12 9 3 3 4 4 3 3 5 5 5 6 4 5 10 4 3 9 11 18 24 28 30 32
27 24 24 25 23 20 14 12 13 12 9 7 9 6 9 2 2 5 15 12 6 11 9 7 6 3 3 4 5 4 4 3 8 3 5 10 16 14 22 26 22 28 29 28 32
23 23 18 27 25 23 20 19 9 6 15 11 7 6 1 1 3 2 8 16 8 8 5 3 5 7 10 7 3 1 5 11 6 8 8 13 18 17 16 19 20 26 28 33 35
23 25 18 28 27 30 27 23 19 5 4 23 20 15 6 3 1 4 10 11 6 5 4 1 10 7 5 5 7 8 10 13 13 13 11 12 24 18 15 21 26 24 30 28 35
23 22 21 27 25 36 32 29 21 14 1 5 20 24 13 12 5 7 14 9 3 5 6 7 3 7 10 5 7 9 10 8 12 8 13 14 28 19 21 29 34 34 37 38 33
23 21 21 15 24 40 36 28 19 11 4 4 4 5 12 10 5 20 18 9 3 9 5 9 12 7 5 6 8 14 8 13 13 6 7 3 10 8 9 16 12 25 27 31 36
23 24 24 21 17 41 34 32 22 10 2 3 6 7 11 15 2 4 17 12 7 8 6 6 5 7 15 16 7 5 6 9 10 8 8 9 6 5 5 8 8 9 25 28 30
26 29 21 28 19 41 33 29 21 6 6 6 5 6 6 6 3 4 9 10 0 10 12 11 5 4 6 8 11 3 5 4 3 7 10 13 10 15 8 13 8 16 29 31 31
37 30 22 28 10 39 39 34 5 4 0 6 5 6 6 6 5 5 6 8 6 4 8 4 15 4 4 4 7 10 2 2 5 6 8 7 11 23 5 8 9 13 23 30 32
16 19 21 38 16 43 49 6 4 6 5 5 5 8 6 6 4 7 4 7 11 5 1 4 5 12 11 14 7 15 11 5 4 4 4 6 8 8 11 20 31 30 29 27 25
2 11 18 38 23 50 34 3 8 7 7 9 11 4 5 6 3 6 8 6 7 15 6 3 4 2 7 8 8 5 10 13 6 4 4 5 8 9 11 9 11 17 25 29 28
5 5 13 15 50 38 11 7 4 4 6 5 5 5 6 7 8 7 6 4 6 12 7 2 6 6 4 9 10 7 1 3 5 4 4 6 7 11 10 11 12 13 11 26 28
2 5 9 23 44 24 7 3 3 6 7 4 4 5 4 6 8 5 5 4 7 5 13 5 4 1 5 10 12 8 5 6 2 4 4 4 6 5 7 3 14 19 22 26 30
5 2 24 51 8 4 5 6 5 5 3 3 3 4 5 7 7 6 7 5 7 9 10 9 3 6 14 5 14 14 10 15 6 5 4 4 13 5 2 7 14 20 21 16 25
2 3 31 48 4 6 5 4 3 4 3 3 3 2 4 6 4 8 4 6 15 10 11 10 5 4 4 1 6 10 16 18 15 1 10 5 8 9 2 12 15 15 9 3 12
2 3 12 19 4 9 9 5 4 6 5 3 2 5 4 5 8 3 3 5 20 13 10 15 4 9 12 13 4 7 16 17 16 9 19 21 15 19 13 12 10 18 4 8 14
4 3 4 5 4 8 4 9 6 5 3 9 5 9 6 5 5 6 6 8 6 13 8 8 8 13 22 22 13 11 13 15 19 22 11 16 21 16 6 8 7 20 9 12 17
5 4 5 8 16 6 5 6 11 6 8 5 7 7 9 5 7 6 6 6 6 3 8 4 6 7 19 18 18 16 15 17 24 21 21 22 24 5 4 12 15 25 12 15 19
4 7 9 10 9 7 6 6 9 6 9 7 12 9 8 13 22 22 13 12 5 3 8 4 3 3 8 6 5 3 16 19 16 21 19 18 23 13 17 12 17 19 18 18 20

GFSSW_850_spd_027.txt.gz
Wind_Speed
20 21 20 19 20 16 13 12 10 10 10 8 5 4 6 11 13 16 15 12 9 14 7 5 6 5 3 5 6 6 2 5 7 7 5 1 2 2 3 4 5 2 5 4 4
20 20 19 18 19 17 14 13 12 9 8 7 6 7 9 10 11 18 15 14 9 10 10 7 5 4 5 5 5 3 3 8 6 5 3 3 3 6 4 6 5 12 8 8 9
20 19 20 19 16 17 17 14 11 8 6 5 6 9 9 6 11 15 18 17 15 11 9 6 5 5 3 5 5 4 5 4 3 3 4 3 6 5 5 6 13 10 10 7 7
19 19 20 21 17 15 17 14 10 8 6 4 6 6 8 7 5 3 6 10 23 22 13 8 6 4 3 3 3 2 7 6 4 7 4 2 3 6 10 16 16 13 12 10 11
21 19 20 20 21 15 14 15 11 8 6 5 5 5 6 7 11 4 2 4 7 23 20 11 6 5 3 2 2 3 3 5 7 9 10 12 15 13 18 25 23 21 22 23 21
21 17 24 20 20 20 13 15 12 10 7 6 5 6 7 3 9 14 7 3 6 15 18 16 5 8 3 3 3 2 4 8 10 13 12 13 21 11 21 19 26 28 28 28 26
21 21 16 23 22 21 15 12 13 10 8 6 6 6 8 12 6 5 14 7 7 13 15 16 9 7 6 1 3 4 5 7 9 11 8 9 16 14 28 30 31 32 35 34 33
24 23 20 18 23 21 19 14 12 9 8 6 6 7 7 5 7 12 15 11 9 12 9 7 11 7 4 1 2 3 3 3 3 1 7 11 12 10 14 14 26 33 32 38 38
25 22 25 20 24 21 22 18 11 10 9 7 7 6 7 4 6 8 14 15 11 11 10 8 7 4 3 2 4 4 3 5 5 6 2 10 7 3 4 7 11 15 20 27 30
26 23 22 22 18 22 22 16 14 13 10 6 7 6 7 2 3 6 15 12 11 10 8 6 4 3 3 5 6 4 5 6 5 1 4 13 19 17 21 22 23 21 27 28 27
25 24 20 23 14 21 27 24 14 5 15 9 6 3 2 4 6 5 15 14 11 9 5 4 5 8 11 6 4 1 3 11 7 8 11 15 22 19 24 24 25 27 28 29 35
24 20 19 19 20 24 40 30 29 10 6 27 18 11 3 5 5 5 16 10 7 4 6 3 10 9 8 5 10 11 13 15 11 9 11 14 27 18 19 24 28 31 30 32 38
26 24 20 22 22 23 42 37 25 17 5 5 19 20 11 10 2 9 21 9 4 5 7 6 4 5 8 5 12 10 13 12 17 9 14 17 24 16 16 27 31 34 36 35 35
27 25 19 21 17 21 36 35 23 17 4 4 5 6 17 8 4 15 20 9 3 11 5 6 9 4 4 8 10 16 6 10 11 6 7 2 10 8 7 14 13 17 25 32 38
29 27 17 15 17 12 21 30 26 16 2 3 5 8 13 14 8 6 19 9 7 6 5 4 5 5 12 12 9 7 5 6 8 8 11 14 7 7 1 5 8 11 25 29 34
32 23 16 23 19 21 24 34 25 4 6 7 6 6 9 8 5 5 8 6 3 5 8 7 4 5 8 7 14 1 3 4 3 5 9 11 11 20 7 8 5 9 20 26 28
29 28 30 28 26 27 44 35 4 4 2 8 5 7 8 7 5 5 7 8 5 4 4 3 15 6 5 5 3 12 2 3 4 6 7 5 11 19 9 16 15 13 19 29 27
20 15 16 27 23 23 41 4 4 5 4 5 6 9 5 5 4 7 5 7 11 5 1 4 4 11 9 13 6 14 11 5 5 5 3 2 9 8 14 18 21 22 28 33 32
8 1 12 22 22 20 16 3 6 6 8 10 11 6 4 4 3 5 8 5 7 13 5 3 4 2 7 3 11 5 10 10 9 13 9 9 12 10 13 9 3 10 16 21 28
1 4 10 14 21 14 3 4 3 5 12 11 5 5 10 9 7 8 6 2 4 10 12 1 5 3 1 6 10 9 1 4 5 5 9 6 6 10 5 5 3 9 16 22 25
5 4 7 16 20 9 2 1 5 7 10 4 4 5 5 7 8 6 3 3 5 1 9 4 4 3 4 9 10 8 7 7 3 4 5 7 8 7 6 6 3 9 20 24 31
5 0 9 17 3 1 2 5 6 3 5 3 4 4 4 7 6 6 6 5 11 9 8 7 3 5 11 10 15 19 19 17 7 11 5 4 18 4 6 4 5 11 19 27 28
2 3 21 26 2 2 2 4 5 3 2 2 3 3 2 5 3 5 4 3 16 9 10 8 4 5 6 2 6 10 18 19 12 4 13 6 11 4 2 5 9 10 18 26 21
2 2 7 10 0 4 5 3 4 5 3 5 4 4 3 3 4 0 4 3 16 10 10 13 4 7 9 15 9 8 14 19 18 7 17 19 21 15 15 13 10 9 18 22 16
1 3 3 2 2 7 3 4 5 3 2 4 3 5 4 4 4 6 7 3 5 12 7 9 7 10 19 26 23 24 25 17 20 24 11 19 21 16 13 12 2 8 15 19 16
3 2 3 3 10 7 5 5 7 4 5 5 2 7 7 5 7 5 3 4 5 3 7 5 5 4 21 21 22 19 16 15 20 21 23 23 26 12 7 7 3 9 16 21 18
14 3 4 11 6 6 4 6 7 7 4 2 9 4 8 11 14 16 13 7 3 4 10 4 3 3 13 10 17 5 5 9 11 16 14 17 17 2 5 10 13 16 23 26 22

GFSSW_850_spd_030.txt.gz
Wind_Speed
16 18 16 18 17 17 18 16 13 12 12 9 8 6 8 10 13 15 17 11 10 16 7 6 6 5 7 7 7 6 8 13 20 15 11 5 10 10 4 8 4 5 4 1 3
13 18 17 16 18 16 16 16 14 12 11 10 8 9 9 10 12 18 18 12 7 9 10 8 6 7 7 9 8 11 10 16 8 11 7 8 6 4 6 10 12 9 3 3 6
18 15 19 17 19 19 15 15 15 12 10 9 8 9 10 10 7 10 18 15 15 12 8 10 7 6 9 8 9 9 14 11 7 8 5 10 11 9 12 13 16 13 7 2 1
21 19 16 20 18 20 18 14 14 12 10 8 8 7 9 8 6 6 10 15 18 15 11 11 8 7 7 9 8 8 13 12 7 9 7 10 9 13 17 24 12 10 11 11 10
23 16 13 20 22 19 21 14 13 12 11 8 7 6 7 7 8 7 4 5 10 21 16 12 10 8 9 4 6 11 10 9 11 11 13 15 20 21 23 23 21 21 18 19 19
23 23 19 15 19 24 23 17 12 11 12 9 7 7 6 8 9 13 6 2 5 17 19 15 8 8 3 4 9 2 8 11 11 15 16 17 24 22 27 25 28 28 31 30 26
23 23 21 19 14 23 21 23 14 11 12 10 8 7 7 9 6 8 13 10 5 13 18 16 12 8 7 5 6 6 10 12 16 15 14 12 20 20 33 29 31 29 29 28 30
24 22 21 21 20 16 22 27 18 13 12 10 7 6 6 6 10 9 11 10 10 11 10 14 14 8 6 4 3 4 5 5 4 3 6 9 15 6 7 19 20 23 28 31 31
25 25 21 21 23 14 23 24 19 15 13 10 7 5 4 4 9 8 15 11 13 11 9 10 10 5 5 6 5 7 7 8 10 8 7 12 11 6 4 9 15 16 17 19 24
25 26 22 22 18 17 24 23 23 18 16 10 5 4 7 4 6 11 17 15 11 15 11 6 4 5 7 8 6 5 12 10 11 1 8 16 22 20 25 27 26 24 24 25 24
24 22 21 18 17 19 19 23 20 12 21 8 9 2 5 7 9 9 18 14 13 13 8 9 6 11 14 13 12 4 7 10 9 9 18 21 24 22 26 30 30 31 31 32 31
21 18 20 22 19 20 20 13 28 13 7 17 10 10 6 8 5 9 20 12 15 13 9 6 11 12 8 10 12 14 16 17 15 13 12 20 33 25 27 32 35 33 34 35 35
22 22 20 21 20 23 21 22 29 21 5 8 18 12 6 8 4 13 20 9 12 12 16 8 2 4 13 12 13 15 16 15 18 17 18 21 27 16 8 12 19 28 34 35 34
27 24 22 22 16 14 14 15 27 11 3 9 9 8 16 9 5 11 19 8 5 12 10 9 11 6 9 12 12 15 8 13 14 11 8 2 11 17 15 13 12 15 18 23 24
27 28 27 18 12 13 10 21 28 16 7 11 7 9 14 14 12 8 17 5 8 8 6 3 6 11 13 15 10 7 6 7 9 12 14 17 7 11 3 11 10 14 18 18 19
38 34 21 20 19 18 8 26 25 5 6 8 8 12 13 17 8 8 11 4 4 7 8 10 2 5 8 10 13 0 7 10 11 8 9 18 15 20 14 10 8 7 13 16 16
45 32 19 21 17 12 8 17 4 5 6 9 9 12 14 12 10 9 11 10 7 6 8 5 16 8 8 7 7 11 3 3 4 6 8 2 11 22 6 6 13 21 18 18 21
26 9 15 18 27 15 13 2 3 6 7 5 13 16 7 16 7 9 11 10 14 6 2 3 3 13 12 15 5 13 13 6 6 6 8 2 12 8 9 11 15 9 12 14 18
13 8 3 13 16 15 16 5 3 6 11 12 12 8 5 11 5 8 9 8 9 14 6 5 5 2 11 7 12 5 10 13 13 21 13 13 22 25 25 22 14 10 6 13 15
14 3 5 16 20 19 4 2 2 6 18 17 6 7 9 14 9 12 12 4 10 14 13 2 4 6 2 8 11 10 0 4 6 6 11 14 17 13 9 3 9 2 7 15 17
7 3 13 20 22 9 2 1 5 16 14 3 7 9 8 12 10 10 5 3 8 10 16 7 5 3 4 13 14 9 6 6 8 9 7 14 12 2 11 12 5 2 7 11 16
5 1 17 24 3 2 3 3 9 10 3 4 6 8 13 10 9 8 8 4 9 11 10 11 4 8 14 10 13 15 16 20 9 12 10 17 20 6 3 8 4 7 10 13 13
3 7 22 9 3 3 2 3 4 4 3 3 4 4 3 7 5 7 5 2 12 10 10 11 6 4 4 3 6 9 16 23 19 13 19 10 14 3 8 13 9 7 12 14 13
3 3 5 5 1 5 4 4 5 6 5 8 8 7 6 4 1 3 6 2 11 14 8 13 5 8 9 11 4 10 18 13 17 12 22 21 33 23 15 15 14 21 16 12 9
5 3 2 3 4 5 1 4 8 4 4 4 4 4 4 3 4 3 7 3 5 10 9 8 5 10 18 24 21 23 26 25 18 24 16 29 23 25 17 18 18 21 11 12 8
5 2 2 6 11 9 5 5 5 4 3 3 4 5 4 4 4 5 7 7 4 9 9 7 5 5 15 22 21 20 21 20 17 18 19 27 28 25 23 26 17 15 15 17 10
18 6 1 9 7 9 6 6 6 7 2 3 4 4 4 7 7 10 9 5 4 5 12 5 3 3 7 15 24 6 5 8 7 9 10 15 20 14 13 8 11 14 17 14 14

GFSSW_850_spd_033.txt.gz
Wind_Speed
15 14 16 17 17 19 17 15 15 15 14 13 12 13 8 7 10 16 18 12 12 17 4 6 8 9 9 9 12 14 13 16 21 21 15 10 9 15 11 14 8 12 13 4 4
20 16 12 15 17 17 19 17 14 14 13 13 12 10 7 8 11 19 18 17 13 11 12 9 11 12 14 14 10 14 13 20 16 14 13 14 13 15 11 19 19 13 10 3 3
19 21 18 14 16 16 19 20 16 13 13 12 11 9 10 7 9 17 22 19 16 12 10 13 10 13 15 12 17 16 19 14 14 9 10 14 14 16 12 14 18 21 16 9 6
21 21 20 18 16 16 16 23 17 13 12 11 10 8 9 8 6 4 15 20 19 16 13 13 14 14 11 11 17 16 17 23 13 8 11 13 18 19 23 21 18 16 11 7 10
25 23 22 21 17 19 17 17 19 15 12 11 9 7 8 9 14 9 6 9 16 16 17 16 16 15 12 11 10 13 18 14 16 16 17 16 20 20 23 22 21 23 19 19 19
25 25 24 23 20 17 18 17 21 17 12 11 10 8 7 11 11 14 6 4 9 18 19 14 7 11 6 9 10 2 13 17 16 18 19 19 23 24 21 27 29 28 28 28 27
26 26 26 23 21 21 15 18 18 19 13 12 11 8 9 11 5 7 14 6 7 15 19 15 7 6 4 5 11 9 14 15 19 21 15 13 20 25 34 31 31 30 29 32 32
25 30 26 25 22 20 20 16 19 22 16 13 11 7 7 13 12 8 7 8 6 9 11 15 10 6 8 1 4 7 12 12 3 8 15 10 17 9 10 19 28 29 30 31 31
26 26 27 25 23 20 21 16 26 27 19 15 11 8 7 8 10 11 9 10 10 10 9 13 11 5 5 9 8 10 10 13 9 9 8 14 12 7 4 10 15 20 20 24 27
25 27 23 20 21 20 18 18 23 24 19 14 6 6 11 8 9 10 12 12 12 15 12 10 8 6 7 10 8 11 15 12 11 4 8 15 21 20 24 23 24 23 24 25 26
24 23 20 17 19 17 16 14 14 15 31 9 15 4 13 10 10 11 15 15 13 14 7 10 8 13 17 17 15 9 9 11 10 8 16 21 22 20 23 27 27 28 29 31 31
23 25 21 18 18 17 16 15 6 3 9 10 13 9 11 12 9 13 18 13 13 12 10 5 12 15 11 10 11 13 13 15 14 11 12 18 28 25 27 29 31 32 34 35 34
27 20 22 20 20 20 17 20 16 14 5 17 18 15 11 11 9 19 21 16 13 14 15 11 2 4 14 11 12 13 12 11 14 17 18 21 25 17 10 14 22 30 34 37 38
21 23 23 23 20 13 13 12 18 17 4 10 13 11 12 9 5 16 21 11 7 15 12 10 8 5 9 13 11 12 8 8 10 8 6 4 11 15 16 16 13 15 18 20 23
28 32 27 27 20 11 7 5 14 16 6 17 11 11 20 13 19 13 20 8 11 8 7 4 6 12 12 12 8 7 3 6 8 10 13 14 7 13 5 9 11 13 17 16 17
32 39 35 30 22 20 13 6 17 2 5 7 8 13 18 16 9 15 18 5 3 7 11 10 4 5 9 7 10 4 4 7 9 5 8 14 16 19 11 16 16 12 21 7 12
37 27 17 13 12 14 10 12 4 5 12 10 9 14 17 15 11 13 14 11 8 5 8 10 16 8 10 8 6 7 1 2 3 4 7 6 9 18 17 16 7 6 12 16 13
38 14 8 13 13 16 18 2 7 7 6 7 15 17 9 17 10 15 15 12 16 10 4 8 6 17 12 14 5 12 9 4 5 7 11 11 10 8 8 6 8 14 18 15 16
32 8 4 13 22 16 8 4 2 11 10 13 17 9 8 19 8 11 13 11 13 13 7 6 3 1 10 7 11 5 8 10 13 18 11 9 20 22 24 23 20 20 19 16 11
32 4 3 11 20 17 4 7 4 3 14 18 7 6 8 17 10 13 13 12 9 17 12 2 3 6 6 6 9 11 3 2 4 5 11 11 19 14 13 16 11 5 6 10 10
6 2 8 18 20 4 3 2 2 12 13 2 9 10 10 15 10 15 16 5 15 13 14 7 4 5 3 11 13 10 7 6 6 7 6 14 11 8 12 8 12 11 9 8 12
6 3 17 17 3 2 3 3 12 13 1 2 7 6 16 16 10 11 8 2 9 10 11 8 3 6 12 9 9 13 13 17 7 8 6 11 19 16 12 14 4 7 11 8 11
6 6 11 1 3 2 2 3 8 3 2 2 4 2 6 13 6 5 6 4 10 11 9 10 5 3 2 3 12 11 16 17 18 14 20 15 16 2 6 10 20 17 16 14 9
4 3 1 4 6 7 4 4 5 3 7 9 9 11 10 12 5 7 6 4 8 11 6 6 5 8 7 6 5 6 15 16 12 8 17 22 31 27 24 20 20 20 26 25 15
4 2 1 2 4 7 5 3 10 4 3 3 4 7 6 4 4 3 4 5 6 8 6 5 4 11 16 20 18 19 22 22 18 19 14 28 26 28 23 22 13 22 19 16 12
5 4 4 4 10 6 4 2 3 4 1 3 7 6 4 3 2 4 7 6 5 9 10 5 4 4 12 19 16 16 22 16 15 17 16 21 26 24 22 21 14 19 18 16 15
11 5 3 5 8 6 6 8 4 5 4 7 6 4 3 4 1 1 3 2 1 3 11 5 3 3 6 12 20 7 2 8 11 13 11 10 18 15 14 13 11 9 11 15 14

GFSSW_850_spd_036.txt.gz
Wind_Speed
21 19 17 17 13 15 15 19 16 15 14 13 14 13 12 10 10 11 19 14 17 19 7 5 8 11 11 14 18 15 5 11 16 14 12 19 7 8 7 14 13 6 12 9 9
20 20 20 20 17 12 15 15 19 17 15 13 13 12 9 8 10 16 16 13 16 13 15 9 11 12 16 14 12 7 7 9 10 13 11 18 8 5 5 12 15 12 10 4 7
22 22 21 20 20 20 14 13 17 18 17 14 11 10 8 6 7 13 18 20 22 17 12 12 10 13 15 18 18 10 12 8 15 23 9 12 16 9 8 5 14 17 15 13 8
23 23 23 21 21 19 18 15 14 21 17 12 11 7 8 9 5 4 10 15 19 16 11 12 15 11 9 13 18 16 16 18 21 23 8 6 14 14 14 15 19 21 12 8 14
24 24 25 23 22 22 19 19 16 16 18 12 10 7 8 8 11 10 5 15 18 17 17 15 17 14 11 10 16 12 16 17 15 18 12 12 12 14 21 18 22 25 24 15 10
25 26 26 27 24 22 19 19 17 14 20 13 11 9 12 11 10 3 3 5 10 14 20 18 10 14 9 14 9 6 11 15 21 12 13 14 15 20 15 23 28 28 26 23 20
26 27 26 27 25 23 20 21 16 16 20 16 12 11 10 14 5 9 12 6 7 14 17 17 7 5 1 4 10 7 8 11 15 14 10 8 14 18 30 32 31 29 29 30 30
27 26 27 27 24 22 20 18 20 12 19 19 13 11 9 9 21 8 9 9 7 8 17 17 12 2 2 4 2 5 10 8 10 19 17 15 15 11 24 30 32 32 31 31 31
26 25 25 25 23 19 18 18 22 16 11 21 16 13 8 10 17 17 10 11 9 5 11 12 11 4 7 3 2 6 6 12 9 5 4 9 6 11 16 9 12 18 21 30 32
25 23 23 24 19 18 19 16 18 16 22 18 10 10 13 12 13 14 14 11 13 13 9 9 5 4 5 7 6 7 10 8 8 5 4 8 13 12 23 24 20 20 22 22 22
24 21 24 24 18 18 18 12 7 9 28 9 12 3 17 17 16 14 17 15 13 15 7 13 4 7 12 10 13 12 8 8 11 9 6 9 15 15 20 23 25 26 27 29 33
22 23 20 20 20 17 15 6 13 2 6 22 8 12 15 18 12 17 20 11 10 8 5 3 7 10 11 11 10 8 7 10 9 9 10 10 21 18 21 24 29 29 30 31 31
23 21 18 23 23 21 14 15 14 15 5 16 13 17 18 11 10 22 23 13 11 9 8 8 2 13 11 7 4 6 6 7 9 11 10 15 18 13 10 23 32 36 37 34 34
19 21 26 24 20 9 12 10 8 10 2 10 10 13 11 10 7 20 22 13 6 11 9 7 7 5 4 9 7 6 3 6 5 6 4 9 7 7 10 9 7 15 15 23 30
23 25 26 30 22 19 2 5 3 8 4 14 9 13 18 12 21 15 22 9 11 9 7 4 4 5 5 6 6 3 7 5 5 6 9 4 4 6 6 6 6 8 13 12 17
24 29 31 18 15 22 12 6 7 3 4 5 8 13 15 16 5 18 15 4 2 5 8 5 4 1 4 3 4 6 2 4 6 4 5 12 9 6 0 2 6 7 16 23 4
30 35 17 12 5 12 13 17 3 4 4 8 9 13 17 13 10 15 11 6 5 4 4 4 8 3 4 4 5 3 2 2 2 3 6 3 8 12 15 15 16 8 10 4 3
31 19 9 3 8 20 19 3 5 4 2 7 14 16 11 15 8 13 12 7 9 6 6 6 4 15 9 9 4 7 4 3 5 3 3 6 7 6 8 10 7 7 11 17 4
25 8 7 12 12 17 9 3 3 3 8 10 18 7 9 11 7 10 10 8 10 10 4 6 3 3 11 6 9 5 6 2 3 5 2 5 6 9 13 14 11 13 20 18 11
13 5 10 19 14 15 1 2 4 5 14 16 5 6 10 14 8 9 12 12 8 14 9 4 3 3 8 6 10 6 3 1 1 3 6 6 8 9 7 8 6 9 5 6 7
10 5 6 15 10 6 1 2 4 9 20 1 9 7 10 14 9 9 11 6 12 12 12 3 2 2 5 8 9 6 5 4 3 3 4 5 4 2 6 7 8 8 1 3 3
7 3 8 11 3 4 1 2 1 4 1 1 6 10 13 14 8 10 11 4 14 9 13 5 3 3 8 7 12 8 8 9 3 5 4 5 12 22 16 3 8 14 9 14 14
5 6 4 4 1 1 3 4 4 3 1 1 4 7 15 10 8 5 10 6 6 5 11 7 3 2 2 3 8 5 7 11 11 7 13 9 10 4 15 22 25 17 21 26 10
4 2 3 4 4 3 1 4 3 8 11 9 8 7 12 7 3 6 7 2 6 3 8 11 3 5 3 2 4 4 5 8 7 6 12 21 31 25 23 22 18 22 24 28 22
3 1 1 1 3 6 2 5 3 3 4 3 2 8 10 4 6 5 9 8 5 7 4 2 2 4 7 11 9 11 15 17 16 18 14 24 25 28 23 24 22 24 22 16 17
3 3 4 2 4 10 1 0 1 7 7 5 10 7 5 5 5 7 6 5 5 7 6 3 3 3 5 13 16 18 17 17 15 16 15 18 24 19 20 24 14 13 17 14 9
8 5 2 1 4 1 2 3 4 4 9 11 6 5 9 7 7 6 6 3 5 6 8 5 2 1 4 7 10 7 5 6 8 11 10 9 15 20 17 10 5 5 11 14 17

GFSSW_850_spd_039.txt.gz
Wind_Speed
20 19 19 19 18 16 15 14 11 17 15 13 14 12 10 11 13 12 20 19 26 14 6 6 10 16 11 9 16 14 2 5 7 8 6 21 6 13 4 10 6 2 10 19 15
22 22 20 20 19 19 19 16 12 12 17 15 14 11 9 10 12 18 18 13 10 20 14 13 12 12 9 10 7 7 6 7 4 11 6 10 5 9 5 5 2 5 15 17 15
22 21 22 23 21 19 20 15 16 14 15 18 13 10 7 6 8 14 11 20 17 17 14 16 14 13 15 15 14 5 5 4 13 21 5 6 10 10 6 1 10 11 12 15 15
23 23 23 23 23 22 20 20 14 15 12 18 13 8 6 9 6 2 4 21 19 22 16 17 15 9 9 8 16 6 7 20 20 26 10 3 9 10 3 5 11 7 11 12 21
24 23 23 24 24 22 22 21 17 15 13 16 15 9 9 10 11 2 6 13 21 18 20 19 16 15 6 7 14 5 8 21 20 19 13 8 6 7 16 18 13 18 15 10 11
23 23 23 22 24 25 23 21 19 17 14 11 15 12 13 6 9 7 4 9 19 18 21 18 9 18 6 9 5 4 4 4 8 14 14 9 8 8 5 20 25 26 27 23 18
25 21 24 22 22 23 22 20 19 18 16 7 17 15 13 19 10 12 9 5 4 15 18 22 12 12 8 2 2 4 4 7 8 12 6 11 7 7 21 27 30 32 32 36 29
25 24 22 23 21 22 20 18 17 17 20 15 18 16 8 14 16 9 13 14 13 12 15 17 16 9 3 3 2 4 3 2 7 11 12 12 12 6 19 23 26 34 39 39 40
23 22 21 21 21 20 18 18 18 15 23 15 24 15 7 12 17 20 11 17 15 10 12 13 14 3 4 4 1 2 3 5 7 10 6 11 2 13 24 19 20 26 34 37 37
22 21 20 20 21 18 17 19 17 13 19 14 14 10 12 14 21 22 16 16 12 12 12 10 4 3 2 4 5 5 4 4 6 5 2 5 9 8 21 21 24 27 25 25 27
21 19 20 17 15 17 16 17 5 5 19 7 13 3 10 14 16 20 24 17 17 12 4 7 3 5 9 6 4 5 6 5 4 5 2 6 9 10 17 23 26 29 30 37 36
20 20 18 16 19 18 17 11 9 4 6 23 10 11 24 25 11 23 22 12 11 6 5 3 2 5 8 9 10 5 7 5 6 5 4 11 20 17 17 22 29 31 27 36 37
22 17 20 21 22 20 13 11 12 12 4 13 18 20 23 12 8 24 23 13 8 6 6 5 2 7 5 2 7 2 4 3 5 7 6 7 9 8 7 20 30 33 37 35 41
19 19 21 22 21 3 10 5 10 12 3 10 7 13 18 11 5 23 20 14 4 9 6 1 1 3 4 3 3 0 4 5 4 4 4 6 6 7 9 10 5 19 27 33 37
19 21 24 25 23 16 5 2 7 0 4 13 10 23 21 4 22 16 20 2 6 6 6 6 3 5 3 2 5 3 6 5 4 3 5 3 2 8 6 6 6 7 15 22 22
19 25 28 23 12 12 15 2 8 2 4 6 9 11 9 14 3 21 10 2 4 4 5 4 6 3 6 2 4 5 4 3 3 2 2 8 7 4 3 3 3 3 12 12 13
27 26 18 10 6 9 20 12 3 3 2 6 8 15 12 9 6 9 9 5 4 5 2 2 2 3 3 4 2 4 5 2 2 2 6 2 4 7 9 10 6 9 11 5 6
23 20 7 2 1 19 21 2 2 2 3 8 15 16 7 12 9 9 7 4 3 3 4 5 3 8 5 5 6 6 5 4 5 3 4 1 7 6 9 17 16 15 12 16 11
15 5 5 5 11 15 3 2 2 4 2 8 14 6 5 4 7 7 5 5 5 4 5 4 3 4 9 3 5 3 3 4 1 2 2 5 7 8 8 8 8 9 10 15 18
14 12 15 9 8 10 3 4 4 5 9 12 4 3 7 8 6 5 8 6 5 8 1 1 4 5 4 5 5 5 4 2 2 2 5 6 5 8 4 5 7 9 14 5 8
11 7 8 9 4 1 1 3 3 8 15 2 5 7 10 6 6 7 11 6 9 9 7 1 2 2 2 5 6 4 5 4 2 3 3 4 5 5 6 2 4 7 12 10 13
11 3 4 5 3 2 3 3 5 4 12 5 4 8 12 6 8 3 9 2 18 14 6 3 4 3 8 6 8 5 6 6 4 4 4 3 7 12 17 14 11 22 30 36 35
5 4 1 10 2 1 3 3 4 4 3 3 1 4 14 5 6 2 5 5 16 7 12 6 1 2 1 3 1 5 6 8 3 2 8 3 7 5 15 22 35 31 31 34 30
2 2 2 3 1 1 1 2 4 5 4 6 11 15 7 1 5 7 4 4 6 5 10 9 4 5 5 3 3 3 3 6 9 4 8 15 23 26 23 23 24 28 29 31 29
2 1 2 2 2 2 1 5 7 6 8 7 8 9 6 5 6 5 7 3 5 3 4 4 2 1 5 6 4 6 9 9 10 15 10 25 21 25 26 19 25 26 13 12 13
3 3 6 5 7 5 5 3 6 5 5 7 9 12 10 4 2 8 7 4 4 2 3 2 2 2 5 9 10 9 13 13 15 18 19 23 25 19 21 25 19 6 10 18 13
5 3 2 5 3 1 3 2 3 2 10 10 5 7 10 3 9 9 8 5 8 7 5 5 3 1 4 5 6 5 7 12 5 5 6 9 14 15 18 13 10 14 17 16 23

GFSSW_850_spd_042.txt.gz
Wind_Speed
21 20 19 19 19 17 18 19 16 12 7 18 15 13 12 13 14 16 22 16 22 16 15 12 16 16 14 8 11 10 3 4 5 7 5 8 4 10 14 8 6 5 12 8 20
23 23 22 20 20 20 18 17 20 18 13 7 17 14 11 12 14 21 22 14 17 22 16 14 13 16 10 9 8 6 5 7 5 6 3 8 3 10 8 5 1 8 10 17 21
23 23 22 22 22 22 19 19 19 19 20 12 18 15 10 9 9 17 13 19 21 29 18 13 11 13 8 7 9 5 5 8 7 13 3 6 10 5 4 5 5 1 19 20 22
26 26 24 21 21 21 22 19 19 18 16 14 10 15 11 9 7 1 6 21 23 20 21 18 17 6 6 6 9 3 8 14 6 19 10 4 10 3 8 7 4 3 9 9 19
29 27 25 25 23 21 20 22 18 19 16 15 10 17 13 10 14 7 4 20 22 23 24 19 16 11 5 8 11 3 3 10 14 20 10 10 9 9 12 18 17 14 8 9 10
26 24 22 22 25 22 20 19 19 18 16 14 13 16 16 7 10 11 5 18 25 23 25 22 12 17 8 4 8 1 11 12 12 10 6 6 8 13 5 14 24 25 22 18 14
26 24 23 20 20 20 20 19 16 19 14 18 14 18 18 23 8 11 9 14 22 20 22 25 11 12 8 1 9 4 4 3 6 6 4 4 14 8 20 27 28 33 31 30 26
23 22 21 19 18 18 19 20 17 15 13 23 15 17 9 21 13 17 12 14 9 15 20 22 19 6 5 5 4 5 4 0 4 3 8 10 18 3 15 23 28 31 31 31 33
22 20 19 18 16 19 18 19 16 15 15 20 19 13 6 14 27 19 16 17 14 12 13 12 20 5 5 6 3 1 2 4 6 9 6 9 2 10 27 29 23 28 31 28 30
22 18 18 18 15 14 17 19 17 14 13 13 14 9 10 14 28 24 13 19 16 17 14 9 8 3 3 4 6 6 3 3 5 4 1 7 8 10 15 12 23 26 27 31 31
21 22 20 16 14 17 16 20 4 2 9 6 10 4 7 16 21 21 21 19 10 16 5 8 3 4 8 4 3 4 1 2 4 3 5 7 5 12 19 17 20 28 31 37 39
22 22 16 17 17 18 17 14 9 3 6 19 6 21 8 22 13 24 24 11 8 5 4 3 2 8 14 11 7 2 3 4 6 1 3 7 16 16 15 16 25 33 34 35 41
23 19 18 16 20 21 11 9 6 3 2 8 15 23 16 16 7 23 23 13 5 6 4 5 3 6 6 7 7 4 4 2 5 5 1 7 10 6 6 12 20 30 33 34 40
22 17 18 21 17 6 14 3 6 2 2 4 8 8 10 11 4 24 19 13 4 8 7 4 1 6 6 2 3 2 3 2 2 4 4 5 6 6 8 10 7 14 15 23 26
21 15 20 21 24 12 11 3 8 5 4 9 5 18 17 1 23 14 12 2 5 7 5 4 5 6 4 4 4 4 5 4 2 3 4 2 2 8 4 6 5 4 3 11 18
25 24 21 20 9 5 6 2 5 2 2 6 7 10 9 10 2 18 5 5 9 6 5 3 4 3 5 4 4 7 5 6 4 3 2 4 4 6 3 4 1 4 15 18 15
25 18 16 9 2 3 15 7 3 2 2 5 8 16 14 5 5 7 6 3 4 6 3 2 2 2 5 6 3 5 6 2 4 3 6 1 3 9 9 11 4 8 22 12 1
13 7 9 5 5 12 19 1 1 5 4 8 13 14 6 9 7 8 7 4 2 5 4 4 2 6 2 4 6 3 5 4 5 2 4 2 5 6 6 11 8 6 10 8 12
15 25 20 17 14 14 2 3 3 4 5 11 14 5 5 4 7 6 6 5 4 3 5 4 2 2 5 3 6 3 2 3 3 3 3 4 7 9 3 5 6 13 19 20 18
18 20 19 11 4 1 1 5 3 3 10 10 4 2 4 5 6 4 9 6 3 6 1 5 3 2 2 5 2 4 6 3 3 1 4 5 5 6 4 4 5 7 12 17 18
8 6 8 6 4 3 2 5 5 8 3 2 3 5 8 6 8 5 9 1 7 4 4 0 4 2 4 3 6 4 2 2 3 3 3 4 6 6 4 2 7 7 17 22 26
6 3 6 7 3 1 2 2 4 5 7 4 5 10 4 5 4 3 8 3 12 7 5 1 4 3 7 2 3 4 5 5 4 3 2 2 8 7 4 2 10 25 27 36 36
4 2 5 7 2 2 4 4 2 3 5 4 4 3 5 5 5 3 5 4 18 8 8 4 2 2 3 5 3 3 5 4 4 2 6 1 6 1 8 20 28 25 30 31 29
3 3 4 4 1 2 2 2 3 4 4 5 5 12 4 3 3 4 3 5 5 5 12 7 3 4 5 5 3 3 5 6 8 3 3 9 17 22 17 21 22 30 27 22 15
5 3 3 3 3 2 3 5 6 7 8 9 7 4 4 4 6 4 3 3 6 5 4 4 3 3 5 6 2 5 5 6 8 17 6 14 16 25 22 22 23 24 16 17 18
3 3 5 4 6 4 5 6 7 6 5 4 6 3 8 4 1 5 6 3 3 1 3 2 1 2 4 4 7 7 10 11 12 15 17 21 23 23 28 19 17 14 16 17 19
4 3 3 6 2 2 1 4 5 2 10 9 6 7 10 4 6 9 6 10 8 6 3 4 3 2 4 2 4 5 10 12 6 6 8 7 10 9 13 12 6 12 15 19 24

GFSSW_850_spd_045.txt.gz
Wind_Speed
23 23 23 23 22 23 21 19 18 20 20 16 8 17 15 14 16 19 26 21 24 12 16 22 21 16 13 9 10 8 3 4 5 7 4 2 3 3 8 12 10 5 9 4 20
28 25 23 21 22 19 23 21 17 19 20 22 10 8 17 14 17 25 27 21 15 19 19 22 24 20 10 10 9 6 4 8 6 5 1 4 3 7 6 12 5 5 7 7 27
29 29 27 28 25 21 21 19 21 17 22 26 22 13 19 13 12 26 19 24 22 26 20 18 16 18 11 9 8 6 5 5 5 9 4 3 7 1 4 6 3 4 3 20 25
26 26 26 25 23 26 23 21 18 20 20 18 26 23 18 13 7 1 7 20 24 29 24 16 14 12 6 6 9 3 8 6 10 20 8 1 8 4 9 15 4 7 2 10 20
27 25 25 24 22 23 20 20 18 17 19 18 18 12 14 13 18 4 3 14 24 32 30 21 19 9 6 9 4 3 2 8 14 14 10 10 9 9 11 19 17 17 14 8 10
25 24 24 23 21 22 20 20 18 17 17 20 15 17 15 8 12 13 4 15 28 30 29 26 15 15 8 4 9 4 11 12 11 11 7 6 8 15 2 6 21 22 20 19 16
24 22 21 20 19 19 19 18 17 17 17 15 19 11 16 21 6 14 9 17 28 28 29 26 12 18 5 3 8 6 3 1 6 5 5 2 11 7 20 24 29 34 31 28 28
24 21 20 19 19 17 17 19 19 15 14 11 16 12 7 20 8 13 10 15 24 21 24 24 16 16 5 4 4 6 4 3 3 6 6 8 20 6 9 25 29 32 37 36 34
22 20 20 19 18 18 16 17 16 12 13 11 13 12 3 11 24 19 15 16 15 19 18 17 20 6 5 5 3 0 4 4 5 5 3 8 3 5 18 27 24 29 32 35 32
21 22 21 20 16 17 19 20 19 11 9 8 13 5 9 11 27 24 18 15 11 16 11 11 10 4 4 4 6 5 4 3 4 2 3 7 8 14 22 14 15 23 30 33 33
20 21 20 16 15 16 20 22 5 1 6 9 7 5 2 14 18 25 18 17 12 13 5 8 4 9 13 8 3 5 4 3 3 2 3 6 5 12 16 17 20 29 35 39 41
25 24 18 13 15 18 20 9 9 6 5 18 11 23 5 14 10 22 19 11 7 5 5 4 4 4 4 2 3 0 2 2 4 0 2 6 12 16 16 14 24 30 35 39 42
25 21 15 15 17 21 7 12 3 3 3 2 6 7 6 13 10 20 24 8 4 5 5 6 4 13 10 6 5 4 4 3 4 4 2 7 8 5 5 8 14 26 31 35 37
26 22 14 14 16 8 11 11 7 3 2 4 3 3 8 12 5 21 22 9 3 6 4 4 4 12 9 7 6 4 1 3 3 4 3 5 6 6 6 11 6 19 22 19 19
32 27 17 15 15 10 9 7 9 3 5 8 6 8 13 2 20 13 10 4 6 4 5 2 4 6 5 3 4 4 5 5 3 3 3 2 1 8 5 6 5 4 8 13 22
26 13 8 11 3 2 9 9 6 4 4 5 6 6 8 8 4 15 4 7 13 6 5 3 3 3 3 4 2 8 5 6 4 2 2 2 3 6 3 1 7 7 29 23 19
23 13 9 5 7 7 12 7 3 4 3 3 4 11 9 13 6 4 4 4 3 5 3 4 3 2 5 7 6 5 5 2 4 3 4 3 2 9 8 7 4 9 19 22 18
18 15 18 17 12 14 8 3 4 2 4 4 7 15 5 5 8 4 4 3 4 4 3 4 1 3 1 4 5 1 5 4 4 1 4 1 5 6 3 7 5 10 15 23 27
14 19 22 20 15 10 5 3 2 3 5 4 11 6 4 5 4 6 2 4 2 1 5 4 2 1 2 3 5 4 1 2 5 3 3 3 6 9 4 7 9 15 20 27 29
7 11 12 9 6 2 2 3 3 3 6 5 4 3 5 4 4 4 3 3 2 2 2 3 4 2 2 5 5 3 7 3 3 2 3 3 5 4 2 3 4 7 15 22 22
6 4 7 7 2 1 2 3 4 7 11 5 3 5 5 5 7 3 8 1 3 3 3 4 3 1 5 3 6 3 1 4 4 3 3 3 6 6 3 1 6 9 22 21 28
7 2 10 8 3 2 3 3 5 6 4 4 6 8 4 4 3 3 6 3 9 8 5 1 4 3 2 1 1 3 5 5 4 3 2 1 7 3 5 2 10 22 23 27 30
6 6 9 10 3 3 4 4 2 2 2 2 3 2 3 5 5 3 3 1 10 5 6 4 2 3 5 4 3 2 3 4 4 3 5 3 5 1 7 17 25 24 28 28 25
5 3 5 4 1 1 2 2 3 4 2 3 4 5 5 3 4 4 2 4 9 7 7 6 3 4 5 4 3 2 4 6 6 3 3 7 9 17 17 16 22 25 19 18 20
5 1 3 4 4 4 1 4 5 5 4 6 4 5 5 3 3 3 3 3 5 7 4 4 3 2 4 5 3 4 4 7 7 10 5 2 6 18 18 18 21 14 17 19 21
3 3 5 6 9 5 4 6 6 5 5 4 6 7 5 3 1 6 6 2 2 3 3 2 1 2 4 3 6 4 7 8 8 9 12 18 22 23 29 20 13 11 14 18 21
4 2 3 6 5 3 3 3 5 2 11 10 3 4 9 5 2 9 4 7 6 6 3 3 4 2 4 3 4 5 10 11 5 5 9 12 14 12 8 11 11 11 15 16 20

GFSSW_850_spd_048.txt.gz
Wind_Speed
24 25 29 26 24 23 23 21 20 20 18 24 27 17 16 18 18 20 26 28 23 6 10 25 21 16 10 8 8 7 3 5 6 7 4 2 2 2 2 7 6 4 8 8 9
23 24 25 25 25 24 26 23 22 17 20 20 24 26 17 13 20 29 29 25 21 20 13 24 27 19 8 8 8 5 4 9 6 6 4 2 2 3 3 7 4 5 4 11 12
26 27 25 24 24 23 24 23 22 21 19 21 21 26 16 12 17 32 23 26 21 22 17 20 25 21 10 8 8 6 5 4 5 5 2 3 2 1 1 3 4 3 7 5 20
27 27 24 23 23 24 22 21 19 21 18 18 18 19 18 13 7 2 5 13 24 27 22 22 24 17 7 6 9 3 7 6 7 7 3 2 1 3 8 9 4 4 7 0 14
25 24 24 22 22 21 21 21 18 21 18 18 16 17 9 11 18 4 3 8 28 33 31 23 21 13 7 9 6 4 2 14 13 9 7 6 7 8 12 13 13 14 13 9 6
21 25 23 22 22 19 19 18 17 16 14 15 16 16 15 9 16 24 11 8 32 36 33 26 17 12 10 6 7 8 11 9 5 8 6 5 7 9 3 6 12 18 20 18 16
23 24 21 21 20 19 17 16 15 15 15 14 12 11 18 19 9 14 12 11 30 38 34 28 14 14 7 4 14 4 3 2 6 5 5 0 7 7 20 23 28 29 28 26 24
23 22 22 20 19 18 18 16 13 14 13 12 9 11 8 5 16 9 9 14 29 29 30 28 17 21 4 6 4 6 3 2 3 7 5 7 5 8 13 15 24 26 30 32 33
26 22 19 20 19 17 17 16 16 15 13 9 9 6 6 9 18 9 7 12 25 20 23 23 21 11 6 6 4 1 4 4 5 5 2 8 3 3 9 9 19 27 30 28 29
28 23 20 20 18 15 16 18 16 10 6 6 7 3 10 10 18 19 11 10 20 19 19 18 14 5 4 4 8 6 3 2 4 1 2 4 7 9 19 19 17 20 24 27 28
28 27 24 18 14 14 17 21 6 2 3 7 4 7 4 5 13 18 13 13 12 12 8 19 8 13 17 7 5 5 4 4 2 2 3 6 5 12 18 15 20 26 29 34 36
27 22 21 15 12 14 17 4 5 4 6 10 17 19 12 6 8 15 14 7 6 6 5 1 6 4 11 7 6 5 5 2 2 1 2 6 10 15 14 10 22 26 32 35 36
28 26 20 14 11 16 9 6 4 2 3 4 6 4 7 9 12 17 19 5 3 5 5 5 5 12 5 6 8 3 3 3 3 3 2 7 6 5 4 5 9 15 19 22 21
32 28 19 12 10 5 17 14 8 4 4 0 2 4 8 9 3 16 19 4 2 3 4 4 5 12 12 6 3 3 4 3 4 3 3 4 5 7 5 9 4 13 19 10 13
27 20 5 9 5 9 6 7 8 2 5 4 2 3 9 4 18 11 17 1 5 5 3 1 8 10 4 6 9 3 5 5 3 4 2 3 3 8 4 5 6 10 25 26 19
23 18 7 6 5 7 6 9 6 5 1 3 3 4 7 17 5 9 6 4 9 5 8 4 4 2 3 5 2 10 5 6 4 2 2 2 3 6 2 2 5 6 21 27 29
23 14 10 8 10 11 8 3 4 5 2 2 3 3 7 10 7 3 3 4 4 4 4 4 3 2 5 7 5 3 4 2 4 3 3 1 1 7 4 4 1 3 13 24 23
17 17 17 15 15 13 3 3 7 2 3 6 4 7 7 6 7 3 4 4 5 5 3 4 1 1 1 3 6 3 4 4 4 1 2 1 5 4 4 4 7 9 19 23 22
11 11 13 9 6 1 5 5 1 2 5 2 7 7 5 6 5 3 3 4 3 3 4 4 2 1 3 2 3 3 2 2 6 2 2 3 6 5 4 2 2 15 24 27 23
11 9 12 10 5 7 3 3 1 2 5 3 4 4 4 2 4 4 2 2 3 2 1 2 4 1 2 5 8 3 7 3 3 1 2 4 5 3 3 4 8 13 25 26 26
8 5 10 15 6 2 2 3 2 6 5 2 3 5 4 4 4 2 4 2 2 1 6 3 3 1 4 1 6 2 1 5 4 2 2 2 4 5 5 3 6 10 21 20 25
4 3 12 13 6 2 2 3 1 3 1 3 4 5 3 3 3 3 5 2 6 6 4 2 3 3 1 1 1 2 5 4 4 3 2 1 6 2 4 2 6 15 22 18 23
7 3 7 11 3 4 6 3 2 4 4 3 3 3 2 4 4 3 4 2 9 3 6 5 1 3 2 0 3 3 4 4 4 3 5 4 5 1 6 9 19 17 19 19 22
6 3 4 5 3 1 4 5 5 4 3 5 4 5 4 4 5 3 2 4 8 5 7 5 3 4 5 4 3 2 4 5 5 3 3 5 7 12 12 10 17 19 15 22 19
5 2 3 3 2 5 2 3 3 4 3 6 4 3 4 3 2 3 3 2 5 9 4 3 2 2 3 3 3 3 4 8 7 6 6 4 7 12 14 14 20 20 18 18 21
3 3 3 4 10 4 5 4 2 2 4 3 6 5 4 4 3 6 6 3 3 3 3 1 3 2 3 2 6 4 7 8 9 5 9 13 19 20 25 17 14 11 15 19 19
4 3 2 3 4 1 2 4 2 3 8 9 3 4 8 4 1 7 3 8 7 6 3 3 4 2 3 3 4 5 9 12 6 6 8 7 12 8 8 9 11 12 12 15 15

GFSSW_850_spd_051.txt.gz
Wind_Speed
25 24 23 22 23 22 22 20 21 21 19 21 21 29 29 21 6 22 27 26 23 8 7 25 23 18 12 11 9 8 2 5 9 9 4 5 5 5 4 4 3 4 6 7 6
26 26 26 25 24 20 22 23 22 20 20 16 19 17 26 31 22 26 31 22 19 20 13 19 27 19 8 9 8 6 4 9 5 7 4 8 5 4 2 1 3 3 4 9 9
25 25 24 23 21 20 21 21 21 19 19 18 16 18 18 18 17 23 25 26 22 19 19 16 26 19 8 9 7 6 4 4 4 8 7 9 4 5 5 3 5 2 3 5 9
25 24 22 22 19 19 19 18 18 19 17 17 15 15 16 13 6 4 3 15 24 23 22 20 27 16 7 6 9 4 7 7 3 10 5 5 5 2 7 5 3 2 6 5 5
24 24 23 21 19 20 18 17 16 16 15 16 15 15 13 12 18 9 8 4 24 28 31 26 28 18 13 10 8 3 3 11 6 5 3 4 5 6 11 11 10 11 11 7 4
25 23 22 21 18 18 16 14 13 13 13 12 13 12 12 10 9 24 8 6 20 34 33 27 22 18 14 9 8 9 9 4 8 8 3 4 5 7 5 7 13 16 19 18 15
25 23 23 21 18 18 16 14 12 10 12 12 12 11 14 22 3 16 20 18 15 39 37 26 24 19 14 5 10 9 4 5 9 6 3 3 5 6 22 22 25 24 22 21 20
25 24 21 21 16 17 16 15 11 12 11 10 9 9 9 19 15 10 20 13 17 37 32 28 26 12 5 11 6 5 2 3 2 10 8 6 5 5 3 9 17 18 19 21 26
27 25 24 19 18 16 14 13 14 13 12 9 7 6 6 12 12 13 8 10 27 29 28 29 24 10 6 6 4 4 4 5 3 9 3 8 2 5 5 7 13 17 19 19 22
28 27 21 17 17 11 13 12 15 7 6 7 7 5 10 9 13 14 7 9 26 25 20 20 9 4 3 5 9 9 4 3 6 3 2 3 5 8 19 12 14 17 21 24 25
33 27 19 18 12 7 11 13 4 1 3 3 5 7 11 4 13 16 7 13 21 22 9 17 6 16 17 5 4 8 5 4 3 1 2 4 4 10 16 17 19 24 27 27 27
33 28 20 14 9 8 10 4 1 3 4 5 12 13 16 4 7 18 10 7 11 7 5 7 12 9 12 8 6 6 6 4 1 2 1 4 9 15 10 7 14 16 19 19 19
32 29 20 8 5 6 5 4 7 2 2 4 3 11 10 8 13 22 12 1 4 10 13 1 1 15 13 9 9 2 5 3 2 1 2 6 5 4 3 5 13 14 4 4 6
31 29 17 3 2 1 7 7 4 5 4 3 3 4 3 10 5 13 13 2 3 7 16 3 3 8 13 15 8 5 3 3 4 2 1 4 4 4 3 5 7 18 25 21 18
31 22 19 7 1 2 4 5 7 2 6 6 2 3 5 3 14 6 7 3 4 6 4 1 9 16 9 2 8 2 4 4 3 4 1 2 2 4 1 4 5 7 17 18 18
32 18 14 15 14 10 6 6 3 5 3 3 4 5 2 7 2 8 6 3 4 9 12 4 3 4 3 5 5 9 5 5 3 2 1 1 2 2 1 2 1 4 15 16 18
22 20 14 13 10 7 3 4 4 5 5 3 2 3 10 5 6 3 1 3 4 4 3 4 4 4 12 8 4 1 3 1 2 2 2 2 1 5 3 2 5 1 14 15 16
14 15 12 9 7 5 12 4 9 2 2 2 0 12 7 5 7 4 2 4 5 5 4 3 4 4 1 4 7 1 1 3 3 3 1 2 5 2 4 6 4 10 12 14 16
8 8 12 11 9 9 7 5 4 2 3 1 6 7 5 8 4 4 3 3 3 1 5 5 3 1 5 3 1 3 2 1 6 2 1 2 5 6 2 3 3 13 19 21 20
10 8 9 13 10 9 3 3 1 4 3 2 4 2 3 3 3 1 2 2 3 3 2 1 5 3 2 4 10 3 6 2 2 3 3 3 4 3 4 5 4 9 16 19 18
8 3 12 15 5 5 3 3 3 2 2 2 3 5 3 4 3 2 1 1 2 3 6 3 3 2 3 1 5 2 1 4 4 1 2 2 3 4 6 5 4 12 19 19 17
7 3 11 9 5 3 3 5 5 4 2 2 3 4 3 2 3 3 3 2 3 5 4 1 4 3 1 1 1 2 4 3 3 3 1 1 5 2 5 4 8 16 18 17 21
9 5 7 8 3 3 3 3 2 3 3 2 2 2 1 3 4 2 2 4 5 3 5 5 2 3 1 1 2 2 4 4 4 3 4 4 3 1 2 7 14 11 19 15 19
5 3 4 5 5 2 3 3 3 2 2 3 3 4 4 4 5 3 2 4 3 3 8 6 3 4 5 4 3 3 3 4 5 3 4 5 5 8 7 6 14 19 15 14 15
5 1 3 3 3 3 1 3 1 3 4 6 3 2 4 3 2 3 3 3 4 6 4 3 3 2 2 1 3 3 4 8 6 5 5 2 6 8 10 8 15 15 10 13 14
5 4 4 4 5 3 2 4 2 0 2 2 5 2 1 4 3 6 6 3 4 2 3 2 3 2 3 0 5 4 7 9 8 3 8 7 17 14 21 13 10 6 10 11 13
8 4 3 5 3 1 1 1 3 1 4 5 5 4 6 3 1 5 3 7 8 6 3 4 5 2 3 2 2 5 9 12 5 5 9 7 10 3 7 7 11 8 6 10 11

GFSSW_850_spd_054.txt.gz
Wind_Speed
23 23 22 21 22 22 21 18 20 21 18 17 16 17 15 27 25 12 23 17 20 8 10 25 21 16 13 13 9 9 9 16 22 20 14 11 12 7 6 9 7 5 3 3 5
25 22 23 22 21 20 19 19 20 18 18 18 15 14 16 17 26 29 22 24 19 16 10 17 23 19 13 13 11 14 14 20 10 11 12 14 14 12 8 10 9 7 3 7 6
23 21 21 22 20 20 19 19 18 16 16 16 14 14 12 13 16 22 17 28 23 23 17 13 20 19 15 13 15 16 16 9 8 11 8 14 12 9 10 10 10 8 2 1 5
24 22 22 22 20 19 17 17 15 14 14 14 14 12 11 6 8 14 18 22 23 21 20 19 24 21 14 13 19 10 18 10 6 7 7 12 10 8 11 5 7 8 1 2 2
24 23 21 20 19 16 15 14 14 13 12 11 11 13 9 9 21 7 18 14 24 26 29 27 31 25 18 19 15 15 5 10 8 8 7 7 9 9 11 9 7 8 9 5 3
25 24 21 20 19 17 15 14 13 11 9 8 9 9 9 14 13 22 11 8 17 31 30 28 26 23 17 14 15 14 8 12 13 8 5 7 8 6 8 11 14 14 15 13 12
27 25 23 20 18 16 13 13 11 9 8 8 10 9 12 21 10 13 23 9 11 31 32 28 18 24 11 9 14 4 13 13 9 11 9 7 14 13 19 18 16 14 13 13 14
27 26 24 23 18 14 13 12 9 9 12 8 9 9 10 10 20 8 25 15 13 27 27 24 21 23 10 7 13 14 7 10 10 18 6 8 14 4 7 13 16 17 18 17 20
31 30 25 21 16 16 11 9 8 13 12 8 7 7 8 7 21 12 17 16 15 26 26 22 25 22 9 14 10 14 10 18 5 10 13 17 8 9 11 6 9 10 11 13 15
31 28 21 16 12 10 6 8 9 6 3 6 6 5 11 9 18 11 17 14 17 27 19 20 15 11 14 15 15 19 15 13 14 7 9 10 14 5 8 8 13 15 16 15 15
33 27 21 12 7 6 4 4 1 1 3 4 3 5 5 2 14 10 17 15 19 26 10 25 6 18 24 19 3 10 16 9 8 5 6 11 10 11 14 16 18 20 20 18 17
31 29 19 3 2 2 4 2 2 2 3 4 9 11 9 9 6 15 12 10 18 21 11 8 13 15 16 13 7 14 14 10 6 5 5 4 8 13 13 14 11 13 15 13 10
29 26 21 8 4 3 5 5 4 3 2 2 0 4 5 2 3 13 6 3 20 14 17 5 7 15 18 16 13 9 12 11 4 6 2 5 6 5 4 6 4 3 2 3 5
31 23 16 7 5 7 8 9 1 2 1 5 2 3 6 8 4 11 11 5 4 9 6 1 3 18 19 18 16 12 5 8 7 5 3 3 3 3 9 9 9 11 11 11 10
28 21 19 12 5 6 4 7 2 3 4 2 2 4 5 2 17 7 1 4 10 11 6 4 6 15 20 20 15 6 9 8 5 3 2 4 4 7 10 8 7 9 9 8 8
19 18 13 14 13 9 6 5 2 3 7 6 4 5 3 4 6 8 6 9 14 9 14 7 6 4 2 7 6 15 10 8 4 1 3 3 4 7 9 10 7 7 7 6 7
11 13 12 11 7 8 8 7 1 6 3 6 5 4 7 4 11 8 4 4 3 5 4 5 4 6 5 9 3 8 12 4 3 4 2 2 4 3 9 10 8 5 6 5 7
11 9 10 11 8 8 11 2 10 4 4 2 2 4 4 6 7 8 3 5 8 8 4 2 4 2 3 2 9 10 3 2 4 4 3 2 5 3 9 9 4 3 2 3 5
9 6 8 11 12 8 3 6 3 2 2 1 3 4 3 7 5 4 2 4 3 3 3 4 4 2 3 4 6 4 4 2 4 2 1 3 3 4 5 9 6 3 3 5 5
8 1 10 12 8 6 1 5 1 3 2 4 2 2 4 5 3 2 1 2 3 0 2 3 6 3 4 1 11 1 8 2 0 4 4 4 3 3 14 13 3 5 6 7 5
5 1 12 11 8 6 3 4 1 3 4 2 2 3 6 4 4 2 2 3 2 2 3 5 3 3 2 1 7 4 3 2 2 1 2 1 3 0 15 12 2 7 7 8 8
5 1 10 7 3 3 2 2 2 2 4 2 2 6 5 3 3 2 3 1 2 3 3 1 4 4 2 2 2 1 2 4 2 4 0 3 3 3 7 5 5 8 7 6 6
9 3 5 5 3 3 1 1 3 3 2 1 2 1 1 3 3 3 3 3 1 1 5 6 4 5 5 3 1 4 4 2 5 2 5 3 4 3 5 3 6 8 9 6 7
5 1 3 5 3 1 2 2 3 2 3 2 2 2 4 3 3 4 4 3 0 2 7 3 2 1 2 3 3 4 8 9 4 3 4 4 0 6 4 5 8 9 7 8 7
5 2 2 2 3 2 1 1 1 2 3 5 2 1 3 3 3 4 2 4 3 2 3 1 3 2 1 3 2 1 5 11 7 4 5 2 6 5 10 8 10 11 6 6 6
4 4 6 4 6 4 3 2 2 1 2 0 2 1 1 2 1 7 6 4 3 3 2 2 3 2 1 1 4 5 8 10 14 14 13 12 17 13 5 6 9 6 5 4 6
6 3 3 4 3 3 1 1 3 3 2 1 5 4 3 1 1 1 1 5 5 7 5 3 5 2 1 0 3 7 15 16 9 9 13 10 8 4 9 8 7 4 2 4 5

GFSSW_850_spd_057.txt.gz
Wind_Speed
22 22 20 20 21 21 20 19 19 19 18 19 19 17 16 15 17 28 23 18 21 8 8 17 20 14 14 15 18 12 13 17 24 23 19 12 14 16 9 14 7 7 4 3 4
25 24 21 20 21 20 20 20 20 20 20 18 18 18 14 16 16 24 28 26 19 17 11 18 23 19 17 18 13 15 15 23 19 19 10 14 14 16 9 14 14 11 5 1 5
24 23 22 22 21 20 19 17 16 16 15 16 16 15 15 13 18 33 24 26 26 21 16 14 21 20 17 16 21 18 19 19 18 4 3 13 17 18 14 12 16 15 13 4 5
26 24 23 22 20 19 17 15 15 14 14 13 14 14 12 7 7 2 22 27 27 24 21 15 26 22 16 15 25 15 27 16 12 4 3 11 15 12 15 6 8 5 5 4 5
25 25 24 22 20 21 17 15 15 13 12 12 11 11 11 14 21 8 10 22 24 27 29 25 29 26 17 21 17 18 11 20 6 8 8 15 17 14 14 8 5 7 6 6 5
26 26 26 23 20 19 16 14 13 11 11 10 10 10 11 18 14 15 10 10 28 28 30 29 27 28 15 9 21 13 18 13 15 11 9 9 13 11 13 12 12 12 12 10 10
28 28 28 26 21 18 14 12 12 11 9 8 8 9 14 21 7 10 22 11 10 32 31 30 21 28 10 6 15 5 19 7 17 17 7 10 14 18 18 11 13 14 16 15 16
30 31 29 24 18 14 12 13 11 10 10 11 9 8 11 13 22 21 11 23 6 27 28 27 21 28 8 6 13 13 13 16 15 13 13 13 14 19 25 22 24 21 19 19 19
33 31 27 21 14 9 12 7 8 9 12 10 7 9 13 6 19 18 17 22 13 31 24 24 20 24 17 14 11 14 14 17 13 22 10 15 9 12 10 9 14 16 16 18 19
35 31 29 14 7 6 3 2 6 5 4 6 7 5 14 8 12 15 12 15 11 24 23 20 15 10 12 15 15 21 23 20 18 10 17 18 15 6 9 12 14 15 15 15 16
32 30 26 9 0 2 2 3 2 3 6 5 2 12 10 12 9 17 17 19 13 29 14 17 7 15 27 25 18 15 19 14 13 8 10 16 14 17 13 16 17 17 17 18 18
31 28 20 12 8 5 5 3 2 3 6 4 9 9 8 12 3 15 16 20 14 23 18 9 7 17 21 19 14 9 16 14 5 10 8 12 12 9 13 17 19 16 16 16 14
26 24 12 8 8 8 6 5 3 0 4 2 1 3 5 3 9 13 11 11 17 24 19 12 8 10 11 17 14 12 14 14 8 8 8 3 12 13 3 5 6 8 11 7 6
21 19 19 5 5 6 6 4 4 1 2 4 5 3 4 7 6 7 7 3 1 21 13 1 6 18 13 17 15 13 10 9 7 12 5 8 3 10 10 7 6 7 8 9 8
16 14 13 13 3 3 4 1 3 3 1 4 6 5 5 4 14 7 6 5 6 9 5 4 12 13 19 15 16 6 9 10 7 6 1 8 5 9 12 10 8 8 9 8 6
16 13 10 8 6 7 6 6 7 4 7 2 3 4 6 14 13 10 5 11 16 9 8 5 5 4 2 7 4 14 14 8 4 1 5 9 8 10 11 11 9 9 9 6 4
16 12 10 8 4 8 7 4 1 6 2 8 4 3 13 14 10 6 3 3 6 5 2 2 3 3 6 9 3 10 13 4 4 4 3 4 5 6 10 14 10 9 8 5 2
16 10 11 9 8 6 6 3 8 4 5 4 3 13 7 7 6 6 7 11 8 10 3 3 5 1 1 3 6 13 13 3 6 6 6 4 6 2 12 15 9 5 3 1 1
15 7 8 10 11 4 6 4 2 1 4 4 3 6 4 8 5 4 6 9 4 4 4 2 5 4 1 4 2 5 5 2 1 3 2 6 4 3 8 11 6 4 3 1 1
12 6 5 12 8 2 2 4 2 1 3 5 3 4 3 4 4 3 5 4 5 1 2 4 5 5 8 11 5 4 7 3 1 5 5 5 5 3 16 16 8 5 2 1 2
7 4 7 10 7 0 3 4 1 2 3 4 3 3 6 7 4 3 3 3 2 3 2 7 2 3 2 3 4 3 3 1 3 2 3 4 3 5 15 16 7 2 1 2 2
5 2 10 7 2 3 3 1 1 2 2 2 3 3 4 5 3 2 4 4 3 3 4 2 5 5 2 2 5 5 4 8 3 4 1 4 4 3 15 15 4 1 1 2 2
8 4 7 5 1 1 2 2 1 2 2 1 1 1 3 3 2 4 3 2 3 1 2 5 5 4 2 2 2 5 7 4 2 3 4 3 5 5 11 6 4 2 3 2 3
5 3 4 2 2 3 1 2 3 1 1 1 1 1 5 4 2 5 5 2 2 4 5 2 2 2 0 3 3 4 8 8 4 2 3 5 8 11 10 5 3 2 3 3 3
6 3 3 3 1 7 4 2 2 2 0 0 3 2 2 2 2 3 5 7 3 2 2 1 2 3 3 4 3 3 7 11 6 8 3 3 6 13 0 4 3 5 2 4 3
4 4 6 6 9 7 1 2 4 1 2 3 2 4 2 1 4 2 6 6 4 6 4 1 2 2 1 1 5 6 9 11 14 15 13 11 9 8 1 2 4 4 2 2 5
8 5 4 5 5 4 1 4 2 2 0 3 2 4 3 4 3 2 2 2 1 4 7 5 5 4 3 3 5 9 16 16 11 9 16 11 8 4 4 4 4 3 3 2 3

GFSSW_850_spd_060.txt.gz
Wind_Speed
23 25 24 21 21 19 19 17 19 17 17 17 17 17 16 16 16 17 27 16 24 12 10 17 23 19 13 20 20 17 5 11 19 19 11 13 6 9 4 8 3 4 10 11 9
24 25 23 22 21 21 20 18 18 16 15 16 17 18 17 16 17 22 22 26 20 24 10 18 22 20 11 18 13 11 8 13 11 10 8 18 8 15 8 9 11 9 4 8 4
24 24 25 25 23 21 19 18 16 14 15 14 14 14 13 14 17 27 23 27 29 24 17 16 19 19 16 13 18 11 10 14 16 8 7 10 3 7 6 6 17 13 14 9 8
27 26 26 26 25 22 20 17 15 14 13 13 11 12 12 9 7 5 15 37 29 23 18 17 23 21 11 12 22 7 21 19 17 5 2 2 4 6 17 10 5 9 17 10 5
28 29 29 28 26 23 19 16 14 13 12 11 10 8 7 10 21 12 2 23 30 29 25 20 28 24 14 17 13 17 12 22 11 7 2 1 6 9 8 8 1 4 6 7 4
30 31 32 31 27 23 17 15 12 11 9 7 6 7 8 17 13 13 15 15 29 31 28 27 22 24 12 9 15 13 19 11 13 7 2 5 8 19 13 8 7 4 4 4 7
30 34 33 29 24 20 13 11 9 9 8 6 4 6 11 21 7 7 15 15 17 28 29 29 20 24 8 7 13 3 9 11 5 14 3 7 9 15 15 6 14 12 13 12 13
33 34 34 32 21 12 8 8 10 9 9 6 7 5 9 10 16 14 12 16 16 18 27 27 23 20 15 7 2 8 3 10 7 12 10 11 9 12 20 18 17 13 14 14 14
31 34 33 24 10 6 6 7 5 6 6 9 6 8 10 4 13 15 15 17 14 13 28 24 24 12 21 8 5 6 6 12 10 14 5 11 3 17 23 24 20 21 23 21 18
29 30 27 23 13 7 5 5 3 3 4 2 8 4 7 6 6 13 16 18 14 15 28 23 12 6 9 9 11 12 10 13 13 17 17 10 10 5 7 9 12 11 11 11 14
25 27 20 18 15 9 8 7 4 2 7 5 3 12 9 12 11 11 16 22 20 19 7 23 8 17 27 18 9 8 11 14 13 8 14 15 12 12 10 11 9 14 15 15 15
22 22 19 13 12 12 11 6 2 2 7 8 9 10 7 10 4 10 15 20 13 15 15 9 14 11 14 14 15 8 11 18 4 10 7 7 11 9 10 12 16 17 19 18 14
19 19 18 10 9 10 10 7 3 3 4 2 3 2 4 4 1 7 9 13 6 20 20 12 8 12 16 16 17 9 8 10 7 5 2 3 7 10 6 3 7 8 10 9 8
17 16 14 12 6 9 6 7 5 5 3 5 4 2 1 1 3 3 5 3 2 19 14 5 5 13 9 13 15 10 6 3 11 7 3 8 4 13 9 5 5 9 9 9 7
19 13 12 10 6 5 7 6 6 3 1 11 6 3 4 3 7 5 9 8 3 10 5 3 12 16 5 9 9 7 7 8 7 6 2 8 2 3 10 7 7 8 10 11 10
19 13 10 7 5 9 8 9 8 1 6 4 3 3 1 4 4 6 7 8 11 9 16 6 5 4 6 8 9 7 9 9 3 1 2 7 6 5 8 11 8 12 13 11 9
18 10 9 7 3 9 8 5 1 5 2 8 3 4 7 5 7 7 2 6 4 5 3 3 4 4 3 9 5 10 8 4 3 2 3 1 4 6 11 11 7 10 16 12 8
17 5 10 6 5 5 5 1 7 3 3 5 3 11 7 3 3 1 8 11 8 8 3 3 2 1 3 2 5 6 7 4 5 4 4 2 4 4 11 18 16 13 10 8 6
15 6 9 10 10 3 2 4 2 1 3 5 3 3 2 5 6 4 7 5 5 3 3 4 2 1 2 3 3 3 1 2 2 2 4 5 3 5 10 9 11 13 12 10 6
14 5 3 12 6 5 2 4 1 3 5 7 2 2 6 5 3 3 3 4 3 2 4 3 5 2 2 3 8 3 2 1 1 3 3 4 6 4 10 10 8 10 12 10 6
6 5 4 9 4 1 3 2 3 5 4 5 7 6 7 4 4 6 6 3 4 2 5 8 2 4 5 3 4 2 2 2 0 2 1 4 4 1 15 10 8 9 8 5 5
5 1 7 4 1 3 2 1 1 5 3 2 5 4 4 2 4 4 7 5 3 3 4 4 5 3 4 5 6 6 3 3 1 3 1 2 3 4 10 9 12 7 9 6 5
10 5 6 4 2 3 3 2 3 4 5 5 3 5 5 4 2 5 6 1 4 5 3 4 2 3 2 3 1 1 3 1 6 2 3 1 2 3 12 11 11 8 6 7 6
6 4 6 4 2 3 1 3 3 1 2 2 3 3 1 1 5 3 5 2 3 4 5 4 2 3 3 3 4 3 5 5 4 2 3 3 5 4 7 6 9 10 6 6 5
8 3 4 3 4 6 5 3 3 1 3 3 3 4 2 2 2 2 6 5 2 1 2 2 3 3 4 6 4 2 5 7 5 6 4 4 8 8 8 5 7 4 7 4 5
6 5 8 7 12 8 2 1 3 1 1 2 3 2 1 5 6 3 5 5 3 4 3 2 2 2 1 4 5 3 6 8 9 10 8 6 4 2 8 8 4 3 6 5 4
11 5 3 8 7 5 3 5 6 4 3 2 7 2 3 6 5 6 6 6 5 5 3 4 4 2 1 1 4 6 12 12 7 7 10 8 6 3 3 3 3 4 6 5 3

GFSSW_850_spd_063.txt.gz
Wind_Speed
21 21 21 22 21 19 18 17 16 15 15 15 14 13 12 14 15 16 22 23 25 11 8 17 20 21 18 19 18 15 4 4 17 17 8 9 6 9 12 9 5 10 18 15 17
24 24 23 23 22 20 18 17 15 14 14 14 12 13 13 13 16 21 22 23 23 24 8 20 24 22 9 15 16 10 8 12 13 17 8 9 3 3 4 6 13 19 16 11 11
23 25 26 26 24 21 19 18 16 14 12 12 12 12 12 10 10 20 19 24 29 23 21 16 23 21 13 14 14 11 8 18 22 22 8 5 17 2 11 2 1 19 17 13 9
25 27 28 30 28 22 19 16 15 12 10 10 10 10 9 8 7 12 6 21 35 28 24 21 21 14 7 8 23 6 22 12 26 4 16 1 7 2 4 6 6 7 19 16 10
26 29 31 31 27 22 18 13 13 9 8 8 7 7 7 10 22 9 10 5 31 33 31 28 28 19 8 12 16 13 7 25 19 5 17 4 7 4 1 10 12 19 19 13 8
27 30 32 31 27 21 12 8 8 6 5 4 5 5 7 9 10 4 10 3 30 30 34 29 23 22 13 12 10 14 19 10 9 10 3 1 0 1 2 7 10 9 6 9 8
27 30 29 26 20 9 6 4 3 3 3 2 2 2 7 17 7 10 6 7 18 26 30 29 19 24 9 3 19 8 11 3 7 6 2 5 3 9 14 6 3 5 6 6 8
26 28 26 24 18 12 7 4 3 3 3 2 3 3 7 9 6 14 5 6 10 23 29 27 21 20 6 5 3 5 6 5 8 10 5 8 6 9 20 12 12 5 8 9 9
25 26 22 21 18 14 12 9 4 1 1 3 3 3 8 9 5 8 8 8 7 12 27 28 21 10 13 5 3 2 4 6 7 12 6 5 4 11 17 21 19 15 14 14 14
21 23 20 17 14 12 11 8 4 2 5 5 3 1 4 6 8 6 9 7 7 12 17 21 12 4 3 5 14 16 9 10 8 8 8 10 7 6 4 18 25 18 18 19 22
19 19 20 11 11 10 7 6 2 2 4 5 3 6 7 8 11 5 11 9 6 10 9 21 8 19 26 11 6 7 3 6 7 7 6 11 6 12 13 8 13 16 15 10 9
19 16 16 11 8 10 11 4 3 3 6 8 8 7 8 7 3 5 8 5 4 1 9 8 15 10 9 8 6 9 9 8 2 6 13 11 11 10 13 12 18 18 16 14 12
20 14 12 11 7 9 9 9 4 2 3 2 3 4 3 1 2 7 12 8 2 5 10 12 8 12 12 10 11 6 6 5 4 3 4 4 5 7 9 11 21 15 12 9 5
25 15 9 9 3 7 4 4 2 4 2 3 3 2 1 3 1 6 11 5 1 10 10 6 4 11 12 13 7 6 6 3 13 5 4 5 4 7 12 7 7 10 9 10 10
26 18 5 6 3 4 7 3 4 1 3 8 3 1 1 1 3 9 21 8 7 10 5 2 5 10 10 3 3 5 1 7 5 6 4 1 1 6 8 6 7 8 9 11 11
23 14 7 4 3 6 6 5 4 1 5 3 6 1 1 3 6 4 6 8 13 12 12 5 6 4 3 3 3 5 8 7 5 2 1 5 5 4 6 14 6 8 17 15 12
22 9 7 4 1 8 3 2 3 6 4 8 4 1 4 5 5 4 5 2 4 6 3 4 3 4 2 3 6 2 5 2 2 1 5 3 7 9 7 6 8 12 17 15 12
21 6 7 8 8 3 3 2 10 3 3 3 3 5 3 2 3 3 8 5 7 7 4 4 5 2 2 4 3 9 4 5 6 4 4 2 7 5 7 16 25 24 22 17 14
16 3 7 11 7 3 2 6 3 3 3 8 7 4 4 5 4 5 3 4 3 2 5 4 3 1 2 2 2 6 4 3 3 2 4 4 3 4 5 8 15 22 21 17 13
12 4 3 11 1 3 4 5 2 4 3 3 3 2 3 1 0 3 3 5 5 4 7 6 5 3 5 1 2 3 0 1 3 3 4 4 3 4 7 8 7 10 16 17 15
5 4 5 9 1 3 3 1 4 9 7 2 5 4 1 3 1 2 4 3 4 7 6 2 4 4 6 4 6 2 1 2 2 4 4 4 5 3 16 13 10 12 17 19 15
5 3 7 8 3 3 3 4 4 4 10 5 3 4 1 4 6 5 3 2 5 4 7 5 3 3 1 4 7 2 4 4 4 4 2 2 4 4 9 9 14 16 18 14 14
6 4 5 7 3 2 2 5 5 3 3 2 1 3 3 3 3 3 4 5 9 3 3 3 2 3 2 2 4 4 5 5 3 2 4 4 4 2 9 10 17 14 13 15 14
4 4 6 4 4 3 4 3 4 5 3 3 2 2 1 2 3 4 2 2 3 2 2 2 2 3 6 4 4 5 12 5 5 3 2 4 3 4 7 8 11 15 16 17 14
7 3 5 4 3 5 7 4 4 2 3 3 4 4 3 4 4 4 3 1 1 1 3 3 3 2 2 4 3 2 4 8 5 4 5 2 5 10 9 8 13 16 17 15 12
5 5 9 7 11 5 1 2 4 3 2 2 2 2 5 4 3 3 6 4 3 2 2 2 1 2 3 4 4 3 6 7 6 5 3 3 5 6 11 10 13 13 16 12 10
12 5 3 7 6 5 5 7 7 7 1 1 3 4 4 3 4 5 8 8 7 7 4 3 4 3 2 1 3 6 10 10 6 5 9 8 7 5 5 8 10 11 13 12 11

GFSSW_850_spd_066.txt.gz
Wind_Speed
17 19 21 22 21 19 18 17 16 15 14 14 14 12 11 12 14 17 20 22 21 11 10 13 16 15 17 10 18 15 5 10 13 10 1 19 9 6 3 9 9 5 15 25 28
20 20 22 24 25 22 20 17 14 14 13 13 12 12 11 12 15 23 19 16 23 15 10 14 19 17 11 10 12 6 5 17 25 22 6 17 18 19 2 10 9 15 19 25 27
21 23 25 27 28 25 20 18 14 12 11 10 11 11 10 9 11 22 21 12 18 23 15 14 17 17 10 13 9 9 18 19 13 5 7 8 20 17 3 2 14 23 23 22 26
22 25 28 27 26 23 18 14 11 9 8 8 8 8 6 6 5 10 10 11 13 27 23 16 17 13 7 8 18 9 13 22 27 8 2 6 21 18 10 3 11 14 19 21 22
22 25 27 27 23 17 12 6 6 7 6 5 6 6 7 9 16 12 5 6 16 30 28 27 22 20 7 8 18 3 12 12 14 23 26 25 21 19 7 4 7 21 19 15 13
22 25 24 23 20 15 8 1 3 3 3 2 1 4 8 6 9 5 17 13 14 33 32 30 19 22 16 10 13 11 7 19 4 11 16 18 19 20 9 8 19 21 15 12 10
21 22 21 19 18 15 9 4 1 3 3 2 1 2 6 13 2 7 11 7 12 27 29 29 12 24 10 3 12 5 14 4 18 11 8 19 13 8 13 11 9 14 15 12 10
20 20 20 16 13 12 9 4 2 2 3 4 1 3 5 7 4 5 4 2 7 21 26 29 18 28 4 3 8 6 6 7 11 10 10 11 8 7 12 8 9 7 9 11 12
20 19 18 14 10 9 9 6 3 5 4 3 2 3 5 4 5 6 10 2 2 7 24 21 22 10 12 3 3 2 6 6 7 17 5 7 3 7 9 11 15 13 10 9 11
20 15 15 11 8 7 5 2 2 5 5 5 3 2 1 3 4 5 6 5 7 3 16 14 10 4 4 6 15 20 7 5 11 12 7 6 5 3 2 10 18 18 16 14 12
20 15 11 8 7 9 4 1 2 1 5 4 3 2 4 6 8 1 9 7 3 12 9 13 9 20 21 9 2 10 6 8 3 6 5 7 3 10 11 3 11 19 19 15 10
23 17 10 6 3 8 8 2 2 2 3 3 9 11 8 6 2 5 12 5 3 3 3 6 16 9 9 9 3 12 6 6 1 4 7 6 13 8 10 8 11 14 19 17 13
26 18 9 6 1 4 7 4 4 3 2 5 4 2 3 3 0 6 10 10 2 2 1 10 8 11 9 7 6 3 10 4 4 2 2 4 7 5 8 10 19 19 20 20 15
27 18 7 6 2 2 3 2 1 2 2 0 1 2 1 1 1 6 9 4 3 2 0 1 11 12 8 7 4 2 6 6 6 5 5 4 4 6 9 9 9 23 19 17 15
24 18 6 4 1 2 4 1 2 2 2 5 1 1 1 1 3 6 12 4 6 4 3 3 14 15 12 8 5 4 4 8 5 6 4 1 0 6 3 9 11 15 20 18 16
23 13 6 4 3 0 2 1 3 3 6 2 2 0 2 4 3 2 9 4 8 8 6 6 7 5 2 3 3 2 5 7 5 3 1 5 6 4 6 7 10 6 18 19 21
19 6 6 4 3 0 1 1 3 6 3 4 2 3 5 5 3 3 3 1 4 5 4 6 4 2 3 5 2 1 6 2 2 2 5 3 4 11 5 5 8 12 23 23 23
13 3 5 7 5 2 1 3 8 1 1 2 3 5 3 3 1 7 7 4 4 11 5 4 5 2 3 3 3 4 4 5 5 3 3 1 7 7 4 14 18 29 29 24 21
6 5 7 7 5 1 2 5 7 5 3 3 4 1 3 2 1 4 3 1 3 3 5 5 1 0 2 2 1 3 2 2 5 3 3 4 6 7 3 3 16 23 26 24 21
3 5 10 9 6 3 3 2 3 5 2 1 2 0 3 3 2 2 1 2 3 2 3 4 5 2 4 3 3 3 2 2 2 3 4 4 5 5 3 8 8 11 21 22 19
4 3 9 9 4 2 3 4 4 8 6 3 2 1 1 2 4 2 2 2 2 3 3 5 4 3 6 7 6 5 4 2 3 4 4 2 6 5 12 13 14 15 25 22 19
3 3 7 10 5 2 1 2 1 3 4 4 2 2 2 2 4 3 3 2 2 7 4 3 4 4 4 3 7 1 5 4 4 4 1 3 5 4 7 7 13 18 21 20 18
3 2 5 6 3 3 3 3 1 2 2 2 2 2 2 2 4 3 3 1 3 4 7 5 2 3 2 2 2 4 4 3 3 3 5 5 5 5 4 9 16 17 18 19 18
3 3 3 3 4 4 4 3 3 1 4 3 3 3 3 4 5 3 2 2 3 3 2 4 3 4 5 4 5 5 8 7 5 3 3 5 3 3 4 9 12 20 20 20 20
5 3 3 3 3 5 4 4 2 2 2 3 4 2 2 1 2 3 2 2 3 1 2 3 3 3 2 3 3 3 6 9 8 11 7 5 6 7 11 10 18 21 18 19 20
4 3 3 3 7 3 2 4 3 5 3 2 1 6 2 3 3 6 4 3 3 0 2 2 2 2 3 1 2 2 6 9 9 5 5 3 5 6 13 11 13 17 18 21 21
8 4 2 4 4 1 2 4 5 9 1 1 1 3 1 1 2 2 3 5 4 6 2 2 4 3 3 1 2 6 10 11 8 6 8 9 7 2 5 9 17 19 21 22 19

GFSSW_850_spd_069.txt.gz
Wind_Speed
18 20 21 22 23 25 24 20 18 16 16 16 13 12 10 11 12 15 18 17 23 9 8 14 16 14 16 15 12 10 4 12 9 6 3 9 9 10 15 6 2 6 13 20 21
20 21 23 25 24 23 22 18 17 15 15 13 12 10 10 11 13 18 19 13 18 19 9 11 19 17 11 9 11 7 9 16 7 4 2 10 8 15 10 18 2 11 17 27 23
19 21 25 25 25 23 19 16 14 13 11 11 11 9 8 7 9 15 16 14 14 17 12 8 14 18 10 10 9 8 16 10 4 7 4 10 11 16 13 6 6 24 30 26 23
20 22 24 24 22 19 13 10 8 7 6 8 8 8 5 4 4 9 4 17 12 9 16 12 14 13 8 8 10 9 21 19 10 10 4 6 13 17 14 13 17 16 27 26 25
18 20 23 22 20 18 12 9 4 4 2 4 4 5 5 5 10 4 1 12 9 17 21 18 18 13 12 8 10 2 14 16 14 8 9 13 17 8 31 24 23 15 21 26 25
18 18 21 19 17 15 13 9 5 2 0 1 1 4 5 2 4 9 14 10 5 21 26 25 14 13 9 8 9 9 6 19 13 11 16 8 19 12 27 19 20 18 19 18 21
18 16 16 18 14 12 9 6 4 2 0 1 2 3 4 6 3 5 10 10 6 16 29 28 8 19 3 2 10 5 6 7 10 13 6 22 9 10 42 28 8 14 14 13 15
19 17 14 12 10 8 9 4 1 1 2 1 1 3 4 3 2 6 8 8 5 16 26 27 18 25 3 4 5 4 5 4 10 15 7 19 10 24 35 29 16 12 12 13 13
18 17 13 10 7 8 5 4 1 3 3 3 3 4 3 2 3 4 2 8 5 16 28 22 21 11 3 5 4 3 6 11 6 23 9 12 5 24 24 27 27 13 13 12 13
19 16 12 10 4 6 6 3 1 3 3 2 1 2 3 4 6 1 6 2 6 13 15 15 11 6 3 5 16 21 9 12 12 16 20 11 5 8 29 31 27 22 17 15 12
20 18 12 8 4 4 4 2 2 2 5 4 0 1 5 7 6 3 9 8 5 5 7 12 4 21 22 8 1 7 6 12 1 8 12 11 6 6 11 8 15 21 23 20 16
21 20 13 6 4 2 3 2 4 1 0 2 8 7 7 6 3 3 10 4 5 2 4 6 12 13 8 8 4 10 5 8 2 4 11 4 7 7 10 9 12 15 21 24 18
21 21 13 5 4 1 2 2 5 2 2 2 2 0 1 1 1 4 6 8 6 3 4 2 10 11 10 5 6 2 6 5 6 4 3 4 5 6 10 9 17 20 16 17 20
20 20 10 2 4 2 1 2 2 1 0 0 2 1 0 3 3 3 8 5 4 4 5 1 15 12 12 5 4 4 3 5 7 5 4 4 4 7 7 11 7 27 25 21 16
20 17 6 2 3 2 2 2 1 1 4 2 4 2 2 2 4 5 6 2 8 5 5 4 18 14 10 6 5 3 2 5 3 3 3 1 1 6 1 8 18 20 27 21 19
18 12 3 1 3 4 2 3 1 4 2 2 1 3 5 1 0 5 4 2 3 2 4 6 6 5 3 4 3 4 5 6 5 3 2 5 5 5 6 7 4 17 28 25 23
15 4 2 1 2 4 4 2 4 5 1 3 0 3 2 4 5 3 6 6 3 2 1 12 4 3 3 7 2 3 4 2 2 1 5 2 5 12 6 6 6 9 20 25 24
9 2 3 3 2 4 3 3 7 3 1 0 1 5 1 1 4 4 2 3 3 2 5 4 5 2 4 3 5 3 4 4 5 4 3 3 8 5 6 7 14 15 18 26 27
1 4 3 3 2 1 2 4 6 6 2 1 2 2 1 3 3 3 3 1 2 5 3 4 3 2 4 1 2 4 3 3 6 3 3 5 7 8 4 5 4 11 21 28 29
4 4 4 5 2 1 3 1 2 4 3 2 3 1 2 2 2 2 3 2 4 6 2 3 5 1 1 3 2 2 2 1 3 3 4 4 5 6 4 7 6 10 21 28 26
3 1 4 5 0 1 3 4 3 5 4 2 2 1 1 3 1 3 2 2 3 4 4 4 3 3 6 6 7 2 2 2 3 4 4 2 5 6 6 7 10 13 24 29 26
1 1 4 6 2 1 1 2 1 2 3 2 2 3 1 2 3 2 3 1 4 9 4 2 4 5 2 3 3 4 4 6 4 4 1 2 5 2 6 7 13 13 25 25 22
2 2 4 6 2 2 2 1 1 1 2 2 2 3 2 2 3 2 2 1 4 6 6 5 2 4 1 2 2 6 6 4 3 3 6 4 5 2 4 4 14 19 24 22 21
2 2 3 3 3 1 4 3 1 1 2 2 2 2 2 3 5 2 2 1 2 3 3 5 3 5 7 5 4 6 9 7 6 4 4 6 5 4 2 6 8 21 23 22 22
3 1 1 3 3 4 1 3 2 2 1 3 1 3 2 2 2 2 1 2 4 3 4 3 4 3 2 1 3 3 9 17 9 14 9 7 8 6 6 9 17 22 21 21 21
3 2 1 2 6 4 4 3 5 5 4 3 2 4 2 2 2 5 4 2 3 1 2 2 1 2 2 2 4 4 7 12 16 8 8 11 7 6 7 9 12 22 22 21 23
6 4 2 4 5 1 3 4 4 6 2 6 4 3 2 2 2 1 5 4 3 6 3 3 5 3 4 3 3 6 8 11 6 6 11 11 15 4 5 9 19 22 22 23 23

GFSSW_850_spd_072.txt.gz
Wind_Speed
17 18 20 24 24 24 22 21 19 17 16 15 14 12 10 9 11 14 16 14 20 9 8 14 18 12 11 9 14 9 3 6 8 6 3 4 6 11 11 13 3 3 5 9 26
17 20 21 22 23 21 20 16 16 15 13 11 12 9 8 10 9 13 18 14 12 19 6 10 18 15 8 7 6 3 7 10 5 4 4 4 7 12 10 17 7 4 6 21 26
16 18 21 22 22 20 16 13 11 11 6 9 9 6 6 6 6 1 8 22 11 11 12 7 15 16 8 8 7 5 15 7 6 7 3 3 6 8 10 4 12 20 7 24 26
17 15 19 19 20 19 17 11 9 4 2 5 7 6 4 2 3 2 8 17 12 13 12 9 13 10 5 5 10 5 10 6 4 5 4 4 5 10 5 7 20 19 12 21 21
16 17 17 20 18 16 14 10 7 5 3 1 2 3 1 3 6 2 4 15 19 17 17 12 12 9 5 7 7 2 6 14 6 6 7 1 11 7 24 20 16 14 9 18 18
19 17 15 16 16 14 10 8 5 4 2 2 1 0 2 1 3 3 5 7 9 14 13 16 10 12 8 6 7 8 3 14 8 7 2 1 6 15 25 12 21 22 11 18 18
17 18 15 13 14 11 12 6 3 2 2 4 3 1 2 3 3 3 5 8 8 15 17 18 9 15 4 4 13 8 7 7 8 7 2 6 7 6 44 27 28 23 14 11 19
21 18 17 13 9 9 8 8 4 1 0 1 2 4 1 3 3 4 2 7 12 11 21 18 18 21 2 3 8 4 5 5 8 18 6 13 10 10 34 22 28 26 19 13 13
20 19 18 13 10 7 9 6 4 2 1 1 4 4 2 3 4 6 2 6 12 15 22 14 21 6 4 6 4 5 7 6 8 17 8 7 4 15 14 22 26 33 26 13 12
19 20 17 13 10 5 8 3 2 2 1 1 2 3 3 4 9 2 4 2 2 9 17 15 12 4 3 5 15 11 5 3 6 12 8 13 7 5 9 17 31 30 25 18 15
20 20 18 13 8 4 5 2 2 1 4 1 2 1 4 8 5 3 6 1 5 8 8 18 2 19 18 4 1 8 6 7 3 10 15 15 9 4 18 16 32 34 27 23 17
20 20 19 12 5 3 2 3 4 2 1 2 7 8 6 6 1 4 6 4 4 10 7 5 3 10 8 5 4 9 6 4 2 10 8 8 4 9 8 16 26 36 35 32 23
21 20 18 7 3 3 1 3 4 3 2 2 2 2 2 3 2 3 6 8 1 5 5 5 2 10 7 4 5 3 8 5 5 4 3 8 5 8 16 32 29 28 22 20 24
19 19 13 2 3 3 2 3 2 2 2 2 1 1 1 1 1 2 5 2 4 3 4 2 6 14 11 5 4 4 5 6 8 5 4 5 4 13 19 19 17 33 31 26 16
19 18 8 3 3 2 1 4 2 1 2 2 2 0 1 1 3 1 3 2 6 4 2 3 15 9 12 8 3 3 5 5 3 4 2 1 2 4 5 15 24 30 28 29 23
18 14 2 1 6 3 3 3 2 5 2 2 2 4 3 1 2 4 2 3 5 4 1 3 12 1 4 3 3 6 6 7 5 3 1 5 4 5 7 7 4 14 29 32 27
15 4 3 3 4 5 5 2 4 5 1 1 2 4 3 4 4 4 2 2 3 3 3 7 4 2 4 7 4 5 6 2 2 0 4 2 6 11 3 6 6 9 13 24 28
7 4 5 4 5 7 4 3 7 4 3 1 0 8 3 8 3 6 5 3 3 5 4 4 6 2 3 4 6 3 3 4 5 4 3 3 6 5 5 9 14 16 14 11 24
2 5 5 3 4 5 3 4 6 4 2 2 0 2 2 1 3 5 7 6 6 9 1 4 4 2 5 2 2 4 3 3 6 3 3 4 6 8 7 8 9 12 11 17 27
7 5 4 3 4 3 3 2 2 3 2 2 1 4 2 3 3 3 2 2 2 2 1 1 6 3 3 2 5 3 5 2 3 3 4 4 5 5 5 6 6 7 12 17 26
5 3 2 3 3 1 2 4 4 6 4 2 2 2 1 4 3 3 2 1 3 3 6 2 3 3 3 3 5 2 2 2 3 4 4 2 5 5 5 7 8 8 12 19 27
2 1 1 1 2 1 1 3 1 1 3 2 1 0 2 1 4 6 3 2 4 9 4 2 4 3 2 3 3 3 5 5 4 4 1 2 6 2 6 8 8 6 13 20 24
1 2 1 1 1 2 3 1 1 1 1 1 1 3 2 2 3 1 1 2 7 7 7 6 2 4 1 1 2 4 4 3 4 3 6 4 5 1 6 1 1 8 16 23 23
1 1 1 1 3 2 3 3 3 1 3 2 2 2 3 3 5 2 2 3 4 2 3 5 3 5 7 5 3 6 8 10 6 6 4 9 6 6 5 3 3 9 18 22 22
4 1 1 2 3 3 1 4 4 4 3 5 3 4 2 2 2 2 2 1 3 4 3 3 3 3 3 2 3 3 10 14 20 19 10 6 15 13 8 6 12 14 20 24 23
3 2 1 1 5 2 3 3 4 5 4 4 4 5 4 3 2 3 4 2 2 2 2 2 2 3 2 3 5 5 8 13 18 17 17 21 21 6 9 8 8 16 20 23 23
5 3 1 3 3 1 2 2 2 4 5 7 3 2 4 2 4 5 3 1 2 6 3 2 4 3 3 3 3 6 9 13 10 13 16 15 25 4 6 8 17 20 25 26 24

GFSSW_850_spd_075.txt.gz
Wind_Speed
14 15 17 20 19 21 20 17 14 14 13 13 12 9 9 11 10 11 16 16 14 8 11 14 18 12 11 11 11 10 5 12 14 9 3 2 3 3 2 5 3 6 6 5 20
15 14 17 20 19 20 19 15 12 12 11 9 8 6 8 7 8 13 13 15 17 12 8 9 17 16 9 8 10 6 7 10 7 4 5 4 5 4 4 7 6 9 6 7 23
14 17 15 18 18 18 19 14 11 9 5 4 5 6 6 4 5 3 5 14 17 14 11 6 16 15 8 8 7 8 11 6 6 14 10 5 3 4 3 4 7 14 9 10 21
17 15 14 15 19 16 13 13 10 7 5 4 3 3 2 3 2 3 4 12 23 17 13 9 14 11 5 5 8 5 14 16 8 9 7 4 3 3 2 2 8 17 8 15 19
16 17 15 12 16 14 12 9 7 5 4 4 4 2 2 3 2 4 4 10 20 17 14 14 13 12 4 8 8 3 5 11 10 8 7 6 5 2 8 7 5 16 13 12 18
21 18 16 11 10 11 13 9 6 4 4 4 4 3 1 1 3 1 2 6 10 19 13 13 7 14 7 7 6 11 2 10 13 7 5 1 2 4 3 1 8 16 18 3 14
19 19 18 13 10 9 7 9 6 3 2 3 4 3 1 1 4 3 2 6 9 18 12 14 10 11 2 4 7 11 8 4 7 7 4 3 10 8 13 18 23 22 19 9 8
19 18 16 14 11 7 8 7 7 4 1 0 2 4 1 3 6 4 1 2 10 4 23 13 11 13 2 4 7 4 5 7 5 16 4 8 22 9 14 15 24 26 20 13 7
20 19 18 14 11 6 6 9 6 4 3 2 2 2 3 3 4 6 1 1 8 8 17 12 15 6 4 5 4 3 6 5 5 16 8 9 9 17 15 20 19 22 24 20 14
20 19 18 16 10 5 6 5 4 3 3 3 1 2 2 2 6 3 3 2 7 10 15 12 5 2 2 5 15 7 6 5 8 10 9 16 4 6 3 13 21 21 21 23 19
20 18 17 17 10 3 4 2 1 2 4 1 1 1 2 7 1 2 2 1 4 4 6 14 4 11 10 4 3 7 5 9 5 9 6 12 5 7 8 10 21 17 24 26 25
20 18 17 13 7 3 3 3 3 1 2 2 4 7 7 5 1 7 2 2 3 5 11 5 2 10 7 5 6 11 8 4 2 7 8 8 12 9 12 6 17 23 28 25 25
19 19 17 9 3 2 1 3 2 2 1 1 1 2 1 2 2 7 7 4 3 3 13 7 2 12 7 5 8 2 9 5 5 5 3 7 7 7 8 13 11 27 32 31 31
19 17 13 2 1 2 1 3 3 1 3 0 0 1 1 1 2 5 6 3 1 6 4 3 11 17 10 6 6 4 5 6 9 9 4 5 4 11 14 12 15 24 39 36 34
19 15 6 3 4 3 2 4 3 2 4 1 2 1 1 2 1 1 4 2 2 7 2 2 11 12 8 8 5 4 5 6 3 4 3 3 2 4 7 16 19 29 35 30 36
17 9 2 4 5 4 4 4 3 5 2 2 1 3 2 4 3 1 1 3 5 6 4 3 10 2 2 3 1 9 7 7 4 3 3 4 6 4 4 14 14 23 27 32 37
12 4 5 6 4 4 5 2 3 5 1 0 3 2 3 1 2 1 1 2 3 5 1 7 3 1 1 7 1 4 6 2 1 2 4 2 3 11 6 5 7 15 26 35 38
3 6 6 6 6 5 4 3 7 1 1 1 4 4 2 6 2 3 2 3 5 4 3 3 3 6 1 2 5 3 4 4 6 4 3 3 5 5 4 6 8 15 14 12 15
6 7 6 5 6 3 1 4 6 5 2 2 1 3 2 4 3 3 2 2 3 3 3 4 2 3 3 1 2 3 3 3 6 2 2 1 4 10 3 6 7 10 10 15 16
8 6 6 3 5 2 3 1 1 4 3 0 1 1 2 3 2 0 1 4 3 7 11 2 5 4 2 3 8 2 5 2 3 3 3 3 4 4 3 6 6 7 13 12 13
9 4 4 3 5 1 2 4 4 4 3 3 0 1 4 4 4 4 4 1 5 8 5 2 2 2 3 1 5 1 2 4 3 2 3 1 4 5 5 4 7 12 10 10 13
5 2 5 5 1 1 1 4 2 2 3 2 2 3 1 3 2 2 5 3 8 8 6 4 3 3 2 1 2 1 3 3 3 3 1 2 6 4 5 6 6 14 4 6 13
5 4 5 5 1 2 3 2 2 2 2 3 1 2 2 3 4 2 3 2 5 2 6 6 2 4 2 0 2 3 4 3 4 3 6 4 4 3 4 3 2 4 2 10 18
3 2 3 2 0 1 1 2 0 0 1 1 2 2 2 4 5 3 2 2 5 1 3 5 3 5 6 5 4 5 6 7 5 4 3 9 4 10 6 4 6 3 5 13 20
2 1 3 1 1 2 0 2 2 4 5 6 2 3 1 2 3 2 2 3 4 4 3 2 2 3 3 3 4 5 6 12 15 12 12 4 15 18 13 9 10 13 11 17 23
2 4 3 4 1 2 3 3 4 4 4 3 3 4 3 4 2 3 2 1 3 2 3 2 2 2 2 3 4 3 7 9 15 15 17 17 27 11 14 15 12 12 12 20 26
5 7 3 3 2 2 2 2 4 4 2 6 3 2 5 3 2 2 3 0 3 6 3 3 4 2 3 2 1 5 10 13 7 7 13 15 25 4 8 10 22 30 20 23 30

GFSSW_850_spd_078.txt.gz
Wind_Speed
13 14 13 17 17 18 18 15 13 11 10 11 10 9 11 9 12 12 13 16 15 9 12 16 13 13 12 14 12 13 10 16 23 16 10 3 6 1 1 0 4 6 2 3 9
16 13 14 15 18 17 14 15 11 11 9 6 4 4 7 6 10 13 12 11 21 14 10 11 17 16 13 15 13 13 15 25 22 17 8 7 3 1 3 6 4 4 7 5 16
15 17 14 12 17 16 11 12 11 9 7 4 3 3 3 1 8 5 7 8 17 20 11 9 17 16 11 15 15 17 19 17 15 21 16 10 5 1 6 6 7 9 9 10 18
20 19 15 13 13 16 13 9 8 7 6 5 4 2 2 5 2 2 8 13 17 24 15 11 17 16 13 13 21 14 18 15 12 13 11 14 9 2 2 6 5 9 8 12 18
17 19 17 13 10 13 11 9 7 6 5 4 3 1 1 3 4 5 7 9 15 21 21 15 20 22 16 18 17 15 18 16 11 8 9 12 10 2 3 4 3 8 12 9 16
16 19 19 14 10 8 7 9 7 4 4 4 4 3 1 1 3 4 3 6 12 19 22 14 17 17 18 15 17 17 6 23 13 7 4 6 8 2 3 5 1 7 10 5 5
18 18 18 16 9 9 5 5 7 3 2 2 4 3 1 1 5 5 2 1 3 14 11 8 12 11 14 11 10 15 7 8 14 12 6 2 9 13 10 8 12 9 7 7 4
18 18 17 19 9 10 5 6 7 4 2 2 3 3 1 1 5 5 3 2 7 5 20 1 9 5 10 7 13 10 16 9 13 12 3 9 21 26 19 11 15 11 8 5 6
17 18 17 18 11 8 5 7 5 3 3 2 3 1 1 1 4 6 2 2 6 5 21 8 6 6 8 13 11 13 12 21 10 16 7 13 12 15 15 18 18 15 10 8 8
18 18 16 16 12 7 5 4 1 2 2 2 1 2 1 3 8 6 1 1 5 5 9 10 5 4 10 13 14 14 11 13 13 11 10 13 18 3 2 9 24 19 14 12 11
18 17 16 15 9 6 4 1 2 1 2 0 1 1 1 6 5 4 2 1 5 5 5 8 1 8 16 15 5 14 10 11 9 8 12 12 13 13 9 11 20 25 21 19 13
17 17 15 14 6 2 3 3 3 3 2 1 2 4 4 2 2 1 4 0 4 7 9 3 2 9 10 10 11 14 13 13 8 12 12 10 14 13 15 17 17 20 27 24 18
16 16 14 8 2 3 3 4 3 3 1 1 0 1 2 1 1 4 2 4 1 8 7 7 3 13 13 13 13 14 16 12 10 10 11 5 12 16 17 20 18 19 26 27 27
16 15 10 1 2 3 1 4 5 4 2 3 1 1 2 1 2 4 6 2 1 7 9 5 8 12 11 15 14 13 10 13 11 12 5 11 4 10 18 17 21 26 25 32 26
16 12 2 4 6 4 1 4 3 3 1 1 1 1 1 3 1 3 2 3 3 4 4 3 10 12 16 15 10 5 12 10 9 10 4 7 5 3 6 20 20 22 26 26 28
13 4 5 7 6 5 5 3 3 2 4 1 0 2 0 4 3 2 2 3 2 6 6 5 14 4 9 5 3 13 13 9 5 3 6 11 11 4 5 11 12 21 26 22 22
5 5 8 8 5 5 5 1 1 3 1 2 2 1 3 1 3 4 1 2 2 5 3 5 6 1 4 10 10 9 17 5 4 5 5 1 9 11 10 9 7 11 23 26 24
5 7 9 9 8 5 2 1 3 1 2 5 3 5 2 3 1 1 4 1 1 3 3 3 4 5 3 5 7 15 10 3 6 5 5 3 6 2 2 2 2 8 9 14 24
8 9 7 6 6 2 1 0 2 3 2 4 8 4 3 3 3 3 2 4 1 1 2 3 3 2 6 2 2 4 6 2 4 1 2 3 4 9 5 3 4 6 7 13 14
10 8 5 5 5 2 1 1 1 2 1 2 1 1 4 6 5 3 4 4 4 2 1 2 5 1 4 1 4 2 9 3 0 5 4 3 4 3 5 7 6 3 7 9 11
11 5 5 5 5 1 1 1 1 4 4 2 1 4 2 2 3 4 3 1 3 3 6 2 2 4 8 3 8 4 4 1 1 2 2 2 3 5 4 4 7 7 5 5 8
8 2 7 7 3 1 1 1 1 3 3 2 1 2 4 3 1 1 2 1 14 7 6 3 4 4 2 1 1 1 3 11 6 5 0 3 4 6 3 2 4 7 5 2 3
7 4 7 7 2 2 1 1 1 2 2 2 1 1 1 4 2 2 3 2 10 7 5 5 3 6 4 3 2 5 8 4 3 2 7 6 3 2 2 3 1 5 4 3 5
6 3 3 4 3 2 2 1 2 1 1 1 1 3 5 4 1 4 3 2 6 2 3 3 3 3 6 2 4 7 14 14 10 5 11 15 13 7 9 10 7 14 7 5 10
4 2 4 3 3 2 1 1 2 2 2 2 1 3 1 3 4 5 2 4 3 4 1 3 1 1 1 2 2 3 9 16 14 18 15 12 19 18 18 18 18 9 8 9 13
5 5 4 3 2 3 1 2 2 1 2 1 3 3 1 2 2 4 6 4 2 4 3 1 2 1 2 2 4 7 11 13 18 20 21 24 27 19 21 16 16 20 14 9 16
6 10 7 1 3 3 2 2 3 1 1 5 2 1 5 4 5 4 1 2 2 4 4 2 4 3 1 1 3 9 18 17 11 12 14 18 20 14 13 16 16 19 19 20 21

GFSSW_850_spd_081.txt.gz
Wind_Speed
17 11 13 14 17 18 13 15 13 12 11 10 9 9 9 12 14 13 14 15 16 16 14 13 17 15 15 19 18 16 6 15 23 14 14 9 9 1 0 2 4 5 4 3 9
19 18 14 14 13 19 14 11 14 11 9 7 4 3 5 8 9 15 12 17 17 19 10 17 18 18 21 22 17 17 12 21 27 20 11 10 8 4 4 7 6 3 6 3 11
16 20 22 13 10 16 14 8 11 11 8 6 4 3 4 2 3 7 8 14 13 16 14 14 17 20 22 23 23 17 13 22 23 14 19 13 9 3 6 3 5 3 5 8 14
13 18 19 20 10 11 11 10 10 8 6 5 3 3 2 2 2 2 8 11 14 18 19 10 16 24 18 21 24 13 32 34 15 4 14 14 12 8 2 8 4 6 4 11 15
13 17 18 21 10 8 10 10 8 7 4 3 3 2 1 5 7 7 9 12 9 19 23 13 15 24 18 22 23 20 15 23 12 11 19 16 15 10 7 6 3 5 6 8 14
15 18 18 19 14 8 8 8 9 6 3 1 2 1 3 7 4 7 8 7 1 17 21 20 7 22 18 19 18 17 15 18 9 12 8 11 8 17 6 8 4 3 5 2 11
18 18 17 19 20 6 10 6 10 7 4 1 2 3 5 3 5 6 5 3 5 9 14 21 18 13 15 12 15 13 12 14 17 15 8 9 15 16 15 12 6 4 1 4 2
15 19 18 18 19 7 9 7 8 7 6 4 2 5 6 3 3 7 5 3 4 10 13 6 9 15 21 15 16 16 17 16 16 19 5 7 18 17 30 13 10 7 4 2 2
14 17 17 17 18 10 8 7 7 5 5 4 4 5 3 2 3 6 5 4 1 7 17 3 6 5 13 17 14 15 15 21 18 18 7 12 13 18 23 22 14 13 10 5 4
16 18 16 17 16 7 4 3 2 1 3 4 6 5 2 2 5 6 4 4 2 4 6 6 3 2 13 16 17 18 17 22 16 13 12 15 18 3 5 21 22 23 18 13 7
15 16 16 16 12 5 2 1 1 3 3 4 3 4 3 7 3 2 4 5 1 2 4 4 2 4 22 21 16 17 17 20 16 11 14 14 13 15 14 15 26 32 25 20 13
15 14 15 14 9 5 5 5 4 1 2 2 4 4 4 4 4 2 6 4 4 2 6 3 2 8 10 14 7 16 14 9 6 7 10 14 16 16 17 22 25 30 33 29 20
15 13 12 10 4 3 5 5 3 5 3 1 2 3 2 3 4 4 4 2 2 2 2 6 2 5 10 12 17 13 15 15 13 10 12 7 14 15 18 22 22 25 28 33 31
14 12 9 1 1 3 2 4 5 3 3 4 1 1 1 4 1 10 3 1 1 3 1 2 6 6 10 11 12 14 11 15 13 12 6 15 6 18 19 19 20 24 22 28 35
14 10 3 5 1 1 2 4 4 1 2 2 3 2 2 3 2 4 3 2 2 6 4 3 2 7 12 12 8 11 5 10 9 11 5 13 6 12 4 15 17 19 24 25 25
11 2 5 5 2 2 4 6 2 2 3 1 4 1 1 5 3 3 1 1 1 2 10 9 7 1 3 4 2 8 11 5 5 6 7 14 10 9 7 5 9 16 23 24 24
2 4 7 6 1 4 4 1 2 2 1 1 1 1 3 6 4 4 2 5 3 3 3 4 2 3 3 7 4 14 15 5 4 4 5 3 9 13 5 5 6 7 12 21 22
5 7 8 6 5 5 1 2 1 4 1 3 2 3 4 2 3 3 3 6 5 2 3 2 2 6 7 6 6 14 14 4 5 6 9 4 6 4 2 2 1 5 9 9 16
9 8 5 4 5 3 5 2 2 3 4 6 4 2 2 1 2 2 1 2 2 2 2 3 3 4 4 2 4 10 10 3 3 3 1 6 8 8 2 6 6 5 6 9 7
8 5 3 4 3 2 2 2 1 2 3 5 2 4 7 8 5 3 4 3 2 2 6 4 4 3 4 3 1 4 8 3 2 4 4 4 6 3 6 6 4 1 4 6 8
10 4 4 5 3 2 1 2 3 3 2 2 1 4 4 7 5 5 1 2 3 4 2 1 3 3 6 3 8 4 4 4 3 3 3 1 3 7 9 6 7 8 4 2 5
8 2 7 6 2 2 1 2 2 5 4 2 3 2 3 5 5 2 3 2 7 2 4 2 4 3 4 4 6 8 10 13 4 5 3 5 1 8 7 5 5 8 6 3 2
7 4 8 6 2 3 4 3 1 5 4 3 2 3 1 3 2 2 2 1 10 5 2 2 3 4 4 5 5 7 10 8 9 3 6 6 3 3 3 5 4 3 7 4 2
6 3 4 7 7 3 4 4 5 2 3 2 0 2 2 1 1 3 4 3 7 5 4 3 3 4 3 3 1 7 13 14 9 4 11 15 15 5 5 8 9 9 9 8 6
5 3 5 4 7 6 3 3 7 4 3 2 3 2 4 3 3 3 4 6 5 3 3 3 2 1 3 1 3 4 9 15 15 17 13 14 18 15 15 14 17 12 7 6 8
5 5 4 4 5 7 4 5 7 4 2 4 2 1 3 1 5 6 5 6 6 8 6 3 2 1 3 5 5 8 12 14 16 20 21 22 23 19 25 27 23 18 18 20 13
11 10 5 5 6 7 5 7 6 3 3 5 2 3 6 4 4 4 3 2 2 3 7 3 2 2 2 2 5 10 18 18 17 15 14 17 17 16 15 16 16 16 17 17 18

GFSSW_850_spd_084.txt.gz
Wind_Speed
15 19 22 14 14 15 19 12 15 15 12 11 10 10 10 12 14 14 15 14 13 14 20 12 17 15 13 15 17 6 4 10 18 20 5 18 5 3 1 1 13 7 9 15 18
13 17 20 23 14 10 17 13 12 14 10 8 7 6 6 6 9 15 14 12 15 9 13 14 19 18 19 18 14 10 5 11 10 4 9 6 9 8 1 7 8 17 9 11 14
15 15 19 22 20 9 13 13 12 12 9 7 7 6 6 5 10 6 11 5 14 14 15 18 15 19 19 21 17 10 12 14 14 20 8 9 5 7 4 4 10 7 7 14 15
15 15 18 20 21 9 10 10 11 11 8 7 7 6 5 2 5 1 9 10 10 12 13 18 15 13 14 13 24 7 20 17 19 12 7 10 14 5 5 9 9 6 5 13 16
15 17 18 17 19 11 9 9 11 11 7 5 5 5 2 6 7 6 10 8 12 11 14 19 19 19 13 16 21 17 10 27 23 5 19 23 12 8 14 11 9 8 5 16 15
13 17 20 17 17 15 8 9 10 10 7 4 4 4 8 13 6 10 8 6 11 9 13 19 7 15 12 16 21 20 23 21 20 12 18 20 6 17 15 14 10 9 9 10 16
16 14 18 17 17 18 8 8 8 9 8 5 3 5 11 9 6 10 7 6 10 3 10 13 4 2 8 10 25 11 18 11 13 17 8 17 7 5 19 14 11 7 11 9 10
17 13 17 18 16 17 8 8 9 10 9 6 4 6 7 8 5 7 7 5 7 4 9 12 12 12 7 11 18 9 14 14 16 25 14 7 11 9 17 15 9 2 10 9 8
18 15 16 15 15 15 5 4 7 7 6 3 3 5 5 5 4 6 6 5 5 8 6 6 10 4 10 8 10 7 11 14 11 13 7 7 2 12 21 17 10 6 3 9 9
17 15 14 14 13 10 3 1 3 1 6 3 7 5 7 3 7 7 4 5 2 5 5 3 4 1 7 10 11 12 9 12 8 9 11 7 6 6 6 7 14 13 9 7 7
18 14 14 15 10 4 2 6 2 2 3 4 3 7 5 9 6 4 5 5 1 5 1 6 2 6 16 18 12 12 10 13 10 9 11 8 9 7 10 12 16 15 19 13 12
17 14 12 11 7 3 7 3 3 1 3 0 3 3 3 5 6 1 8 3 1 3 7 4 2 3 3 11 16 14 16 7 7 4 9 10 11 12 13 17 22 24 28 27 20
17 13 11 8 2 4 5 2 8 2 4 2 1 3 2 2 6 7 8 3 5 2 1 3 3 3 4 3 12 17 15 12 10 13 6 5 10 11 9 17 25 24 27 28 35
16 12 8 3 3 3 1 5 4 4 2 4 1 1 3 2 2 5 2 2 2 3 4 5 1 5 7 13 8 9 12 12 14 7 4 7 4 12 14 10 11 20 23 24 30
13 11 3 7 5 1 1 4 5 2 2 2 3 4 4 2 2 5 3 3 5 2 2 5 7 4 11 6 8 3 8 8 11 9 5 5 2 6 11 11 12 16 20 23 24
9 2 7 8 6 1 5 7 4 2 3 3 4 4 1 4 5 2 1 5 5 3 6 5 6 6 9 6 6 8 11 4 5 0 1 7 6 5 6 6 6 16 25 25 24
1 6 8 5 4 4 10 4 1 2 1 3 3 4 5 5 4 3 2 3 3 1 4 5 6 8 6 3 5 2 6 3 2 2 3 1 5 8 6 6 5 1 5 18 26
7 10 9 6 7 9 5 2 2 3 1 2 1 3 4 4 2 5 5 5 5 4 3 3 1 3 2 3 2 5 5 3 4 4 4 2 3 4 3 12 9 3 6 6 6
11 10 6 7 7 6 1 1 3 3 4 6 3 0 2 2 1 2 3 5 2 3 2 3 3 3 2 5 5 5 3 1 3 2 4 4 6 1 5 4 8 8 5 6 6
12 9 4 5 5 6 2 1 1 3 4 7 2 6 5 5 3 2 2 3 2 3 4 2 5 2 3 6 3 3 1 1 2 2 1 3 3 3 7 6 4 4 4 5 6
13 6 4 6 5 3 2 2 3 5 1 3 2 1 7 4 3 2 5 3 2 1 8 4 4 2 2 2 3 2 0 1 2 3 1 1 3 8 10 7 7 8 5 1 5
10 3 7 9 2 3 2 4 1 5 4 3 3 2 2 4 5 0 3 5 6 5 2 2 4 3 1 5 3 4 4 4 3 3 1 1 4 8 9 6 9 8 6 5 2
10 5 9 9 3 3 4 5 2 4 5 4 3 2 3 2 2 4 3 7 9 3 3 3 2 3 1 2 5 5 6 6 2 4 3 2 4 3 9 6 6 6 2 1 3
7 3 3 7 7 5 6 5 5 1 1 2 1 3 4 3 1 3 5 2 7 2 1 2 2 2 2 1 1 5 7 7 5 2 4 7 7 3 4 5 9 11 6 4 5
7 5 8 4 7 7 1 8 8 5 4 4 2 5 2 3 4 4 6 4 4 3 2 2 2 3 2 3 2 2 4 8 7 9 5 7 12 10 7 4 9 13 3 1 1
6 4 7 3 6 8 4 6 9 4 1 4 4 1 4 3 6 2 5 6 4 6 2 3 2 3 3 7 6 6 7 9 10 13 12 16 17 15 23 27 21 19 14 9 10
13 11 6 7 5 5 6 8 9 7 1 5 3 3 6 4 6 7 7 6 5 4 6 3 3 1 2 2 5 6 14 14 9 8 8 14 13 9 8 7 9 11 11 15 17

GFSSW_850_spd_087.txt.gz
Wind_Speed
15 14 16 19 22 16 12 17 12 13 11 10 9 9 8 8 9 10 15 12 12 12 13 15 13 17 17 11 16 8 6 9 4 5 1 3 5 4 7 16 15 4 14 26 35
15 14 15 18 22 14 9 15 14 12 10 9 8 7 8 8 10 11 10 12 13 7 15 14 12 16 19 13 12 8 7 11 4 5 2 4 5 7 6 13 9 15 17 27 34
17 12 16 18 20 19 8 11 13 12 10 8 7 7 6 5 9 3 6 9 19 11 16 16 16 12 20 16 17 6 7 13 4 12 9 2 4 2 6 4 7 14 17 19 31
17 14 17 19 19 19 10 9 11 11 10 7 6 6 4 1 1 8 11 11 9 11 14 15 21 7 8 12 15 10 16 14 6 5 7 5 2 4 1 8 12 10 10 18 24
16 14 17 19 16 17 12 8 10 9 9 7 5 4 3 3 5 5 10 8 12 16 15 15 20 10 10 12 11 11 8 19 8 7 3 7 7 2 11 15 13 11 12 17 21
19 16 15 17 17 16 15 7 10 9 8 6 4 3 5 4 4 10 8 7 11 9 14 15 12 13 11 8 13 17 17 18 17 9 1 4 7 12 8 11 16 14 14 17 18
18 17 14 16 17 14 17 9 10 8 8 6 4 5 9 11 6 7 10 9 10 7 3 7 16 9 5 8 23 13 12 4 13 12 4 1 4 6 15 14 17 15 13 18 19
17 17 14 17 13 13 17 7 8 8 8 4 3 5 6 5 1 6 4 6 9 9 7 16 9 7 5 10 5 13 7 10 8 13 2 11 7 14 14 17 14 16 17 15 19
20 16 14 16 14 14 7 2 3 5 2 1 1 5 5 6 4 9 5 7 9 10 4 12 5 2 5 2 5 7 9 5 9 17 6 9 2 21 21 20 15 16 18 17 15
20 15 14 14 15 11 3 0 1 3 5 3 4 6 4 2 9 5 4 9 4 4 5 5 4 3 3 1 10 9 8 6 7 11 11 10 11 13 21 22 17 13 12 18 16
20 14 13 12 11 5 3 2 2 2 2 1 3 6 7 13 9 0 7 6 5 3 2 4 3 6 8 5 10 7 13 16 5 11 11 10 6 7 8 9 10 11 11 8 12
19 14 11 10 6 2 7 2 2 1 1 3 4 7 4 7 4 4 8 3 0 2 3 4 2 4 5 11 9 13 10 8 6 15 8 8 7 11 10 9 17 20 18 21 17
18 13 9 5 4 5 7 1 3 4 1 1 3 3 4 4 4 9 7 6 3 3 2 3 4 4 8 5 7 2 8 5 9 6 6 11 8 16 8 20 23 24 28 30 28
15 11 7 6 4 3 2 5 4 7 3 5 2 3 4 3 3 6 6 3 2 3 3 3 5 6 6 3 5 6 9 11 7 7 2 5 3 12 14 11 8 25 25 23 25
12 9 2 8 6 2 3 3 7 2 5 5 5 6 4 4 1 7 6 4 7 5 4 6 9 8 9 2 6 2 15 17 11 5 7 8 2 6 10 9 11 18 30 28 24
8 2 11 10 6 4 4 9 4 4 2 5 4 4 3 4 2 3 2 2 3 4 9 7 7 4 2 4 6 5 5 9 4 2 2 5 5 5 5 16 7 9 28 26 25
3 10 13 8 4 7 11 4 3 6 4 2 3 4 4 4 3 4 1 2 1 5 6 1 3 4 2 4 9 3 4 2 3 3 4 3 4 7 3 5 8 9 24 30 29
11 12 11 8 9 14 4 3 7 3 2 2 3 3 3 4 1 5 3 2 3 4 4 5 6 8 8 4 4 7 2 4 4 3 3 1 5 5 6 7 9 8 9 8 6
17 15 11 11 12 9 3 4 6 5 5 6 2 1 1 2 2 1 2 2 1 2 4 4 3 5 3 3 3 4 3 4 4 3 4 3 5 6 3 4 4 4 2 4 5
19 13 11 9 9 6 3 3 2 5 6 3 2 5 1 2 1 1 2 3 2 3 5 3 4 4 4 5 2 2 3 4 3 2 3 3 3 4 5 5 4 4 2 3 2
20 9 11 11 10 3 2 4 3 3 3 3 2 3 3 3 3 1 2 3 2 2 3 2 4 2 2 2 2 4 3 2 2 4 3 1 5 5 8 7 7 5 5 2 2
15 3 15 14 3 2 1 4 5 6 2 1 2 3 5 4 2 1 3 2 2 1 2 2 4 3 1 2 1 0 1 1 3 3 1 3 4 2 7 8 12 8 5 5 3
16 7 13 13 3 3 3 3 1 5 5 4 3 0 3 1 3 3 5 3 3 3 2 2 1 3 3 5 3 3 4 3 2 3 2 4 4 2 5 7 9 10 7 4 2
10 4 5 9 5 2 5 4 3 2 4 1 2 2 1 1 2 3 3 2 3 2 2 2 2 5 5 4 4 4 5 5 4 3 4 5 4 3 5 6 9 13 7 7 9
7 5 9 5 6 5 2 7 5 4 2 4 1 1 0 3 3 4 4 2 1 3 4 3 2 4 2 3 3 2 3 6 6 7 5 8 10 13 6 1 4 12 14 12 9
9 5 9 6 8 6 3 5 7 3 4 4 2 2 5 4 2 3 4 3 3 0 1 2 3 4 4 4 4 3 6 7 7 6 8 10 12 9 18 26 15 10 7 15 15
9 10 7 4 5 5 4 5 8 8 2 3 3 4 5 3 3 1 3 2 4 6 2 3 3 2 4 3 4 6 7 9 4 6 6 9 16 2 6 10 11 10 10 10 11

GFSSW_850_spd_090.txt.gz
Wind_Speed
18 15 12 14 19 22 11 10 16 13 13 11 10 8 8 7 7 7 10 6 5 9 11 15 11 13 17 14 15 16 5 11 6 10 5 5 4 1 7 12 6 15 17 31 36
18 16 11 16 19 19 16 8 12 13 12 10 9 8 7 7 7 8 5 5 9 14 13 14 17 12 17 12 10 5 8 13 4 3 2 4 3 7 6 8 5 17 23 35 37
19 16 12 16 20 17 19 10 9 12 12 9 8 7 6 5 5 3 4 5 9 17 18 13 16 12 13 16 14 16 11 6 4 3 3 4 3 2 14 3 6 27 37 39 43
19 16 13 14 19 15 18 10 9 10 11 8 6 5 3 2 2 5 9 10 12 11 12 13 15 7 4 14 18 9 25 9 4 2 3 2 4 5 1 8 14 20 34 38 38
19 16 15 12 17 16 16 11 7 9 11 8 5 4 2 3 4 5 11 13 9 12 16 19 16 12 9 8 11 15 13 18 10 4 5 4 9 1 9 14 15 14 20 31 35
19 18 16 11 15 15 14 15 9 9 9 7 5 4 3 3 1 6 9 13 10 11 8 13 11 21 8 6 15 10 19 19 9 2 4 4 5 5 4 9 13 15 18 22 32
19 19 16 12 15 16 12 17 9 9 7 6 4 5 7 6 5 7 10 11 11 12 6 6 12 13 13 6 18 10 12 12 13 8 2 3 1 1 3 7 11 12 15 19 25
19 17 15 12 16 14 15 10 4 5 6 4 3 4 6 2 2 6 10 11 11 9 4 6 4 14 11 2 2 14 8 8 13 17 2 8 2 3 5 4 11 11 13 16 20
18 17 15 13 14 14 9 1 1 0 1 2 2 3 6 4 4 11 6 9 11 9 2 5 8 6 7 3 6 10 8 9 6 16 6 5 3 10 8 4 7 13 12 14 18
17 16 16 15 12 9 1 3 4 6 4 3 1 5 3 3 7 8 5 9 11 11 3 1 4 1 2 2 11 8 9 9 8 5 13 12 3 11 8 9 10 13 14 14 15
16 15 16 13 9 1 3 7 5 2 2 1 5 7 9 12 6 7 9 10 10 3 3 2 3 5 7 8 1 11 13 10 11 10 5 8 4 8 8 8 17 17 14 15 15
15 14 14 9 4 3 7 7 5 3 2 1 3 6 6 8 5 6 9 4 2 3 4 3 2 8 5 8 4 8 14 7 11 15 5 8 6 6 4 10 19 26 18 17 15
14 13 11 4 5 7 10 6 5 4 1 2 5 3 6 7 4 7 4 4 2 2 2 1 3 10 5 4 4 5 13 11 9 7 6 7 4 9 8 23 30 28 25 25 24
13 11 7 9 7 8 5 5 5 6 4 8 4 2 4 5 3 5 4 2 1 2 2 4 4 9 9 2 4 6 7 13 15 7 2 1 2 8 13 12 12 26 29 30 31
12 8 5 11 11 7 4 5 8 5 5 5 6 7 2 1 6 3 6 3 4 5 4 1 9 9 4 4 3 4 10 11 17 9 5 2 2 6 4 15 14 18 34 33 26
10 7 11 14 12 8 8 13 9 5 1 5 4 4 1 4 2 6 3 3 2 4 11 7 3 4 4 4 4 7 10 11 9 3 1 7 6 4 5 11 15 11 29 33 30
9 9 16 13 10 10 15 10 4 5 2 4 3 3 3 3 2 2 4 4 3 5 8 6 6 6 6 6 10 12 6 3 2 2 3 7 8 9 8 6 9 12 28 30 30
14 19 16 13 12 17 13 4 6 3 4 1 3 5 1 3 2 2 3 4 5 5 3 3 4 6 7 4 4 4 4 3 4 4 3 5 5 6 4 5 4 6 10 18 24
24 20 16 15 17 13 5 4 7 6 6 6 1 2 4 1 2 3 2 2 2 4 5 4 5 4 3 3 2 3 4 3 6 4 4 3 5 5 3 4 5 7 6 4 6
28 20 16 17 18 11 3 3 3 5 6 4 4 4 1 1 2 3 2 3 3 4 2 3 4 2 3 1 1 2 2 3 4 3 2 3 4 3 2 5 1 2 1 1 2
27 11 16 16 14 4 3 5 4 6 8 6 3 3 3 3 2 2 3 5 5 6 7 3 4 4 4 4 2 4 3 4 3 3 4 3 5 5 8 7 8 5 3 1 1
15 4 19 17 5 3 3 5 5 6 3 2 2 2 5 4 2 4 3 3 3 2 4 3 3 3 1 3 1 1 2 3 4 3 1 2 5 5 4 6 10 7 6 6 4
11 7 16 19 4 3 4 4 4 4 5 5 3 3 1 2 4 4 3 3 5 5 2 1 2 3 7 5 4 2 1 3 4 3 2 3 4 4 3 3 7 6 3 2 2
10 4 5 10 5 3 4 4 4 5 3 3 2 3 3 2 4 4 2 0 2 3 2 3 3 5 5 5 2 2 2 3 4 3 3 5 3 3 4 5 6 4 6 9 9
6 5 8 7 6 4 2 6 6 5 1 5 1 2 2 2 3 4 3 3 2 3 2 3 3 2 3 4 4 3 3 3 5 5 4 2 6 7 6 6 6 16 20 14 18
9 6 9 8 8 7 4 7 7 4 5 3 4 4 4 4 2 4 5 2 4 1 2 2 1 2 3 3 4 3 5 6 6 3 7 9 13 9 19 15 16 12 5 8 12
7 10 7 7 5 5 4 7 7 9 3 5 7 6 5 5 7 6 4 3 5 6 2 2 3 2 3 4 5 5 5 4 3 3 4 7 9 6 6 9 15 12 7 9 11

GFSSW_850_spd_093.txt.gz
Wind_Speed
20 17 15 10 16 20 19 12 7 13 12 12 10 8 8 7 6 7 9 5 7 5 12 9 9 7 10 17 14 9 11 11 9 9 12 6 5 2 4 17 16 26 15 21 26
19 19 15 11 15 19 18 17 10 11 13 12 9 7 7 7 7 8 3 3 4 8 10 11 13 10 14 5 10 7 9 10 2 1 5 4 5 9 5 7 6 15 17 28 29
19 19 18 14 13 17 17 17 11 8 12 12 8 6 6 6 6 2 2 1 3 9 11 16 14 10 14 15 10 6 12 14 14 5 5 4 3 1 10 4 11 25 30 42 42
19 21 17 16 12 15 16 16 11 7 11 10 8 6 4 3 3 2 3 4 7 12 10 10 13 5 4 12 20 7 16 14 7 5 6 5 1 3 2 4 15 27 40 46 42
19 21 17 17 12 13 15 14 11 6 9 8 7 5 3 4 7 2 4 7 8 9 12 12 14 12 10 4 13 12 6 28 29 9 5 7 3 2 2 8 17 26 34 42 39
18 20 16 17 12 13 16 11 14 8 8 7 7 5 5 3 5 4 8 10 8 11 10 11 13 19 6 7 12 8 20 13 30 22 3 3 3 5 2 6 14 25 31 35 35
18 18 16 16 12 14 12 11 15 9 8 6 6 6 8 11 5 8 8 9 10 9 8 10 15 12 11 4 22 27 5 10 20 22 2 4 2 5 6 6 12 15 24 30 31
18 17 15 15 14 14 12 10 1 4 6 7 5 6 6 2 4 6 10 11 8 10 10 8 6 11 5 8 5 10 6 11 15 18 11 5 6 2 9 5 6 8 14 22 28
21 16 14 15 13 13 11 2 3 2 3 3 3 3 7 4 9 8 9 7 11 9 7 5 7 6 6 8 8 7 5 12 6 22 7 4 4 2 10 6 5 3 6 13 20
24 14 15 13 12 10 3 6 6 6 4 3 4 5 3 7 11 15 9 7 12 10 9 5 4 4 1 9 9 12 4 6 7 10 16 9 6 4 9 8 4 3 4 8 17
23 12 13 12 10 5 9 10 6 2 4 2 5 5 9 9 8 4 6 10 10 6 2 4 3 6 5 4 3 13 5 10 4 11 10 7 14 3 8 9 4 3 4 8 10
24 12 12 10 7 7 13 7 6 3 2 5 4 8 6 7 5 6 9 4 2 2 2 3 2 7 7 2 3 12 9 12 14 16 6 5 7 4 5 4 6 7 7 12 12
28 11 10 8 6 10 13 10 8 6 1 3 4 4 5 7 4 5 5 6 3 3 4 3 6 9 5 3 8 4 13 8 14 7 5 7 4 5 5 12 18 16 16 15 19
26 9 9 8 8 14 13 9 8 5 4 5 1 1 3 5 4 6 3 4 2 1 4 3 8 9 5 7 8 4 4 17 19 4 3 4 1 7 7 9 11 22 22 24 24
23 9 9 14 10 14 8 11 10 4 5 2 2 5 3 3 7 4 5 3 5 4 4 2 8 6 6 3 1 3 14 14 13 7 3 3 2 4 3 14 11 13 29 29 29
22 12 13 18 16 12 11 12 11 5 3 4 2 2 2 3 2 5 2 3 6 3 10 5 2 4 4 3 7 9 18 13 6 3 1 5 2 3 5 7 6 20 27 32 29
20 15 19 17 16 16 15 14 4 4 2 2 0 3 4 3 4 2 2 2 3 3 6 7 6 5 5 8 11 14 5 3 2 1 3 6 4 8 7 8 7 9 25 29 25
21 18 24 17 17 19 20 4 4 2 4 1 3 5 2 3 2 3 2 5 6 6 4 5 5 9 9 3 4 3 1 3 4 4 2 3 4 5 3 10 7 6 7 12 19
27 27 22 18 18 22 7 3 7 6 6 7 3 1 3 2 2 4 4 3 4 5 4 3 4 5 7 4 3 3 5 0 5 2 4 3 6 8 4 5 6 9 7 7 3
35 25 21 20 21 16 3 4 2 3 5 4 5 3 1 1 2 4 5 3 3 2 2 2 5 4 4 3 6 2 3 1 2 3 1 4 4 4 2 2 3 4 5 4 3
33 12 21 20 19 5 3 5 5 6 5 5 5 4 4 2 1 2 4 4 4 5 5 3 4 3 2 4 3 4 3 5 4 3 3 2 5 3 6 3 2 1 2 3 4
14 4 25 24 4 3 3 5 4 4 2 2 4 3 5 3 3 3 2 2 5 3 3 1 4 3 1 3 1 0 3 3 4 2 2 3 4 3 4 2 2 1 6 6 6
9 10 19 23 3 2 3 3 2 3 3 3 3 4 2 4 4 2 2 4 6 5 2 1 2 3 6 5 5 3 2 4 4 3 2 4 4 3 5 5 2 1 3 6 6
10 4 5 10 2 3 3 4 4 5 3 3 3 2 3 4 5 3 2 1 3 4 4 3 3 4 5 3 3 2 0 1 4 3 2 4 4 4 3 2 4 3 4 13 13
5 4 8 6 8 4 1 5 5 4 1 5 2 3 4 3 3 3 2 1 3 6 3 3 3 3 2 1 2 1 2 4 4 4 4 2 5 5 6 5 10 11 17 21 16
7 6 7 5 14 6 1 6 5 3 3 3 5 3 4 4 4 5 5 1 1 4 3 3 1 2 4 6 1 2 4 4 4 4 6 5 9 7 17 13 13 17 11 9 11
6 13 10 7 5 6 5 6 7 6 5 4 8 5 5 4 6 8 5 4 2 4 2 3 3 2 2 4 4 3 2 3 2 2 3 3 7 3 6 9 14 15 10 11 11

GFSSW_850_spd_096.txt.gz
Wind_Speed
21 22 20 15 12 15 18 20 14 10 12 14 13 10 9 8 7 8 9 5 3 4 10 10 8 5 9 12 12 3 6 12 13 10 7 9 11 15 5 20 19 33 25 25 18
25 21 20 18 13 14 17 16 17 11 10 13 13 10 9 8 8 8 4 5 3 6 7 8 7 9 6 4 8 6 9 15 3 5 4 15 8 10 7 13 10 24 14 23 18
32 21 20 19 14 13 16 14 16 8 9 11 11 10 8 7 7 2 4 2 2 7 10 10 10 8 5 10 8 4 13 15 11 19 10 8 8 8 6 7 17 32 30 29 23
39 23 18 17 15 13 15 16 13 8 6 10 11 9 7 4 3 3 1 1 5 10 11 9 6 4 5 6 12 6 11 15 18 17 7 6 13 10 10 4 19 37 41 41 35
38 25 19 17 16 12 14 14 12 8 7 8 9 8 5 4 6 3 2 5 9 10 9 10 11 9 6 6 9 9 11 9 24 12 12 15 10 11 8 4 14 28 38 46 36
33 30 20 14 15 12 15 14 11 9 8 7 8 7 5 3 2 4 4 8 9 9 12 10 8 15 9 10 7 7 19 17 11 17 7 11 6 7 4 3 17 31 36 38 42
40 29 22 13 13 13 15 12 12 9 9 7 8 8 6 11 4 6 9 8 10 11 11 13 15 17 11 4 18 16 4 11 15 13 7 12 8 6 11 2 15 26 30 39 37
34 26 23 15 11 14 14 13 2 3 7 7 9 6 6 3 6 7 7 12 10 10 12 10 11 15 10 6 4 8 6 3 10 11 8 8 9 2 10 4 7 15 27 30 36
32 33 26 11 8 12 11 5 3 4 4 5 5 3 7 4 7 8 9 9 11 12 12 8 7 3 3 2 4 7 4 6 5 13 7 6 9 7 16 5 8 7 17 27 22
27 33 20 8 6 10 6 6 6 5 4 4 4 3 5 4 7 12 15 14 12 11 9 9 3 4 3 5 8 7 7 6 6 8 12 7 12 17 19 10 5 6 7 17 32
21 25 21 4 6 8 11 9 6 2 7 5 4 5 8 9 11 5 4 9 12 4 4 3 3 6 15 12 9 5 4 7 3 12 6 9 8 14 18 8 6 3 5 9 13
22 31 21 5 3 8 16 8 6 4 3 7 7 10 10 7 3 2 6 4 4 5 5 4 6 7 8 9 11 11 9 10 14 13 5 6 6 12 11 6 4 2 3 6 10
19 31 17 6 4 14 18 12 8 7 1 3 6 6 4 3 2 2 3 5 4 7 9 6 2 11 7 7 10 5 13 9 9 10 4 5 4 4 6 9 12 8 7 5 6
19 29 14 9 8 14 17 14 9 7 4 3 2 3 2 2 1 4 5 6 2 4 4 5 4 6 7 5 9 6 9 13 18 9 4 2 2 4 4 11 6 11 9 8 9
22 31 16 9 5 20 11 14 11 4 3 3 1 3 3 1 3 4 5 6 4 4 5 1 5 6 2 3 8 3 13 12 10 5 5 4 2 4 3 8 9 7 14 15 16
20 30 18 16 14 14 15 15 11 6 4 2 1 2 4 3 3 3 4 6 4 5 2 4 3 3 3 3 8 12 15 7 3 2 3 4 2 5 2 6 2 6 20 22 22
27 27 19 18 20 19 19 18 5 4 3 2 2 3 3 3 2 1 3 4 2 2 6 7 14 3 6 10 7 7 5 3 3 3 2 1 1 6 3 7 3 8 15 21 24
33 23 21 19 18 22 25 4 4 2 4 1 2 3 3 3 3 3 3 4 3 3 3 5 5 10 12 5 4 4 3 3 4 3 2 5 3 4 2 8 4 1 2 4 12
31 24 26 19 22 24 9 3 6 5 5 6 3 2 3 2 0 4 5 3 3 5 4 4 5 4 5 2 2 4 4 2 6 4 4 1 5 6 4 6 8 12 17 16 14
36 29 23 23 21 22 4 3 2 3 4 2 3 2 1 3 5 3 5 3 6 4 0 2 5 4 5 3 4 3 1 2 3 4 2 1 3 3 8 7 6 8 13 12 10
39 12 24 24 21 7 3 4 3 5 3 3 4 3 4 1 1 2 3 3 5 7 4 2 3 2 2 4 3 5 3 4 5 4 3 2 3 3 6 6 3 6 11 13 13
13 4 28 28 5 2 3 5 4 4 3 0 2 2 4 2 4 3 2 1 8 4 4 4 4 4 2 4 2 2 2 3 4 1 2 2 3 2 4 2 6 7 10 9 10
8 9 24 23 4 3 3 3 3 3 3 2 1 2 3 2 3 3 2 4 9 5 2 1 3 3 6 5 4 4 3 3 5 4 1 3 4 3 3 5 7 5 6 9 12
10 4 5 10 2 4 4 4 4 4 4 2 1 2 2 3 5 3 2 3 6 4 7 4 3 3 5 3 2 2 3 3 4 3 3 4 3 4 7 6 8 10 5 10 18
6 4 7 7 7 4 2 4 5 4 1 2 0 2 4 3 2 3 2 4 5 7 4 4 4 3 3 1 3 2 3 2 2 2 4 3 5 6 7 6 11 14 14 17 17
7 6 7 4 19 5 1 4 5 3 4 3 3 2 2 4 3 5 4 1 1 5 3 3 1 2 5 7 5 1 1 2 3 3 4 4 7 5 7 11 12 15 16 18 17
4 13 10 10 5 5 4 6 7 7 3 1 6 4 4 2 7 10 5 8 4 2 2 3 3 3 3 4 3 3 1 0 2 1 1 2 5 5 7 9 12 14 13 13 13

GFSSW_850_spd_099.txt.gz
Wind_Speed
30 33 27 20 18 16 16 19 19 15 12 12 11 12 9 9 9 9 9 5 1 5 6 6 6 5 7 8 10 5 6 13 18 20 17 10 8 26 17 9 25 27 20 36 21
29 32 33 23 17 16 14 19 18 15 11 10 9 11 9 9 9 8 4 4 1 4 4 4 5 6 5 3 6 7 8 18 8 11 7 19 19 19 10 11 14 17 20 24 24
29 31 33 23 17 14 14 18 18 15 10 10 8 11 8 7 6 2 6 4 2 4 5 6 5 4 4 8 5 5 14 13 13 16 14 6 5 4 10 12 16 27 21 23 18
28 27 32 25 18 12 14 16 16 13 10 9 8 9 8 3 1 6 4 2 5 7 8 7 3 1 2 6 12 9 13 17 10 16 14 8 7 5 9 17 12 27 30 25 18
26 27 30 25 21 14 11 13 15 12 11 8 9 7 5 3 5 7 6 7 6 8 6 5 4 3 5 4 8 11 10 10 15 21 20 13 10 4 21 24 21 14 32 33 24
28 27 33 29 25 15 8 13 13 13 11 9 7 6 4 3 4 7 6 5 6 6 6 9 7 6 9 11 9 6 18 20 21 13 15 6 8 8 10 15 22 19 40 41 35
25 25 29 25 16 9 4 13 12 15 12 9 8 5 7 7 5 7 7 7 7 9 10 11 13 7 6 7 20 20 6 8 18 17 3 3 8 7 17 22 26 26 37 44 39
17 16 22 23 14 6 4 10 10 6 5 8 10 7 4 3 9 8 8 8 9 8 10 12 10 12 16 10 5 13 7 8 13 13 6 4 5 3 19 24 23 15 33 42 36
21 21 16 26 15 3 2 5 6 4 6 8 8 4 5 5 7 7 9 11 10 11 11 10 7 7 8 4 7 9 5 9 6 17 5 7 0 4 21 24 25 21 27 35 37
16 25 14 24 10 3 1 4 4 6 7 6 5 2 4 2 6 7 10 12 13 10 9 8 5 3 4 4 9 7 8 7 6 12 7 7 4 10 23 23 24 22 15 32 35
13 21 21 20 9 5 6 8 5 5 9 5 4 2 6 4 10 5 5 5 10 6 6 5 4 6 11 11 2 2 9 11 4 11 8 7 1 5 15 17 23 15 9 19 29
17 14 24 21 9 5 11 11 7 2 3 8 4 8 9 7 2 5 5 4 6 8 2 4 8 8 11 10 9 2 10 6 9 11 4 6 2 5 6 14 19 14 7 12 23
15 16 26 19 11 5 14 23 5 6 2 3 4 7 4 3 3 5 5 4 5 7 9 10 4 10 8 9 10 7 12 7 13 10 8 5 6 7 8 14 12 17 9 5 16
15 18 24 16 8 7 17 19 8 7 4 3 2 3 1 1 4 6 5 4 2 4 6 6 5 8 10 7 10 9 7 14 16 6 5 2 1 5 3 5 9 10 6 3 7
11 10 24 17 7 10 5 15 10 5 3 3 2 2 2 2 7 3 5 5 6 5 3 5 5 3 5 7 13 3 9 16 8 9 10 1 2 4 2 1 8 7 2 4 3
11 13 25 18 9 8 10 14 10 6 4 2 1 2 1 3 3 4 3 7 9 0 3 3 2 1 2 1 4 10 7 5 3 0 4 1 2 2 2 1 6 6 7 8 8
7 10 29 18 12 14 16 15 4 4 3 2 2 1 1 3 2 2 3 2 4 4 5 3 3 3 3 7 3 5 4 2 4 4 2 4 1 3 2 2 4 7 14 12 18
7 16 22 17 17 18 21 3 4 2 4 1 1 2 2 4 2 2 1 6 4 4 4 5 5 8 8 3 3 3 2 3 5 4 3 3 4 2 3 9 8 7 6 8 14
4 28 21 19 20 22 8 2 6 5 5 6 3 4 3 1 1 4 5 5 3 5 4 2 5 3 5 4 3 6 4 1 6 2 3 2 2 1 4 9 10 12 13 14 14
23 25 23 21 22 21 3 3 2 3 3 2 4 1 2 5 4 3 5 4 6 5 2 2 4 3 3 3 6 1 0 1 3 4 4 3 2 2 7 7 5 7 12 14 13
30 10 20 23 19 8 2 4 3 3 2 1 3 4 1 1 2 3 4 3 4 6 5 2 3 2 2 4 2 3 2 5 4 2 4 3 2 2 5 4 3 5 11 13 14
15 4 25 23 6 3 2 4 3 3 2 1 4 3 3 1 3 3 2 2 12 3 3 3 3 4 1 4 3 2 3 3 3 3 4 3 1 2 2 1 5 6 9 13 14
9 10 22 22 3 4 3 2 2 3 1 2 2 1 1 2 3 2 1 2 9 4 2 1 3 3 6 3 2 5 4 4 4 2 2 4 2 2 3 4 8 9 5 6 9
10 4 7 8 2 4 4 3 3 1 2 3 3 3 3 4 5 2 2 3 6 4 7 4 4 3 4 2 1 4 4 3 3 3 2 1 0 1 6 6 12 12 10 12 15
6 3 7 6 5 3 1 4 5 3 2 2 3 2 2 2 2 2 1 3 3 7 4 3 4 3 4 3 3 3 4 3 4 2 3 1 2 4 6 6 11 15 15 14 13
6 5 7 4 14 4 1 3 4 2 3 1 5 3 2 3 1 5 3 0 1 5 4 4 1 2 4 5 5 2 2 3 3 2 0 1 2 2 10 12 16 17 16 17 18
7 14 9 9 10 3 5 4 6 6 4 3 6 5 5 2 4 6 7 9 5 2 3 3 3 3 2 4 3 4 2 1 1 2 2 2 2 4 5 10 17 19 19 19 18

GFSSW_850_spd_102.txt.gz
Wind_Speed
17 22 32 22 25 20 14 13 15 17 14 9 11 12 11 12 10 9 8 5 3 9 6 2 1 3 3 9 12 8 9 16 24 25 22 24 19 24 29 19 14 22 21 6 10
24 19 20 29 24 21 14 11 13 15 14 8 10 10 10 11 9 10 7 4 4 4 2 1 3 2 7 7 8 13 13 20 21 17 16 28 20 18 13 22 24 20 16 11 19
27 19 22 24 26 22 15 12 12 14 12 8 10 10 8 9 7 2 5 7 5 4 4 1 1 3 8 11 12 11 19 17 15 19 18 18 18 22 25 17 23 22 22 18 21
24 21 21 17 26 21 17 10 10 10 12 8 9 9 7 5 3 7 8 5 7 4 4 1 1 3 5 9 14 14 20 21 22 16 16 13 20 15 21 26 25 14 13 17 20
21 20 21 18 22 20 13 6 6 11 9 8 9 8 6 4 8 10 10 8 6 6 4 4 6 5 8 6 8 17 20 20 15 19 24 18 17 17 18 10 12 14 13 25 28
22 17 17 19 23 22 11 2 5 7 10 7 9 7 5 8 7 11 10 8 5 2 4 5 4 5 9 12 12 11 18 25 18 16 16 19 19 14 11 9 16 14 16 25 31
23 15 8 13 26 18 4 3 5 7 11 9 9 7 8 12 7 11 10 8 7 4 6 8 7 9 2 9 18 21 18 15 18 22 15 19 20 15 9 7 17 17 17 18 34
20 17 10 13 21 14 8 4 4 4 2 8 10 7 8 6 11 11 10 9 9 7 6 6 7 11 9 10 9 13 17 17 17 16 15 12 20 17 2 3 10 15 21 14 31
21 13 11 13 26 19 8 3 2 5 3 8 8 6 6 6 9 7 8 9 8 9 8 6 6 7 5 7 7 12 12 19 16 19 12 14 8 5 3 5 8 16 21 12 33
21 13 15 14 25 14 7 10 8 6 7 8 9 4 7 5 5 6 8 10 9 6 6 7 5 4 4 6 8 10 17 16 17 20 17 13 9 7 6 4 15 18 21 15 22
19 7 13 21 24 13 13 14 8 2 10 8 4 3 4 4 7 7 7 5 6 6 9 6 5 10 11 16 6 2 12 14 15 19 17 12 8 9 6 4 12 17 17 16 21
17 6 5 20 14 13 13 10 10 2 4 16 7 11 7 6 4 7 6 4 5 9 8 5 10 13 13 14 13 2 13 15 9 19 11 10 10 6 8 5 10 16 14 12 9
18 3 8 26 17 13 8 10 8 5 3 5 7 6 1 5 4 4 6 2 6 9 12 11 5 9 8 7 8 8 12 12 11 14 5 11 5 4 3 2 8 10 11 9 7
14 7 21 20 12 10 8 12 7 6 1 5 3 2 2 4 3 4 4 5 3 5 5 7 5 6 8 11 9 9 15 10 16 15 5 7 4 9 13 7 4 7 7 5 8
9 7 19 21 7 14 6 17 9 4 3 4 3 2 3 3 2 3 6 7 4 2 3 2 3 6 5 7 13 3 14 16 19 10 7 9 4 6 10 4 6 5 10 8 10
4 11 16 21 11 10 15 17 11 2 2 3 3 2 3 3 1 2 4 8 5 1 1 2 1 3 3 7 15 7 8 3 1 3 5 4 6 2 6 5 0 1 12 11 14
2 5 17 21 13 14 20 17 3 3 1 4 2 3 3 3 2 2 4 4 5 2 3 2 2 2 2 6 8 7 11 3 3 3 4 2 2 4 5 6 4 10 10 3 12
4 1 31 20 18 20 21 2 3 2 3 2 2 2 4 3 1 3 4 6 6 4 2 3 3 3 1 2 3 4 2 2 5 4 4 3 5 5 9 9 10 6 6 3 7
6 21 22 17 21 23 11 2 2 2 4 7 3 3 2 2 2 4 5 7 6 9 3 2 4 6 7 4 2 1 3 2 5 3 5 3 5 5 6 11 11 11 13 15 11
17 27 17 21 20 15 2 2 1 1 2 1 1 2 2 3 1 3 6 5 7 6 4 3 4 6 6 5 3 5 1 1 1 4 5 5 8 6 7 9 9 13 17 17 17
25 9 13 19 16 5 1 1 2 2 2 2 2 4 2 1 3 3 4 3 6 7 5 3 3 4 3 7 8 4 2 4 1 3 4 5 5 6 3 5 10 11 12 12 13
9 3 18 21 4 1 1 2 1 2 1 1 2 3 2 1 3 2 3 3 11 5 4 4 3 4 4 2 4 3 5 3 2 4 4 8 5 5 5 7 10 9 8 10 12
7 9 17 8 2 4 2 1 2 2 1 1 2 1 1 2 1 1 2 4 8 6 4 3 3 2 4 4 2 5 6 4 2 1 3 3 6 4 7 7 12 10 9 8 11
8 3 5 3 2 4 2 2 3 1 1 1 2 1 2 2 4 3 1 3 6 4 7 1 4 5 3 4 2 2 7 9 5 3 7 10 15 5 8 8 9 10 10 12 14
5 3 6 4 6 5 2 2 4 2 2 3 2 3 2 2 1 2 1 2 1 6 3 2 4 4 7 6 3 6 7 8 5 3 5 7 8 9 9 9 12 12 14 14 15
5 5 5 5 10 4 3 4 7 2 1 1 3 3 4 3 3 1 1 0 2 4 3 2 4 2 3 5 4 6 4 3 5 3 5 4 9 6 6 9 12 13 13 14 14
8 14 7 9 8 5 4 4 6 4 2 3 4 4 8 4 5 7 7 8 5 2 3 2 2 1 2 5 1 4 5 5 3 5 3 3 5 7 8 9 6 8 10 11 13

GFSSW_850_spd_105.txt.gz
Wind_Speed
30 26 22 20 17 18 18 14 13 13 11 14 7 8 10 11 9 7 7 7 6 10 6 5 5 5 7 14 17 11 10 18 25 25 21 28 21 29 23 26 32 21 25 12 5
27 30 22 17 23 24 20 15 13 12 11 12 6 9 8 10 8 11 9 7 7 4 4 5 6 7 11 11 13 14 13 22 19 19 20 25 27 28 23 33 25 32 18 11 12
21 20 16 17 17 23 22 17 12 10 10 9 6 8 6 9 10 2 8 8 5 4 3 2 4 7 12 15 17 18 21 19 20 22 21 25 23 18 19 13 20 25 31 13 14
19 19 16 12 15 20 22 17 10 8 9 6 6 5 4 5 2 3 7 6 6 4 1 4 6 9 8 10 16 20 25 21 24 27 17 17 18 20 20 26 26 27 10 14 15
21 20 16 12 12 25 24 17 8 8 8 3 5 3 3 3 8 7 8 7 6 2 5 8 9 10 12 9 13 17 19 25 24 23 22 22 21 20 24 20 18 15 15 14 18
21 19 14 9 14 25 24 16 7 7 7 4 6 3 1 6 3 6 7 5 4 5 6 7 7 7 11 14 13 16 19 21 25 25 21 19 24 28 23 22 18 16 19 14 13
21 21 7 5 10 24 23 13 5 7 7 7 6 3 4 9 1 5 6 5 7 6 7 7 8 8 4 11 13 17 21 21 23 21 21 18 23 26 27 19 16 20 21 13 18
20 19 6 7 8 24 19 10 5 3 3 11 7 3 5 8 5 7 7 8 7 8 7 6 7 12 13 11 17 15 19 18 22 21 24 23 20 22 28 13 20 17 15 17 20
22 19 12 13 8 20 14 7 6 9 9 9 6 3 5 6 5 6 9 9 9 8 7 7 8 10 5 7 9 12 14 19 21 20 18 19 17 18 11 11 15 13 16 16 19
20 18 15 14 21 27 15 11 14 10 9 8 4 2 6 2 4 5 8 10 10 10 10 10 7 5 4 6 11 7 14 18 17 18 20 20 16 4 9 12 14 12 11 15 15
18 13 12 9 21 23 17 18 11 3 8 5 5 2 1 3 3 5 9 8 11 12 13 10 6 12 15 16 20 17 16 14 16 19 21 20 17 15 13 11 16 13 11 12 16
12 9 5 5 18 18 17 7 6 6 5 12 3 6 6 3 5 7 6 8 11 12 12 5 15 15 11 15 15 16 13 17 17 14 18 18 15 12 12 14 18 15 13 14 12
12 9 13 6 16 17 14 7 10 9 3 4 5 4 2 4 5 5 11 5 9 8 10 11 6 3 7 12 12 14 18 17 6 20 19 14 11 10 7 8 12 12 15 12 7
8 5 9 21 17 16 13 11 11 5 1 5 3 2 2 3 5 9 10 5 3 3 4 7 6 8 11 13 13 14 14 9 17 18 9 16 6 5 5 6 10 12 10 7 6
5 2 18 25 5 16 6 15 10 2 3 4 4 3 2 6 1 7 6 4 3 2 2 3 2 5 8 10 10 8 14 10 15 8 14 6 3 5 6 2 4 2 6 7 10
4 5 21 14 4 7 13 16 6 3 3 3 4 3 5 10 4 4 5 5 4 2 4 3 3 3 6 7 10 9 4 7 3 5 5 5 3 10 7 6 1 9 7 11 13
6 7 12 13 5 17 20 8 2 2 1 4 4 5 5 2 2 1 3 3 2 3 1 2 1 4 6 2 6 3 5 2 1 3 4 8 6 6 11 10 3 5 5 11 13
7 3 12 13 7 22 13 3 1 3 3 1 3 5 1 2 2 2 3 3 3 3 2 4 3 5 3 4 3 6 5 3 3 2 5 11 8 5 10 8 7 4 6 13 13
5 11 13 13 19 22 4 0 2 3 2 5 5 4 3 2 2 2 4 5 5 7 4 1 3 5 1 7 6 4 2 4 1 11 5 3 1 3 9 10 12 5 20 19 14
21 16 15 17 18 10 2 2 2 1 1 2 1 4 2 4 2 3 5 7 4 6 4 3 2 4 7 7 3 2 2 3 1 2 6 5 5 5 11 14 13 13 21 19 13
19 8 10 12 15 4 0 4 3 1 2 4 4 2 4 4 6 5 6 6 9 6 4 1 3 5 3 8 9 8 6 4 4 3 3 5 6 6 9 12 14 15 19 17 14
9 4 14 18 1 5 1 3 3 1 1 2 3 5 7 4 5 3 6 7 12 6 5 5 3 3 2 4 2 5 7 6 4 3 4 8 6 6 9 11 12 14 15 16 17
7 7 12 4 1 2 2 2 3 2 4 4 3 5 4 4 1 3 4 5 9 8 5 6 3 1 3 4 4 4 10 9 3 4 5 1 7 7 8 11 15 15 15 15 15
8 3 2 2 3 0 3 1 2 1 2 3 3 2 2 4 4 3 2 4 6 6 5 4 5 5 5 5 5 7 12 13 5 5 12 12 15 10 9 10 11 14 13 13 15
4 3 5 4 3 4 0 1 4 1 2 3 2 4 5 2 2 4 4 2 2 4 2 3 4 5 8 6 5 7 10 13 11 6 9 13 12 9 9 9 10 10 12 16 17
2 5 5 5 6 6 4 5 6 2 3 2 2 4 6 5 5 4 5 4 4 4 3 1 3 1 4 6 4 7 10 7 10 9 8 10 8 5 7 8 9 11 12 13 14
2 10 4 8 7 5 4 3 5 2 2 3 2 2 6 6 6 7 7 6 6 6 5 4 2 0 2 3 1 1 8 7 5 8 5 1 4 3 4 5 3 5 6 7 7

GFSSW_850_spd_108.txt.gz
Wind_Speed
18 28 29 27 19 17 14 18 12 12 10 10 10 7 5 7 7 6 5 5 6 13 5 0 5 4 5 11 14 12 7 11 17 18 17 21 18 31 19 28 28 20 13 5 7
15 16 18 22 15 13 23 17 15 12 11 11 9 7 4 7 7 8 9 11 10 5 3 4 5 5 8 10 11 11 7 12 15 16 15 20 23 26 23 18 17 16 20 6 11
17 17 16 13 11 14 21 22 18 12 10 10 8 6 1 6 6 3 6 8 6 6 0 1 2 4 9 12 15 15 14 14 21 24 25 19 21 27 14 11 9 13 22 8 10
17 17 16 13 13 11 22 22 17 13 10 9 6 4 1 4 1 2 6 8 7 5 2 1 3 5 6 6 12 14 18 21 21 25 25 16 23 23 20 16 15 4 16 9 4
15 17 17 16 10 13 14 20 15 11 9 6 7 4 4 1 2 4 7 6 5 2 1 4 5 8 9 8 11 11 12 20 23 24 26 23 21 21 22 22 20 10 13 15 16
21 17 18 11 8 14 20 23 13 9 7 6 9 5 3 4 5 1 7 4 3 1 1 2 4 8 9 11 11 15 18 19 22 23 24 22 20 21 27 25 31 19 12 11 16
19 20 18 9 9 12 20 19 14 7 7 7 9 6 3 5 5 6 7 5 3 2 1 3 5 6 9 8 7 13 13 14 20 19 18 23 20 22 24 25 29 15 15 14 19
18 19 18 9 3 11 19 19 11 7 8 9 10 6 2 5 6 9 5 5 4 2 1 3 4 9 14 9 8 12 12 13 9 18 23 20 19 15 26 30 31 24 19 17 21
18 18 18 10 14 4 16 16 9 9 12 14 11 4 3 2 6 6 7 5 6 4 5 7 7 11 6 4 6 9 8 12 17 16 14 17 18 21 34 26 31 17 18 21 21
18 16 15 19 19 16 21 11 14 13 14 10 5 1 3 2 5 6 6 6 7 6 7 9 7 3 3 4 5 5 8 7 15 15 14 18 15 19 29 27 29 15 17 19 20
16 14 8 18 22 24 19 22 13 5 7 5 4 5 7 3 2 3 5 3 6 9 11 15 4 9 12 14 16 16 17 18 20 12 11 15 13 27 18 13 12 18 16 11 16
11 10 5 12 17 20 23 8 2 6 5 6 5 3 2 2 2 5 6 4 7 10 9 4 12 13 13 10 14 16 15 16 19 8 10 6 14 21 14 10 18 20 22 15 11
7 9 5 1 9 12 11 3 10 8 4 4 5 2 2 4 2 2 8 3 5 8 9 8 4 3 7 11 16 13 15 13 9 11 9 14 16 19 16 12 15 20 14 10 9
7 4 4 7 12 8 14 9 10 4 3 3 5 4 3 3 1 5 7 3 3 3 3 7 9 9 9 13 13 13 7 9 9 7 7 12 5 12 8 6 7 12 16 11 8
5 15 20 14 5 10 3 10 7 2 3 4 4 4 4 2 2 5 7 6 3 2 3 2 3 3 6 8 8 8 6 14 12 6 11 13 1 4 4 7 5 2 5 9 3
8 5 21 11 5 4 14 10 4 2 2 2 5 5 4 7 3 7 5 5 4 3 6 6 4 3 4 12 8 6 6 1 3 5 4 3 2 2 4 5 3 8 10 11 15
9 8 12 6 8 12 16 4 1 2 3 3 3 3 5 4 6 7 6 4 2 3 1 3 3 3 8 7 1 4 2 3 0 2 2 6 6 1 9 8 4 3 5 12 20
10 8 7 5 5 15 5 2 4 4 2 2 2 4 4 1 2 2 7 3 7 1 3 4 3 4 3 3 3 4 3 3 3 2 2 6 5 5 8 6 4 5 3 11 16
10 12 9 8 6 12 4 2 3 4 1 3 3 5 5 4 3 4 6 5 4 5 1 3 4 4 10 9 5 4 3 2 3 5 3 4 1 10 13 16 13 13 15 16 16
16 16 13 8 15 2 3 5 3 3 4 3 2 3 4 4 4 2 3 5 4 3 1 5 4 4 6 4 5 6 6 1 2 3 4 3 5 4 10 11 12 13 17 20 13
15 8 5 6 8 4 2 4 5 4 5 5 6 1 4 3 4 3 6 3 6 5 5 3 3 3 3 5 5 5 5 4 1 2 1 3 4 7 14 10 11 13 19 21 23
10 4 7 9 2 4 4 3 2 4 0 3 4 6 6 5 5 3 4 5 10 8 5 3 4 2 2 3 2 5 6 5 3 7 5 5 5 6 10 10 16 18 19 24 23
7 6 6 8 2 2 2 3 3 4 5 6 4 5 4 4 2 5 4 5 7 5 5 5 4 3 3 2 2 5 9 6 2 2 6 4 3 7 10 10 18 20 23 22 20
5 2 2 2 6 4 0 2 3 1 1 5 2 5 2 4 4 4 4 1 7 4 5 4 5 4 2 2 3 5 10 10 4 5 10 7 9 7 8 8 12 18 19 19 20
3 2 4 2 3 4 3 4 2 3 1 4 1 7 5 5 3 4 4 1 4 1 2 4 3 4 3 4 1 5 7 12 11 7 7 9 11 6 6 7 13 15 16 17 17
4 3 3 3 6 4 2 1 1 2 5 4 6 6 10 6 6 5 6 5 4 7 3 3 1 1 1 6 3 6 8 8 9 11 12 11 7 6 8 8 10 11 12 14 14
8 3 4 2 4 3 4 3 2 2 3 4 8 3 6 4 7 6 4 2 2 5 6 4 1 2 2 4 6 1 4 6 5 5 1 5 5 6 5 4 5 7 10 14 15

GFSSW_850_spd_111.txt.gz
Wind_Speed
14 12 12 19 25 20 15 12 16 12 9 8 7 5 2 3 4 1 3 1 3 6 3 5 3 3 1 3 7 9 2 10 4 5 7 21 13 30 28 21 27 11 10 10 13
13 14 14 13 15 11 14 21 17 10 10 9 8 3 1 2 4 2 2 7 7 5 9 4 3 3 3 3 4 4 3 4 4 8 10 18 16 23 16 20 20 19 10 11 12
13 14 13 12 11 12 7 20 16 13 13 10 8 3 3 2 4 3 8 7 4 8 5 2 2 4 2 5 4 4 6 7 15 21 23 19 20 23 7 5 17 18 8 3 5
13 12 13 14 12 15 11 12 19 15 11 11 6 5 6 4 3 3 4 6 10 8 8 5 3 0 1 3 6 5 10 14 16 19 20 14 19 20 17 16 24 22 14 1 0
12 13 13 15 13 13 15 12 22 14 10 10 5 9 9 5 2 5 7 9 8 7 4 3 2 3 1 4 9 3 5 14 17 18 19 23 14 15 27 23 28 27 23 19 11
9 12 14 14 8 10 14 21 22 13 7 7 12 10 10 6 6 4 6 10 2 7 4 4 3 4 3 3 3 9 14 16 17 20 19 16 17 16 29 24 25 28 26 19 14
11 11 13 12 5 11 16 26 16 8 8 9 13 11 8 8 7 6 8 6 5 6 5 6 1 1 7 6 11 11 6 12 14 17 13 18 17 16 22 28 29 30 27 20 16
11 9 12 10 4 13 15 18 13 9 10 12 14 10 5 7 6 9 9 7 6 5 5 3 1 0 2 8 9 5 4 5 3 7 12 9 19 19 23 26 31 30 31 28 22
8 9 12 7 7 1 22 18 13 9 13 16 12 7 4 4 10 7 9 7 7 3 2 1 2 2 3 2 3 2 4 7 12 11 11 10 17 21 29 27 28 26 30 32 26
7 10 12 9 8 7 17 17 19 22 19 12 4 3 4 3 9 7 8 8 4 4 4 1 2 2 0 3 3 5 4 8 12 6 15 16 19 19 22 21 26 33 30 32 22
3 7 10 10 15 16 22 28 15 8 5 3 1 7 13 7 6 8 8 7 6 3 2 1 1 7 9 8 7 9 13 17 18 20 17 15 14 18 21 12 19 30 30 27 20
3 4 9 16 21 21 16 12 6 4 5 4 6 5 6 4 5 8 8 5 4 3 2 3 9 10 9 10 13 12 16 18 16 15 11 12 16 9 10 6 19 22 27 18 10
2 5 6 17 16 16 13 9 9 11 5 2 3 1 4 4 1 10 8 2 1 2 5 7 3 9 5 11 12 12 13 14 12 12 8 2 7 11 5 18 31 31 23 23 20
8 8 11 9 13 11 7 10 10 3 4 1 3 2 3 5 5 7 6 2 2 1 2 6 6 9 8 11 12 11 9 7 8 5 3 5 5 3 4 11 14 23 19 14 17
15 20 19 11 8 7 3 9 6 2 5 4 3 4 4 2 9 2 4 5 3 3 2 2 3 6 6 7 8 9 7 3 14 6 4 6 4 5 8 5 4 6 17 16 16
16 19 16 11 6 5 7 11 4 4 1 3 3 3 3 5 7 7 2 3 2 2 6 7 5 3 5 8 11 9 4 8 1 2 4 4 9 2 3 5 6 7 1 17 15
14 15 13 11 10 16 12 2 4 6 3 2 4 4 5 5 6 8 5 4 3 1 3 5 5 4 6 6 2 3 2 3 3 4 3 8 5 0 9 7 7 6 11 8 17
18 17 12 15 14 13 1 3 9 2 4 3 3 3 3 4 4 8 3 2 5 4 2 5 6 3 4 5 4 2 3 2 4 3 2 3 4 6 13 11 6 6 8 16 20
14 13 13 13 16 6 2 6 5 2 3 2 2 2 3 2 2 4 4 4 1 2 1 4 4 3 7 5 3 2 2 2 2 1 3 4 2 2 16 14 13 14 14 23 27
10 17 14 13 10 5 4 4 3 3 5 3 2 5 2 3 1 3 1 4 4 2 2 3 4 5 3 5 7 5 2 3 2 3 4 3 3 5 10 9 10 11 25 34 28
7 7 5 8 5 4 3 3 3 1 4 3 4 6 4 3 5 4 4 1 4 5 3 3 2 6 2 3 4 5 4 3 1 4 1 1 4 1 5 12 17 19 18 23 22
8 3 7 5 4 2 2 1 1 3 4 3 2 3 4 6 5 2 2 1 6 5 2 1 2 3 2 4 3 3 5 2 3 5 3 3 4 4 10 6 12 17 22 24 22
6 3 6 9 3 3 1 2 3 5 4 5 5 3 2 2 2 2 2 3 4 3 3 4 3 3 8 6 6 4 11 3 3 3 4 4 3 4 11 11 14 17 20 21 20
3 2 3 4 2 2 3 1 2 0 2 3 3 3 2 2 4 2 1 4 3 1 3 1 3 3 5 5 5 6 12 8 5 4 3 4 6 4 5 6 10 17 17 17 18
1 0 2 2 4 2 2 3 2 1 2 3 2 5 3 3 3 4 4 6 3 5 2 3 2 3 2 3 2 4 5 10 6 5 5 7 5 3 3 4 8 12 11 13 16
7 3 1 4 1 1 2 1 1 2 2 4 3 4 6 3 2 1 3 3 1 6 5 4 1 2 2 3 2 3 7 7 8 11 7 8 4 5 8 10 8 8 7 10 11
12 8 5 3 4 1 3 1 1 2 2 1 3 0 2 1 6 8 8 4 1 1 3 2 3 2 3 2 2 4 2 2 2 3 6 4 5 6 4 6 5 5 2 3 6

GFSSW_850_spd_114.txt.gz
Wind_Speed
13 11 12 12 14 25 20 11 17 11 8 7 7 3 2 1 2 1 4 5 1 2 6 4 5 6 3 3 2 1 1 4 4 4 4 12 8 5 13 15 19 20 11 12 17
10 9 10 10 9 10 17 15 21 13 9 6 8 2 1 1 3 5 4 4 1 0 8 5 5 5 3 1 2 3 2 4 3 3 4 12 10 20 10 15 4 17 15 6 13
9 5 7 9 11 9 13 10 18 18 10 7 6 3 3 3 6 6 5 3 0 10 7 5 3 4 2 0 2 2 4 3 9 16 18 13 14 18 7 2 13 15 16 10 9
11 5 6 10 13 12 19 6 17 17 8 8 4 5 6 6 4 5 5 5 9 8 7 7 5 3 2 1 3 3 6 6 7 9 9 6 10 13 15 18 18 21 20 15 11
8 5 6 9 10 8 19 7 17 16 14 9 5 9 9 6 5 8 8 8 7 9 7 7 5 2 0 3 6 2 4 13 13 15 15 16 7 11 27 24 21 20 22 20 17
6 5 5 9 7 7 18 12 25 20 13 8 10 12 9 5 11 10 6 8 6 8 7 6 3 2 2 2 1 6 10 13 13 18 15 10 15 12 20 21 26 24 29 25 22
5 4 5 8 2 6 17 17 28 20 13 12 14 13 11 7 9 9 7 6 3 6 7 4 0 2 2 3 7 8 6 9 10 11 6 11 15 16 26 34 35 26 29 32 27
3 4 4 7 1 11 17 27 18 12 16 17 15 15 7 10 9 8 8 6 3 1 1 1 2 2 2 4 6 5 2 4 4 3 6 7 12 11 27 19 31 27 28 31 35
3 5 2 4 4 7 28 23 15 19 18 17 14 9 6 8 9 7 11 6 2 1 2 1 2 1 0 2 3 2 4 5 7 1 4 6 9 10 25 23 29 32 29 23 28
1 4 1 4 4 26 20 16 20 23 20 14 10 9 5 4 10 7 9 6 6 4 1 1 1 2 3 3 3 4 4 6 8 3 13 17 23 17 26 23 26 31 31 27 29
6 6 5 14 13 24 34 36 22 10 8 7 2 9 13 10 9 9 8 8 4 3 2 2 3 5 8 8 3 2 7 14 17 18 15 18 23 20 25 18 20 29 32 30 28
13 16 17 24 26 28 18 13 10 13 10 11 9 10 8 6 4 7 6 3 3 2 2 3 7 8 7 8 7 8 15 19 15 13 7 13 20 22 19 13 23 26 29 29 29
13 16 23 29 26 14 13 13 17 15 7 6 6 3 3 5 1 9 8 4 1 2 4 6 5 6 4 9 12 14 14 15 14 13 13 13 11 7 3 9 16 21 20 17 18
18 17 17 18 13 14 11 11 13 4 5 2 0 2 2 3 4 8 8 2 2 3 2 6 5 8 7 10 9 13 8 14 14 7 3 3 5 5 6 6 6 15 21 24 18
22 20 18 10 17 11 9 10 8 1 5 3 3 3 2 2 10 3 3 2 2 4 3 3 3 6 5 6 6 10 4 9 7 10 4 2 2 5 8 8 8 7 11 18 22
22 16 13 13 13 11 10 10 3 5 1 3 3 2 1 3 5 3 2 4 3 3 6 8 6 4 4 7 12 11 7 9 2 2 2 5 4 1 5 9 13 8 18 10 19
18 12 9 10 12 13 12 4 4 6 3 2 3 4 4 5 6 7 5 4 4 2 3 1 3 3 6 7 4 4 2 3 2 1 3 3 3 3 12 17 7 7 16 15 9
11 7 13 21 18 11 2 5 8 2 4 2 4 4 3 5 5 6 2 3 6 3 2 5 7 3 5 5 3 4 2 2 4 3 3 2 3 3 10 9 8 12 19 18 16
6 6 13 14 10 2 2 6 5 3 2 1 1 0 3 3 3 5 5 3 1 2 2 4 5 4 8 6 7 2 2 2 3 2 3 3 3 4 14 16 18 23 20 11 26
7 16 11 6 1 6 4 4 2 3 2 1 1 3 2 3 1 4 3 2 3 0 3 2 4 6 5 2 7 6 3 1 2 4 3 4 3 5 12 10 10 10 8 19 31
3 4 3 6 8 5 4 1 1 3 0 2 1 1 2 2 3 3 3 1 1 3 4 1 2 6 2 1 3 3 4 2 3 2 3 3 3 5 6 5 5 8 16 21 23
3 3 3 8 4 3 2 2 3 4 3 1 1 2 0 2 3 1 0 3 2 2 2 2 2 4 7 3 3 3 4 2 3 1 2 3 1 8 9 4 3 11 21 28 28
4 3 9 10 3 3 2 2 3 5 3 4 3 1 1 1 2 1 1 3 3 1 2 1 2 4 8 6 6 4 6 4 2 3 1 3 1 4 5 4 12 16 22 23 21
4 4 6 8 5 2 2 2 3 3 4 3 3 4 3 5 4 2 3 2 3 3 3 0 2 3 4 5 3 7 13 7 3 4 2 1 5 2 3 6 8 13 15 18 17
6 2 4 3 5 3 2 1 1 3 3 6 3 5 3 3 3 4 3 5 3 8 2 2 1 2 4 5 3 2 6 10 6 3 3 6 6 5 5 5 5 7 8 9 12
5 5 5 4 9 6 5 2 0 0 3 3 3 5 5 2 0 2 3 3 2 6 5 3 1 2 3 5 4 3 4 6 6 5 6 4 1 4 6 8 6 4 3 5 7
5 4 5 4 3 3 3 4 4 3 0 1 1 2 3 3 5 9 8 11 7 2 2 2 3 2 3 5 5 6 4 2 1 2 6 4 6 5 5 5 5 4 1 4 8

GFSSW_850_spd_117.txt.gz
Wind_Speed
12 8 9 9 13 12 20 17 11 15 9 3 0 3 1 2 4 4 7 6 3 3 5 4 5 5 7 5 4 5 1 3 3 3 3 4 6 1 9 4 14 6 11 17 20
13 10 7 8 9 8 16 23 14 14 10 5 3 1 2 4 7 6 7 5 3 2 5 5 6 5 5 3 2 3 3 4 3 2 3 10 7 11 5 10 5 10 8 9 14
15 9 5 6 8 10 10 20 15 18 13 7 4 1 4 7 6 6 6 3 4 6 6 6 5 4 4 2 1 1 4 3 4 10 11 8 11 10 4 5 5 11 16 13 13
16 9 5 5 12 13 13 17 19 20 13 8 5 4 7 8 3 5 4 5 5 6 3 4 3 3 3 1 3 3 3 3 5 8 9 7 10 9 17 18 18 10 15 20 19
14 11 7 4 7 9 14 14 20 23 17 10 6 9 11 8 7 10 7 5 6 4 5 6 6 2 2 2 6 2 4 11 13 17 15 14 13 13 25 22 23 18 16 20 22
9 9 5 5 7 7 19 16 21 21 15 10 10 12 10 6 13 9 7 7 6 4 5 4 5 4 3 2 1 7 11 16 12 19 15 11 19 15 4 16 30 29 25 24 26
11 5 4 5 5 6 21 14 25 21 15 13 15 13 12 9 11 8 6 8 6 5 5 6 3 1 3 4 7 8 7 9 6 6 4 10 9 16 24 27 33 38 25 24 31
8 4 3 3 4 9 21 24 30 18 18 18 17 14 8 11 11 8 6 6 6 2 2 4 4 3 2 4 6 5 2 5 4 6 6 4 12 8 15 14 24 31 34 26 26
3 2 1 2 14 21 28 26 22 18 18 17 17 10 8 11 8 6 4 4 4 5 4 3 4 3 2 3 4 3 4 4 7 2 4 5 10 7 22 27 31 35 33 31 29
3 4 5 7 7 36 26 28 22 24 17 14 12 10 8 5 9 6 7 2 1 0 2 3 3 3 2 4 3 4 4 4 6 5 8 16 24 21 31 25 27 33 34 33 32
3 5 12 14 23 24 28 36 22 11 12 8 12 16 14 11 8 7 4 3 2 1 2 3 4 4 4 4 3 3 4 12 15 13 11 13 17 23 25 20 23 28 34 33 33
21 22 24 17 33 34 18 11 12 16 15 15 15 13 12 8 5 6 3 1 2 1 2 3 6 7 7 6 5 5 12 15 17 13 5 14 21 24 20 19 24 23 29 31 29
24 27 27 19 16 12 15 21 22 15 8 8 8 7 4 4 3 6 4 2 3 2 2 4 5 4 4 8 9 9 11 14 13 8 12 11 9 4 5 6 8 19 24 21 22
22 23 22 18 10 12 16 19 14 5 5 6 4 4 3 4 5 4 4 1 1 2 2 6 4 4 6 10 7 9 7 13 15 8 4 2 6 5 7 6 7 12 9 16 19
20 19 11 4 12 9 12 11 4 3 6 4 1 2 2 2 7 3 2 1 1 1 0 5 3 5 9 7 7 8 4 7 13 8 5 3 3 6 7 10 17 13 24 20 6
13 10 12 13 10 11 14 7 3 6 0 3 2 1 1 3 4 4 1 1 2 2 5 9 8 5 6 4 10 10 11 10 5 1 3 3 5 4 8 12 14 11 19 15 9
14 8 7 9 10 9 8 0 5 6 3 2 2 3 1 2 4 4 2 1 3 2 3 4 5 5 7 4 4 5 2 3 3 3 4 4 4 2 14 17 10 6 9 17 13
12 6 9 16 15 8 2 5 9 1 3 1 3 3 2 5 4 4 2 3 6 6 3 3 6 6 6 6 3 2 1 2 3 2 4 2 6 4 12 20 13 10 16 14 20
8 10 13 10 5 5 1 6 5 4 1 0 2 1 3 3 4 3 4 3 4 8 4 2 6 4 6 4 3 2 1 1 3 2 3 3 2 3 14 15 18 21 24 18 20
9 9 9 6 5 2 4 3 1 3 2 1 1 3 1 1 2 3 3 3 3 7 4 3 6 3 5 4 5 3 1 2 3 4 3 4 3 5 12 13 11 13 16 22 27
7 3 9 14 4 4 4 3 2 2 2 1 1 1 2 1 1 1 2 3 3 3 4 3 1 6 2 1 2 3 3 3 3 1 2 3 3 4 6 8 9 9 7 12 18
3 3 14 10 4 4 1 1 0 2 3 1 1 1 1 2 3 1 3 5 4 2 2 1 1 5 7 2 2 3 3 2 2 3 2 2 3 3 5 6 3 5 10 17 19
4 4 12 9 3 3 4 3 2 2 2 2 1 2 1 1 1 2 2 2 1 2 2 0 2 5 9 5 4 4 3 3 1 3 1 3 3 1 3 6 4 10 12 14 15
3 3 6 9 7 3 4 4 4 4 2 2 2 2 3 3 3 2 4 2 5 2 3 1 2 3 4 6 3 5 5 3 1 2 3 4 2 1 3 5 5 7 8 10 14
4 2 2 2 4 3 2 2 4 4 3 5 2 3 2 2 3 2 2 5 3 7 3 2 2 1 5 7 5 4 4 6 2 3 2 4 5 6 6 6 6 4 3 6 11
3 2 3 2 3 4 4 1 3 4 3 4 2 4 2 2 3 3 1 0 2 6 4 3 2 3 4 4 6 5 7 4 2 1 4 5 5 6 7 6 6 4 0 4 8
2 0 2 1 2 3 2 3 2 2 1 0 3 3 4 2 6 9 9 9 6 2 2 2 1 3 4 6 8 7 6 5 3 4 6 5 5 5 5 7 8 7 4 3 4